Ticket #5805: 2011-11-05_10-43-35.gpx

File 2011-11-05_10-43-35.gpx, 171.3 KB (added by janetworkx@…, 8 years ago)

GPX file created by osmtracker for android (version: latest in android market)

Line 
1<?xml version="1.0" encoding="UTF-8" ?>
2<gpx xmlns="http://www.topografix.com/GPX/1/1" version="1.1" creator="osmtracker-android" xmlns:xsi="http://www.w3.org/2001/XMLSchema-instance" xsi:schemaLocation="http://www.topografix.com/GPX/1/1 http://www.topografix.com/GPX/1/1/gpx.xsd ">
3        <trk>
4                <name><![CDATA[Aufgezeichnet mit OSMTracker für Android™]]></name>
5                <trkseg>
6                        <trkpt lat="50.76171407941729" lon="10.155265191569924">
7                                <ele>354.70001220703125</ele>
8                                <time>2011-11-05T09:43:57Z</time>
9                        </trkpt>
10                        <trkpt lat="50.76171407941729" lon="10.155265191569924">
11                                <ele>354.70001220703125</ele>
12                                <time>2011-11-05T09:43:58Z</time>
13                        </trkpt>
14                        <trkpt lat="50.76171407941729" lon="10.155265191569924">
15                                <ele>354.70001220703125</ele>
16                                <time>2011-11-05T09:43:59Z</time>
17                        </trkpt>
18                        <trkpt lat="50.76171407941729" lon="10.155265191569924">
19                                <ele>354.70001220703125</ele>
20                                <time>2011-11-05T09:44:00Z</time>
21                        </trkpt>
22                        <trkpt lat="50.76171407941729" lon="10.155265191569924">
23                                <ele>354.70001220703125</ele>
24                                <time>2011-11-05T09:44:01Z</time>
25                        </trkpt>
26                        <trkpt lat="50.76171407941729" lon="10.155265191569924">
27                                <ele>354.70001220703125</ele>
28                                <time>2011-11-05T09:44:02Z</time>
29                        </trkpt>
30                        <trkpt lat="50.76171407941729" lon="10.155265191569924">
31                                <ele>354.70001220703125</ele>
32                                <time>2011-11-05T09:44:03Z</time>
33                        </trkpt>
34                        <trkpt lat="50.76171407941729" lon="10.155265191569924">
35                                <ele>354.70001220703125</ele>
36                                <time>2011-11-05T09:44:04Z</time>
37                        </trkpt>
38                        <trkpt lat="50.76171407941729" lon="10.155265191569924">
39                                <ele>354.70001220703125</ele>
40                                <time>2011-11-05T09:44:05Z</time>
41                        </trkpt>
42                        <trkpt lat="50.76171407941729" lon="10.155265191569924">
43                                <ele>354.70001220703125</ele>
44                                <time>2011-11-05T09:44:06Z</time>
45                        </trkpt>
46                        <trkpt lat="50.76171407941729" lon="10.155265191569924">
47                                <ele>354.70001220703125</ele>
48                                <time>2011-11-05T09:44:07Z</time>
49                        </trkpt>
50                        <trkpt lat="50.76171407941729" lon="10.155265191569924">
51                                <ele>354.70001220703125</ele>
52                                <time>2011-11-05T09:44:08Z</time>
53                        </trkpt>
54                        <trkpt lat="50.76171407941729" lon="10.155265191569924">
55                                <ele>354.70001220703125</ele>
56                                <time>2011-11-05T09:44:09Z</time>
57                        </trkpt>
58                        <trkpt lat="50.76171407941729" lon="10.155265191569924">
59                                <ele>354.70001220703125</ele>
60                                <time>2011-11-05T09:44:10Z</time>
61                        </trkpt>
62                        <trkpt lat="50.76171407941729" lon="10.155265191569924">
63                                <ele>354.70001220703125</ele>
64                                <time>2011-11-05T09:44:11Z</time>
65                        </trkpt>
66                        <trkpt lat="50.76171407941729" lon="10.155265191569924">
67                                <ele>354.70001220703125</ele>
68                                <time>2011-11-05T09:44:12Z</time>
69                        </trkpt>
70                        <trkpt lat="50.76171407941729" lon="10.155265191569924">
71                                <ele>354.70001220703125</ele>
72                                <time>2011-11-05T09:44:13Z</time>
73                        </trkpt>
74                        <trkpt lat="50.76171407941729" lon="10.155265191569924">
75                                <ele>354.70001220703125</ele>
76                                <time>2011-11-05T09:44:14Z</time>
77                        </trkpt>
78                        <trkpt lat="50.76171407941729" lon="10.155265191569924">
79                                <ele>354.70001220703125</ele>
80                                <time>2011-11-05T09:44:15Z</time>
81                        </trkpt>
82                        <trkpt lat="50.76171407941729" lon="10.155265191569924">
83                                <ele>354.70001220703125</ele>
84                                <time>2011-11-05T09:44:16Z</time>
85                        </trkpt>
86                        <trkpt lat="50.76171407941729" lon="10.155265191569924">
87                                <ele>354.70001220703125</ele>
88                                <time>2011-11-05T09:44:17Z</time>
89                        </trkpt>
90                        <trkpt lat="50.76171407941729" lon="10.155265191569924">
91                                <ele>354.70001220703125</ele>
92                                <time>2011-11-05T09:44:18Z</time>
93                        </trkpt>
94                        <trkpt lat="50.76171407941729" lon="10.155265191569924">
95                                <ele>354.70001220703125</ele>
96                                <time>2011-11-05T09:44:19Z</time>
97                        </trkpt>
98                        <trkpt lat="50.76171407941729" lon="10.155265191569924">
99                                <ele>354.70001220703125</ele>
100                                <time>2011-11-05T09:44:20Z</time>
101                        </trkpt>
102                        <trkpt lat="50.76171407941729" lon="10.155265191569924">
103                                <ele>354.70001220703125</ele>
104                                <time>2011-11-05T09:44:21Z</time>
105                        </trkpt>
106                        <trkpt lat="50.76171407941729" lon="10.155265191569924">
107                                <ele>354.70001220703125</ele>
108                                <time>2011-11-05T09:44:22Z</time>
109                        </trkpt>
110                        <trkpt lat="50.76171407941729" lon="10.155265191569924">
111                                <ele>354.70001220703125</ele>
112                                <time>2011-11-05T09:44:23Z</time>
113                        </trkpt>
114                        <trkpt lat="50.76171407941729" lon="10.155265191569924">
115                                <ele>354.70001220703125</ele>
116                                <time>2011-11-05T09:44:24Z</time>
117                        </trkpt>
118                        <trkpt lat="50.76171407941729" lon="10.155265191569924">
119                                <ele>354.70001220703125</ele>
120                                <time>2011-11-05T09:44:25Z</time>
121                        </trkpt>
122                        <trkpt lat="50.76171407941729" lon="10.155265191569924">
123                                <ele>354.70001220703125</ele>
124                                <time>2011-11-05T09:44:26Z</time>
125                        </trkpt>
126                        <trkpt lat="50.76171407941729" lon="10.155265191569924">
127                                <ele>354.70001220703125</ele>
128                                <time>2011-11-05T09:44:27Z</time>
129                        </trkpt>
130                        <trkpt lat="50.76172790955752" lon="10.1552923489362">
131                                <ele>344.79998779296875</ele>
132                                <time>2011-11-05T09:44:28Z</time>
133                        </trkpt>
134                        <trkpt lat="50.76173239387572" lon="10.15528162010014">
135                                <ele>344.79998779296875</ele>
136                                <time>2011-11-05T09:44:29Z</time>
137                        </trkpt>
138                        <trkpt lat="50.761735453270376" lon="10.155278351157904">
139                                <ele>344.79998779296875</ele>
140                                <time>2011-11-05T09:44:30Z</time>
141                        </trkpt>
142                        <trkpt lat="50.76173796784133" lon="10.155278267338872">
143                                <ele>344.9000244140625</ele>
144                                <time>2011-11-05T09:44:31Z</time>
145                        </trkpt>
146                        <trkpt lat="50.76173796784133" lon="10.155278267338872">
147                                <ele>344.9000244140625</ele>
148                                <time>2011-11-05T09:44:32Z</time>
149                        </trkpt>
150                        <trkpt lat="50.76173796784133" lon="10.155278267338872">
151                                <ele>344.9000244140625</ele>
152                                <time>2011-11-05T09:44:33Z</time>
153                        </trkpt>
154                        <trkpt lat="50.76174362562597" lon="10.15528941527009">
155                                <ele>345.0999755859375</ele>
156                                <time>2011-11-05T09:44:34Z</time>
157                        </trkpt>
158                        <trkpt lat="50.76174576301128" lon="10.15530207194388">
159                                <ele>345.0</ele>
160                                <time>2011-11-05T09:44:35Z</time>
161                        </trkpt>
162                        <trkpt lat="50.76174697838724" lon="10.155311543494463">
163                                <ele>344.9000244140625</ele>
164                                <time>2011-11-05T09:44:36Z</time>
165                        </trkpt>
166                        <trkpt lat="50.76174601446837" lon="10.155318332836032">
167                                <ele>344.70001220703125</ele>
168                                <time>2011-11-05T09:44:37Z</time>
169                        </trkpt>
170                        <trkpt lat="50.76173997949809" lon="10.155343562364578">
171                                <ele>345.20001220703125</ele>
172                                <time>2011-11-05T09:44:38Z</time>
173                        </trkpt>
174                        <trkpt lat="50.76174773275852" lon="10.155358063057065">
175                                <ele>344.9000244140625</ele>
176                                <time>2011-11-05T09:44:39Z</time>
177                        </trkpt>
178                        <trkpt lat="50.76175330672413" lon="10.155371390283108">
179                                <ele>344.4000244140625</ele>
180                                <time>2011-11-05T09:44:40Z</time>
181                        </trkpt>
182                        <trkpt lat="50.761748319491744" lon="10.155388321727514">
183                                <ele>344.4000244140625</ele>
184                                <time>2011-11-05T09:44:41Z</time>
185                        </trkpt>
186                        <trkpt lat="50.76174408663064" lon="10.155404582619667">
187                                <ele>344.5999755859375</ele>
188                                <time>2011-11-05T09:44:42Z</time>
189                        </trkpt>
190                        <trkpt lat="50.761741320602596" lon="10.15542721375823">
191                                <ele>345.0</ele>
192                                <time>2011-11-05T09:44:43Z</time>
193                        </trkpt>
194                        <trkpt lat="50.761734740808606" lon="10.155446659773588">
195                                <ele>345.70001220703125</ele>
196                                <time>2011-11-05T09:44:44Z</time>
197                        </trkpt>
198                        <trkpt lat="50.7617262750864" lon="10.155459735542536">
199                                <ele>346.29998779296875</ele>
200                                <time>2011-11-05T09:44:45Z</time>
201                        </trkpt>
202                        <trkpt lat="50.76172501780093" lon="10.155472559854388">
203                                <ele>346.4000244140625</ele>
204                                <time>2011-11-05T09:44:46Z</time>
205                        </trkpt>
206                        <trkpt lat="50.761731010861695" lon="10.155488988384604">
207                                <ele>346.4000244140625</ele>
208                                <time>2011-11-05T09:44:47Z</time>
209                        </trkpt>
210                        <trkpt lat="50.76173532754183" lon="10.155508099123836">
211                                <ele>346.5</ele>
212                                <time>2011-11-05T09:44:48Z</time>
213                        </trkpt>
214                        <trkpt lat="50.761745679192245" lon="10.155527209863067">
215                                <ele>346.5999755859375</ele>
216                                <time>2011-11-05T09:44:49Z</time>
217                        </trkpt>
218                        <trkpt lat="50.7617524266243" lon="10.155536849051714">
219                                <ele>346.70001220703125</ele>
220                                <time>2011-11-05T09:44:50Z</time>
221                        </trkpt>
222                        <trkpt lat="50.761755905114114" lon="10.155538944527507">
223                                <ele>346.5999755859375</ele>
224                                <time>2011-11-05T09:44:51Z</time>
225                        </trkpt>
226                        <trkpt lat="50.761753264814615" lon="10.15554003417492">
227                                <ele>346.9000244140625</ele>
228                                <time>2011-11-05T09:44:52Z</time>
229                        </trkpt>
230                        <trkpt lat="50.76174492482096" lon="10.155539782717824">
231                                <ele>347.0999755859375</ele>
232                                <time>2011-11-05T09:44:53Z</time>
233                        </trkpt>
234                        <trkpt lat="50.761727574281394" lon="10.155538776889443">
235                                <ele>347.20001220703125</ele>
236                                <time>2011-11-05T09:44:54Z</time>
237                        </trkpt>
238                        <trkpt lat="50.76169941108674" lon="10.155539698898792">
239                                <ele>347.70001220703125</ele>
240                                <time>2011-11-05T09:44:55Z</time>
241                        </trkpt>
242                        <trkpt lat="50.761669697239995" lon="10.155539950355887">
243                                <ele>347.9000244140625</ele>
244                                <time>2011-11-05T09:44:56Z</time>
245                        </trkpt>
246                        <trkpt lat="50.76164023485035" lon="10.155535005033016">
247                                <ele>348.20001220703125</ele>
248                                <time>2011-11-05T09:44:57Z</time>
249                        </trkpt>
250                        <trkpt lat="50.76161412522197" lon="10.155525198206306">
251                                <ele>348.5</ele>
252                                <time>2011-11-05T09:44:58Z</time>
253                        </trkpt>
254                        <trkpt lat="50.76158918906003" lon="10.155508937314153">
255                                <ele>348.79998779296875</ele>
256                                <time>2011-11-05T09:44:59Z</time>
257                        </trkpt>
258                        <trkpt lat="50.7615711260587" lon="10.155470883473754">
259                                <ele>348.79998779296875</ele>
260                                <time>2011-11-05T09:45:00Z</time>
261                        </trkpt>
262                        <trkpt lat="50.7615312281996" lon="10.155415059998631">
263                                <ele>348.70001220703125</ele>
264                                <time>2011-11-05T09:45:01Z</time>
265                        </trkpt>
266                        <trkpt lat="50.76149795204401" lon="10.155349429696798">
267                                <ele>348.79998779296875</ele>
268                                <time>2011-11-05T09:45:02Z</time>
269                        </trkpt>
270                        <trkpt lat="50.761461993679404" lon="10.155263599008322">
271                                <ele>348.79998779296875</ele>
272                                <time>2011-11-05T09:45:03Z</time>
273                        </trkpt>
274                        <trkpt lat="50.76142360456288" lon="10.155175924301147">
275                                <ele>348.70001220703125</ele>
276                                <time>2011-11-05T09:45:04Z</time>
277                        </trkpt>
278                        <trkpt lat="50.76137561816722" lon="10.155065869912505">
279                                <ele>349.0</ele>
280                                <time>2011-11-05T09:45:05Z</time>
281                        </trkpt>
282                        <trkpt lat="50.76132738031447" lon="10.154894795268774">
283                                <ele>349.20001220703125</ele>
284                                <time>2011-11-05T09:45:06Z</time>
285                        </trkpt>
286                        <trkpt lat="50.761281782761216" lon="10.154702262952924">
287                                <ele>349.29998779296875</ele>
288                                <time>2011-11-05T09:45:07Z</time>
289                        </trkpt>
290                        <trkpt lat="50.76124402228743" lon="10.15449246391654">
291                                <ele>349.0999755859375</ele>
292                                <time>2011-11-05T09:45:08Z</time>
293                        </trkpt>
294                        <trkpt lat="50.761193479411304" lon="10.154267745092511">
295                                <ele>348.79998779296875</ele>
296                                <time>2011-11-05T09:45:09Z</time>
297                        </trkpt>
298                        <trkpt lat="50.76114021241665" lon="10.154067920520902">
299                                <ele>348.5</ele>
300                                <time>2011-11-05T09:45:10Z</time>
301                        </trkpt>
302                        <trkpt lat="50.76108384411782" lon="10.15389097854495">
303                                <ele>348.79998779296875</ele>
304                                <time>2011-11-05T09:45:11Z</time>
305                        </trkpt>
306                        <trkpt lat="50.76102265622467" lon="10.153712695464492">
307                                <ele>349.29998779296875</ele>
308                                <time>2011-11-05T09:45:12Z</time>
309                        </trkpt>
310                        <trkpt lat="50.760950949043036" lon="10.153539944440126">
311                                <ele>348.70001220703125</ele>
312                                <time>2011-11-05T09:45:13Z</time>
313                        </trkpt>
314                        <trkpt lat="50.760893574915826" lon="10.15336275100708">
315                                <ele>347.70001220703125</ele>
316                                <time>2011-11-05T09:45:14Z</time>
317                        </trkpt>
318                        <trkpt lat="50.76083356048912" lon="10.153208021074533">
319                                <ele>347.0</ele>
320                                <time>2011-11-05T09:45:15Z</time>
321                        </trkpt>
322                        <trkpt lat="50.76077832374722" lon="10.153049938380718">
323                                <ele>346.5999755859375</ele>
324                                <time>2011-11-05T09:45:16Z</time>
325                        </trkpt>
326                        <trkpt lat="50.76072597876191" lon="10.1529058534652">
327                                <ele>346.4000244140625</ele>
328                                <time>2011-11-05T09:45:17Z</time>
329                        </trkpt>
330                        <trkpt lat="50.760680716484785" lon="10.152767971158028">
331                                <ele>346.5</ele>
332                                <time>2011-11-05T09:45:18Z</time>
333                        </trkpt>
334                        <trkpt lat="50.76064052525908" lon="10.152642242610455">
335                                <ele>346.5999755859375</ele>
336                                <time>2011-11-05T09:45:19Z</time>
337                        </trkpt>
338                        <trkpt lat="50.760598364286125" lon="10.152517855167389">
339                                <ele>346.4000244140625</ele>
340                                <time>2011-11-05T09:45:20Z</time>
341                        </trkpt>
342                        <trkpt lat="50.76055767014623" lon="10.15238793566823">
343                                <ele>345.79998779296875</ele>
344                                <time>2011-11-05T09:45:21Z</time>
345                        </trkpt>
346                        <trkpt lat="50.76051760464907" lon="10.152242761105299">
347                                <ele>345.79998779296875</ele>
348                                <time>2011-11-05T09:45:22Z</time>
349                        </trkpt>
350                        <trkpt lat="50.760464798659086" lon="10.15208057127893">
351                                <ele>345.4000244140625</ele>
352                                <time>2011-11-05T09:45:23Z</time>
353                        </trkpt>
354                        <trkpt lat="50.76041023246944" lon="10.151920896023512">
355                                <ele>344.9000244140625</ele>
356                                <time>2011-11-05T09:45:24Z</time>
357                        </trkpt>
358                        <trkpt lat="50.76035336125642" lon="10.151756862178445">
359                                <ele>344.70001220703125</ele>
360                                <time>2011-11-05T09:45:25Z</time>
361                        </trkpt>
362                        <trkpt lat="50.76030386611819" lon="10.15160758048296">
363                                <ele>343.70001220703125</ele>
364                                <time>2011-11-05T09:45:26Z</time>
365                        </trkpt>
366                        <trkpt lat="50.76026686001569" lon="10.151485204696655">
367                                <ele>343.5</ele>
368                                <time>2011-11-05T09:45:27Z</time>
369                        </trkpt>
370                        <trkpt lat="50.76024665962905" lon="10.151383029296994">
371                                <ele>343.0</ele>
372                                <time>2011-11-05T09:45:28Z</time>
373                        </trkpt>
374                        <trkpt lat="50.76024481561035" lon="10.151314968243241">
375                                <ele>343.0999755859375</ele>
376                                <time>2011-11-05T09:45:29Z</time>
377                        </trkpt>
378                        <trkpt lat="50.760250934399664" lon="10.15127825550735">
379                                <ele>343.5999755859375</ele>
380                                <time>2011-11-05T09:45:30Z</time>
381                        </trkpt>
382                        <trkpt lat="50.76024913229048" lon="10.151279596611857">
383                                <ele>344.29998779296875</ele>
384                                <time>2011-11-05T09:45:31Z</time>
385                        </trkpt>
386                        <trkpt lat="50.76024791691452" lon="10.151272723451257">
387                                <ele>344.0999755859375</ele>
388                                <time>2011-11-05T09:45:32Z</time>
389                        </trkpt>
390                        <trkpt lat="50.760247288271785" lon="10.151273310184479">
391                                <ele>344.0999755859375</ele>
392                                <time>2011-11-05T09:45:33Z</time>
393                        </trkpt>
394                        <trkpt lat="50.76023894827813" lon="10.151288565248251">
395                                <ele>345.4000244140625</ele>
396                                <time>2011-11-05T09:45:34Z</time>
397                        </trkpt>
398                        <trkpt lat="50.76023894827813" lon="10.151288565248251">
399                                <ele>345.4000244140625</ele>
400                                <time>2011-11-05T09:45:35Z</time>
401                        </trkpt>
402                        <trkpt lat="50.76023894827813" lon="10.151288565248251">
403                                <ele>345.4000244140625</ele>
404                                <time>2011-11-05T09:45:36Z</time>
405                        </trkpt>
406                        <trkpt lat="50.76023894827813" lon="10.151288565248251">
407                                <ele>345.4000244140625</ele>
408                                <time>2011-11-05T09:45:37Z</time>
409                        </trkpt>
410                        <trkpt lat="50.76023894827813" lon="10.151288565248251">
411                                <ele>345.4000244140625</ele>
412                                <time>2011-11-05T09:45:38Z</time>
413                        </trkpt>
414                        <trkpt lat="50.76023894827813" lon="10.151288565248251">
415                                <ele>345.4000244140625</ele>
416                                <time>2011-11-05T09:45:39Z</time>
417                        </trkpt>
418                        <trkpt lat="50.76023894827813" lon="10.151288565248251">
419                                <ele>345.4000244140625</ele>
420                                <time>2011-11-05T09:45:40Z</time>
421                        </trkpt>
422                        <trkpt lat="50.76023894827813" lon="10.151288565248251">
423                                <ele>345.4000244140625</ele>
424                                <time>2011-11-05T09:45:41Z</time>
425                        </trkpt>
426                        <trkpt lat="50.76023894827813" lon="10.151288565248251">
427                                <ele>345.4000244140625</ele>
428                                <time>2011-11-05T09:45:42Z</time>
429                        </trkpt>
430                        <trkpt lat="50.76019884087145" lon="10.151261743158102">
431                                <ele>348.4000244140625</ele>
432                                <time>2011-11-05T09:45:43Z</time>
433                        </trkpt>
434                        <trkpt lat="50.76015131548047" lon="10.151265179738402">
435                                <ele>348.5999755859375</ele>
436                                <time>2011-11-05T09:45:44Z</time>
437                        </trkpt>
438                        <trkpt lat="50.760081955231726" lon="10.151285883039236">
439                                <ele>348.79998779296875</ele>
440                                <time>2011-11-05T09:45:45Z</time>
441                        </trkpt>
442                        <trkpt lat="50.7599804084748" lon="10.151329971849918">
443                                <ele>348.9000244140625</ele>
444                                <time>2011-11-05T09:45:46Z</time>
445                        </trkpt>
446                        <trkpt lat="50.759842190891504" lon="10.15140624716878">
447                                <ele>348.4000244140625</ele>
448                                <time>2011-11-05T09:45:47Z</time>
449                        </trkpt>
450                        <trkpt lat="50.75968461111188" lon="10.151494508609176">
451                                <ele>348.5999755859375</ele>
452                                <time>2011-11-05T09:45:48Z</time>
453                        </trkpt>
454                        <trkpt lat="50.75955850537866" lon="10.151532730087638">
455                                <ele>348.5999755859375</ele>
456                                <time>2011-11-05T09:45:49Z</time>
457                        </trkpt>
458                        <trkpt lat="50.759442332200706" lon="10.151552679017186">
459                                <ele>348.5</ele>
460                                <time>2011-11-05T09:45:50Z</time>
461                        </trkpt>
462                        <trkpt lat="50.75932917650789" lon="10.151572627946734">
463                                <ele>348.29998779296875</ele>
464                                <time>2011-11-05T09:45:51Z</time>
465                        </trkpt>
466                        <trkpt lat="50.75921736191958" lon="10.15159492380917">
467                                <ele>348.5</ele>
468                                <time>2011-11-05T09:45:52Z</time>
469                        </trkpt>
470                        <trkpt lat="50.75911154039204" lon="10.151614705100656">
471                                <ele>348.9000244140625</ele>
472                                <time>2011-11-05T09:45:53Z</time>
473                        </trkpt>
474                        <trkpt lat="50.75901887845248" lon="10.151632558554411">
475                                <ele>349.0999755859375</ele>
476                                <time>2011-11-05T09:45:54Z</time>
477                        </trkpt>
478                        <trkpt lat="50.758930407464504" lon="10.151649070903659">
479                                <ele>349.4000244140625</ele>
480                                <time>2011-11-05T09:45:55Z</time>
481                        </trkpt>
482                        <trkpt lat="50.758847636170685" lon="10.15166382305324">
483                                <ele>349.79998779296875</ele>
484                                <time>2011-11-05T09:45:56Z</time>
485                        </trkpt>
486                        <trkpt lat="50.758771360851824" lon="10.15168628655374">
487                                <ele>350.5</ele>
488                                <time>2011-11-05T09:45:57Z</time>
489                        </trkpt>
490                        <trkpt lat="50.75870355125517" lon="10.151704894378781">
491                                <ele>351.0999755859375</ele>
492                                <time>2011-11-05T09:45:58Z</time>
493                        </trkpt>
494                        <trkpt lat="50.75864403974265" lon="10.151711851358414">
495                                <ele>351.4000244140625</ele>
496                                <time>2011-11-05T09:45:59Z</time>
497                        </trkpt>
498                        <trkpt lat="50.75858679134399" lon="10.151722664013505">
499                                <ele>351.79998779296875</ele>
500                                <time>2011-11-05T09:46:00Z</time>
501                        </trkpt>
502                        <trkpt lat="50.75852769892663" lon="10.151726435869932">
503                                <ele>352.0</ele>
504                                <time>2011-11-05T09:46:01Z</time>
505                        </trkpt>
506                        <trkpt lat="50.7584670977667" lon="10.151750575751066">
507                                <ele>351.9000244140625</ele>
508                                <time>2011-11-05T09:46:02Z</time>
509                        </trkpt>
510                        <trkpt lat="50.75839191209525" lon="10.151780331507325">
511                                <ele>351.9000244140625</ele>
512                                <time>2011-11-05T09:46:03Z</time>
513                        </trkpt>
514                        <trkpt lat="50.7583090569824" lon="10.151801370084286">
515                                <ele>352.0</ele>
516                                <time>2011-11-05T09:46:04Z</time>
517                        </trkpt>
518                        <trkpt lat="50.758224609307945" lon="10.151820229366422">
519                                <ele>352.0999755859375</ele>
520                                <time>2011-11-05T09:46:05Z</time>
521                        </trkpt>
522                        <trkpt lat="50.75812356546521" lon="10.15183967538178">
523                                <ele>351.9000244140625</ele>
524                                <time>2011-11-05T09:46:06Z</time>
525                        </trkpt>
526                        <trkpt lat="50.75800994876772" lon="10.151846297085285">
527                                <ele>351.5999755859375</ele>
528                                <time>2011-11-05T09:46:07Z</time>
529                        </trkpt>
530                        <trkpt lat="50.757885267958045" lon="10.151866413652897">
531                                <ele>351.5</ele>
532                                <time>2011-11-05T09:46:08Z</time>
533                        </trkpt>
534                        <trkpt lat="50.757745332084596" lon="10.151885440573096">
535                                <ele>351.0</ele>
536                                <time>2011-11-05T09:46:09Z</time>
537                        </trkpt>
538                        <trkpt lat="50.75760049279779" lon="10.151920476928353">
539                                <ele>350.79998779296875</ele>
540                                <time>2011-11-05T09:46:10Z</time>
541                        </trkpt>
542                        <trkpt lat="50.75744760688394" lon="10.151950987055898">
543                                <ele>350.9000244140625</ele>
544                                <time>2011-11-05T09:46:11Z</time>
545                        </trkpt>
546                        <trkpt lat="50.75728260912001" lon="10.151978563517332">
547                                <ele>350.79998779296875</ele>
548                                <time>2011-11-05T09:46:12Z</time>
549                        </trkpt>
550                        <trkpt lat="50.757121718488634" lon="10.151992058381438">
551                                <ele>350.5</ele>
552                                <time>2011-11-05T09:46:13Z</time>
553                        </trkpt>
554                        <trkpt lat="50.756953870877624" lon="10.152005217969418">
555                                <ele>350.4000244140625</ele>
556                                <time>2011-11-05T09:46:14Z</time>
557                        </trkpt>
558                        <trkpt lat="50.75678790919483" lon="10.152011588215828">
559                                <ele>351.0</ele>
560                                <time>2011-11-05T09:46:15Z</time>
561                        </trkpt>
562                        <trkpt lat="50.75662479735911" lon="10.152022736147046">
563                                <ele>350.5999755859375</ele>
564                                <time>2011-11-05T09:46:16Z</time>
565                        </trkpt>
566                        <trkpt lat="50.75646717566997" lon="10.152053078636527">
567                                <ele>350.0</ele>
568                                <time>2011-11-05T09:46:17Z</time>
569                        </trkpt>
570                        <trkpt lat="50.756312906742096" lon="10.152093982324004">
571                                <ele>351.0</ele>
572                                <time>2011-11-05T09:46:18Z</time>
573                        </trkpt>
574                        <trkpt lat="50.7561511779204" lon="10.152115356177092">
575                                <ele>352.0</ele>
576                                <time>2011-11-05T09:46:19Z</time>
577                        </trkpt>
578                        <trkpt lat="50.755982492119074" lon="10.152134466916323">
579                                <ele>352.29998779296875</ele>
580                                <time>2011-11-05T09:46:20Z</time>
581                        </trkpt>
582                        <trkpt lat="50.755798341706395" lon="10.152154918760061">
583                                <ele>352.4000244140625</ele>
584                                <time>2011-11-05T09:46:21Z</time>
585                        </trkpt>
586                        <trkpt lat="50.75559948105365" lon="10.152178136631846">
587                                <ele>353.20001220703125</ele>
588                                <time>2011-11-05T09:46:22Z</time>
589                        </trkpt>
590                        <trkpt lat="50.755391609854996" lon="10.152202444151044">
591                                <ele>353.5999755859375</ele>
592                                <time>2011-11-05T09:46:23Z</time>
593                        </trkpt>
594                        <trkpt lat="50.755177829414606" lon="10.152222979813814">
595                                <ele>353.5999755859375</ele>
596                                <time>2011-11-05T09:46:24Z</time>
597                        </trkpt>
598                        <trkpt lat="50.75496786274016" lon="10.152247622609138">
599                                <ele>353.79998779296875</ele>
600                                <time>2011-11-05T09:46:25Z</time>
601                        </trkpt>
602                        <trkpt lat="50.75475316029042" lon="10.152268409729004">
603                                <ele>353.5</ele>
604                                <time>2011-11-05T09:46:26Z</time>
605                        </trkpt>
606                        <trkpt lat="50.75453845784068" lon="10.15229313634336">
607                                <ele>353.5999755859375</ele>
608                                <time>2011-11-05T09:46:27Z</time>
609                        </trkpt>
610                        <trkpt lat="50.75432467740029" lon="10.152321550995111">
611                                <ele>354.0</ele>
612                                <time>2011-11-05T09:46:28Z</time>
613                        </trkpt>
614                        <trkpt lat="50.754112866707146" lon="10.152350468561053">
615                                <ele>354.79998779296875</ele>
616                                <time>2011-11-05T09:46:29Z</time>
617                        </trkpt>
618                        <trkpt lat="50.7539021037519" lon="10.152384582906961">
619                                <ele>355.20001220703125</ele>
620                                <time>2011-11-05T09:46:30Z</time>
621                        </trkpt>
622                        <trkpt lat="50.753687527030706" lon="10.152415931224823">
623                                <ele>355.5</ele>
624                                <time>2011-11-05T09:46:31Z</time>
625                        </trkpt>
626                        <trkpt lat="50.75347600970417" lon="10.152451554313302">
627                                <ele>356.29998779296875</ele>
628                                <time>2011-11-05T09:46:32Z</time>
629                        </trkpt>
630                        <trkpt lat="50.7532580383122" lon="10.152486003935337">
631                                <ele>356.0999755859375</ele>
632                                <time>2011-11-05T09:46:33Z</time>
633                        </trkpt>
634                        <trkpt lat="50.75304677244276" lon="10.152534283697605">
635                                <ele>356.29998779296875</ele>
636                                <time>2011-11-05T09:46:34Z</time>
637                        </trkpt>
638                        <trkpt lat="50.75283357873559" lon="10.15258138999343">
639                                <ele>356.29998779296875</ele>
640                                <time>2011-11-05T09:46:35Z</time>
641                        </trkpt>
642                        <trkpt lat="50.752617325633764" lon="10.15263419598341">
643                                <ele>356.0999755859375</ele>
644                                <time>2011-11-05T09:46:36Z</time>
645                        </trkpt>
646                        <trkpt lat="50.752403629012406" lon="10.152689348906279">
647                                <ele>356.0999755859375</ele>
648                                <time>2011-11-05T09:46:37Z</time>
649                        </trkpt>
650                        <trkpt lat="50.752202002331614" lon="10.152733018621802">
651                                <ele>356.0999755859375</ele>
652                                <time>2011-11-05T09:46:38Z</time>
653                        </trkpt>
654                        <trkpt lat="50.75200599152595" lon="10.152774592861533">
655                                <ele>356.0</ele>
656                                <time>2011-11-05T09:46:39Z</time>
657                        </trkpt>
658                        <trkpt lat="50.75180281419307" lon="10.152810802683234">
659                                <ele>355.5999755859375</ele>
660                                <time>2011-11-05T09:46:40Z</time>
661                        </trkpt>
662                        <trkpt lat="50.751598882488906" lon="10.152834774926305">
663                                <ele>355.9000244140625</ele>
664                                <time>2011-11-05T09:46:41Z</time>
665                        </trkpt>
666                        <trkpt lat="50.75138728134334" lon="10.152823626995087">
667                                <ele>356.9000244140625</ele>
668                                <time>2011-11-05T09:46:42Z</time>
669                        </trkpt>
670                        <trkpt lat="50.75117190834135" lon="10.152810718864202">
671                                <ele>357.4000244140625</ele>
672                                <time>2011-11-05T09:46:43Z</time>
673                        </trkpt>
674                        <trkpt lat="50.750963324680924" lon="10.152807282283902">
675                                <ele>357.9000244140625</ele>
676                                <time>2011-11-05T09:46:44Z</time>
677                        </trkpt>
678                        <trkpt lat="50.75075700413436" lon="10.15278129838407">
679                                <ele>358.5</ele>
680                                <time>2011-11-05T09:46:45Z</time>
681                        </trkpt>
682                        <trkpt lat="50.750549426302314" lon="10.152735533192754">
683                                <ele>358.5999755859375</ele>
684                                <time>2011-11-05T09:46:46Z</time>
685                        </trkpt>
686                        <trkpt lat="50.750347170978785" lon="10.152688007801771">
687                                <ele>358.29998779296875</ele>
688                                <time>2011-11-05T09:46:47Z</time>
689                        </trkpt>
690                        <trkpt lat="50.75013435445726" lon="10.15263075940311">
691                                <ele>358.5999755859375</ele>
692                                <time>2011-11-05T09:46:48Z</time>
693                        </trkpt>
694                        <trkpt lat="50.749905235134065" lon="10.152568565681577">
695                                <ele>358.5999755859375</ele>
696                                <time>2011-11-05T09:46:49Z</time>
697                        </trkpt>
698                        <trkpt lat="50.74967510998249" lon="10.152526488527656">
699                                <ele>358.9000244140625</ele>
700                                <time>2011-11-05T09:46:50Z</time>
701                        </trkpt>
702                        <trkpt lat="50.74943400453776" lon="10.152474688366055">
703                                <ele>358.5999755859375</ele>
704                                <time>2011-11-05T09:46:51Z</time>
705                        </trkpt>
706                        <trkpt lat="50.749190845526755" lon="10.152405956760049">
707                                <ele>358.29998779296875</ele>
708                                <time>2011-11-05T09:46:52Z</time>
709                        </trkpt>
710                        <trkpt lat="50.74895535595715" lon="10.152364885434508">
711                                <ele>358.9000244140625</ele>
712                                <time>2011-11-05T09:46:53Z</time>
713                        </trkpt>
714                        <trkpt lat="50.748733738437295" lon="10.152321718633175">
715                                <ele>359.9000244140625</ele>
716                                <time>2011-11-05T09:46:54Z</time>
717                        </trkpt>
718                        <trkpt lat="50.74851790443063" lon="10.152275785803795">
719                                <ele>360.9000244140625</ele>
720                                <time>2011-11-05T09:46:55Z</time>
721                        </trkpt>
722                        <trkpt lat="50.748298885300756" lon="10.15223152935505">
723                                <ele>362.5</ele>
724                                <time>2011-11-05T09:46:56Z</time>
725                        </trkpt>
726                        <trkpt lat="50.74808011762798" lon="10.152192721143365">
727                                <ele>363.4000244140625</ele>
728                                <time>2011-11-05T09:46:57Z</time>
729                        </trkpt>
730                        <trkpt lat="50.74785627890378" lon="10.152150811627507">
731                                <ele>363.70001220703125</ele>
732                                <time>2011-11-05T09:46:58Z</time>
733                        </trkpt>
734                        <trkpt lat="50.747639145702124" lon="10.152109740301967">
735                                <ele>364.20001220703125</ele>
736                                <time>2011-11-05T09:46:59Z</time>
737                        </trkpt>
738                        <trkpt lat="50.74742134194821" lon="10.152071015909314">
739                                <ele>363.9000244140625</ele>
740                                <time>2011-11-05T09:47:00Z</time>
741                        </trkpt>
742                        <trkpt lat="50.74720806442201" lon="10.15203078277409">
743                                <ele>363.9000244140625</ele>
744                                <time>2011-11-05T09:47:01Z</time>
745                        </trkpt>
746                        <trkpt lat="50.746994954533875" lon="10.151989627629519">
747                                <ele>363.79998779296875</ele>
748                                <time>2011-11-05T09:47:02Z</time>
749                        </trkpt>
750                        <trkpt lat="50.74678817298263" lon="10.151945538818836">
751                                <ele>364.20001220703125</ele>
752                                <time>2011-11-05T09:47:03Z</time>
753                        </trkpt>
754                        <trkpt lat="50.74659266509116" lon="10.151901450008154">
755                                <ele>364.4000244140625</ele>
756                                <time>2011-11-05T09:47:04Z</time>
757                        </trkpt>
758                        <trkpt lat="50.746400761418045" lon="10.151850990951061">
759                                <ele>364.79998779296875</ele>
760                                <time>2011-11-05T09:47:05Z</time>
761                        </trkpt>
762                        <trkpt lat="50.74620667845011" lon="10.15178737230599">
763                                <ele>365.20001220703125</ele>
764                                <time>2011-11-05T09:47:06Z</time>
765                        </trkpt>
766                        <trkpt lat="50.746005051769316" lon="10.151717802509665">
767                                <ele>365.5999755859375</ele>
768                                <time>2011-11-05T09:47:07Z</time>
769                        </trkpt>
770                        <trkpt lat="50.745802503079176" lon="10.151636581867933">
771                                <ele>366.29998779296875</ele>
772                                <time>2011-11-05T09:47:08Z</time>
773                        </trkpt>
774                        <trkpt lat="50.745601672679186" lon="10.151529209688306">
775                                <ele>366.79998779296875</ele>
776                                <time>2011-11-05T09:47:09Z</time>
777                        </trkpt>
778                        <trkpt lat="50.745396399870515" lon="10.151409348472953">
779                                <ele>367.29998779296875</ele>
780                                <time>2011-11-05T09:47:10Z</time>
781                        </trkpt>
782                        <trkpt lat="50.745190498419106" lon="10.151264928281307">
783                                <ele>368.4000244140625</ele>
784                                <time>2011-11-05T09:47:11Z</time>
785                        </trkpt>
786                        <trkpt lat="50.744992601685226" lon="10.151106845587492">
787                                <ele>369.70001220703125</ele>
788                                <time>2011-11-05T09:47:12Z</time>
789                        </trkpt>
790                        <trkpt lat="50.74479579459876" lon="10.150933172553778">
791                                <ele>370.9000244140625</ele>
792                                <time>2011-11-05T09:47:13Z</time>
793                        </trkpt>
794                        <trkpt lat="50.74458515737206" lon="10.150745837017894">
795                                <ele>371.9000244140625</ele>
796                                <time>2011-11-05T09:47:14Z</time>
797                        </trkpt>
798                        <trkpt lat="50.74436257593334" lon="10.150559339672327">
799                                <ele>372.9000244140625</ele>
800                                <time>2011-11-05T09:47:15Z</time>
801                        </trkpt>
802                        <trkpt lat="50.74413173831999" lon="10.150374686345458">
803                                <ele>373.79998779296875</ele>
804                                <time>2011-11-05T09:47:16Z</time>
805                        </trkpt>
806                        <trkpt lat="50.74388317298144" lon="10.150183578953147">
807                                <ele>374.0999755859375</ele>
808                                <time>2011-11-05T09:47:17Z</time>
809                        </trkpt>
810                        <trkpt lat="50.743632428348064" lon="10.149989956989884">
811                                <ele>374.70001220703125</ele>
812                                <time>2011-11-05T09:47:18Z</time>
813                        </trkpt>
814                        <trkpt lat="50.74338658712804" lon="10.149788204580545">
815                                <ele>375.0</ele>
816                                <time>2011-11-05T09:47:19Z</time>
817                        </trkpt>
818                        <trkpt lat="50.74315465986729" lon="10.149583769962192">
819                                <ele>374.29998779296875</ele>
820                                <time>2011-11-05T09:47:20Z</time>
821                        </trkpt>
822                        <trkpt lat="50.742928851395845" lon="10.149388639256358">
823                                <ele>374.0999755859375</ele>
824                                <time>2011-11-05T09:47:21Z</time>
825                        </trkpt>
826                        <trkpt lat="50.74269901961088" lon="10.149199878796935">
827                                <ele>373.29998779296875</ele>
828                                <time>2011-11-05T09:47:22Z</time>
829                        </trkpt>
830                        <trkpt lat="50.74246612843126" lon="10.149029223248363">
831                                <ele>372.0</ele>
832                                <time>2011-11-05T09:47:23Z</time>
833                        </trkpt>
834                        <trkpt lat="50.74223625473678" lon="10.148866195231676">
835                                <ele>371.29998779296875</ele>
836                                <time>2011-11-05T09:47:24Z</time>
837                        </trkpt>
838                        <trkpt lat="50.741993682459" lon="10.148740382865071">
839                                <ele>371.0</ele>
840                                <time>2011-11-05T09:47:25Z</time>
841                        </trkpt>
842                        <trkpt lat="50.74172181542963" lon="10.148623622953892">
843                                <ele>370.5999755859375</ele>
844                                <time>2011-11-05T09:47:26Z</time>
845                        </trkpt>
846                        <trkpt lat="50.74142685625702" lon="10.148511473089457">
847                                <ele>369.5</ele>
848                                <time>2011-11-05T09:47:27Z</time>
849                        </trkpt>
850                        <trkpt lat="50.74112225789577" lon="10.14840854331851">
851                                <ele>369.0999755859375</ele>
852                                <time>2011-11-05T09:47:28Z</time>
853                        </trkpt>
854                        <trkpt lat="50.740831405855715" lon="10.148305278271437">
855                                <ele>369.70001220703125</ele>
856                                <time>2011-11-05T09:47:29Z</time>
857                        </trkpt>
858                        <trkpt lat="50.740541350096464" lon="10.148203521966934">
859                                <ele>370.5999755859375</ele>
860                                <time>2011-11-05T09:47:30Z</time>
861                        </trkpt>
862                        <trkpt lat="50.740251084789634" lon="10.148101514205337">
863                                <ele>371.5999755859375</ele>
864                                <time>2011-11-05T09:47:31Z</time>
865                        </trkpt>
866                        <trkpt lat="50.73996672872454" lon="10.14800688251853">
867                                <ele>372.5</ele>
868                                <time>2011-11-05T09:47:32Z</time>
869                        </trkpt>
870                        <trkpt lat="50.73969842400402" lon="10.147894229739904">
871                                <ele>371.9000244140625</ele>
872                                <time>2011-11-05T09:47:33Z</time>
873                        </trkpt>
874                        <trkpt lat="50.73943028692156" lon="10.14778845012188">
875                                <ele>371.70001220703125</ele>
876                                <time>2011-11-05T09:47:34Z</time>
877                        </trkpt>
878                        <trkpt lat="50.739173968322575" lon="10.147675881162286">
879                                <ele>371.70001220703125</ele>
880                                <time>2011-11-05T09:47:35Z</time>
881                        </trkpt>
882                        <trkpt lat="50.73893382679671" lon="10.147543530911207">
883                                <ele>371.29998779296875</ele>
884                                <time>2011-11-05T09:47:36Z</time>
885                        </trkpt>
886                        <trkpt lat="50.73870273772627" lon="10.147405061870813">
887                                <ele>371.29998779296875</ele>
888                                <time>2011-11-05T09:47:37Z</time>
889                        </trkpt>
890                        <trkpt lat="50.73848116211593" lon="10.147274807095528">
891                                <ele>371.0999755859375</ele>
892                                <time>2011-11-05T09:47:38Z</time>
893                        </trkpt>
894                        <trkpt lat="50.738285151310265" lon="10.147152179852128">
895                                <ele>370.4000244140625</ele>
896                                <time>2011-11-05T09:47:39Z</time>
897                        </trkpt>
898                        <trkpt lat="50.738120740279555" lon="10.147053021937609">
899                                <ele>370.0</ele>
900                                <time>2011-11-05T09:47:40Z</time>
901                        </trkpt>
902                        <trkpt lat="50.7379562035203" lon="10.146951600909233">
903                                <ele>369.4000244140625</ele>
904                                <time>2011-11-05T09:47:41Z</time>
905                        </trkpt>
906                        <trkpt lat="50.73779539670795" lon="10.146859986707568">
907                                <ele>369.4000244140625</ele>
908                                <time>2011-11-05T09:47:42Z</time>
909                        </trkpt>
910                        <trkpt lat="50.73763303924352" lon="10.146768288686872">
911                                <ele>369.70001220703125</ele>
912                                <time>2011-11-05T09:47:43Z</time>
913                        </trkpt>
914                        <trkpt lat="50.737466951832175" lon="10.14668170362711">
915                                <ele>370.5999755859375</ele>
916                                <time>2011-11-05T09:47:44Z</time>
917                        </trkpt>
918                        <trkpt lat="50.73729277588427" lon="10.14658648520708">
919                                <ele>371.70001220703125</ele>
920                                <time>2011-11-05T09:47:45Z</time>
921                        </trkpt>
922                        <trkpt lat="50.73713117279112" lon="10.1464853156358">
923                                <ele>371.9000244140625</ele>
924                                <time>2011-11-05T09:47:46Z</time>
925                        </trkpt>
926                        <trkpt lat="50.736965630203485" lon="10.146384229883552">
927                                <ele>371.29998779296875</ele>
928                                <time>2011-11-05T09:47:47Z</time>
929                        </trkpt>
930                        <trkpt lat="50.73680105153471" lon="10.146278031170368">
931                                <ele>370.5</ele>
932                                <time>2011-11-05T09:47:48Z</time>
933                        </trkpt>
934                        <trkpt lat="50.73662758804858" lon="10.146197900176048">
935                                <ele>368.9000244140625</ele>
936                                <time>2011-11-05T09:47:49Z</time>
937                        </trkpt>
938                        <trkpt lat="50.73648740071803" lon="10.146131096407771">
939                                <ele>367.79998779296875</ele>
940                                <time>2011-11-05T09:47:50Z</time>
941                        </trkpt>
942                        <trkpt lat="50.73634616564959" lon="10.146054066717625">
943                                <ele>368.0</ele>
944                                <time>2011-11-05T09:47:51Z</time>
945                        </trkpt>
946                        <trkpt lat="50.736225550062954" lon="10.145968236029148">
947                                <ele>367.9000244140625</ele>
948                                <time>2011-11-05T09:47:52Z</time>
949                        </trkpt>
950                        <trkpt lat="50.73613058310002" lon="10.145886344835162">
951                                <ele>368.0999755859375</ele>
952                                <time>2011-11-05T09:47:53Z</time>
953                        </trkpt>
954                        <trkpt lat="50.736062647774816" lon="10.145824486389756">
955                                <ele>368.70001220703125</ele>
956                                <time>2011-11-05T09:47:54Z</time>
957                        </trkpt>
958                        <trkpt lat="50.73599215596914" lon="10.145757347345352">
959                                <ele>368.70001220703125</ele>
960                                <time>2011-11-05T09:47:55Z</time>
961                        </trkpt>
962                        <trkpt lat="50.73593147099018" lon="10.145700182765722">
963                                <ele>368.9000244140625</ele>
964                                <time>2011-11-05T09:47:56Z</time>
965                        </trkpt>
966                        <trkpt lat="50.73588989675045" lon="10.145659111440182">
967                                <ele>368.20001220703125</ele>
968                                <time>2011-11-05T09:47:57Z</time>
969                        </trkpt>
970                        <trkpt lat="50.73585087899119" lon="10.145672354847193">
971                                <ele>367.5</ele>
972                                <time>2011-11-05T09:47:58Z</time>
973                        </trkpt>
974                        <trkpt lat="50.735819740220904" lon="10.145759526640177">
975                                <ele>367.5999755859375</ele>
976                                <time>2011-11-05T09:47:59Z</time>
977                        </trkpt>
978                        <trkpt lat="50.73581160977483" lon="10.145889362320304">
979                                <ele>367.70001220703125</ele>
980                                <time>2011-11-05T09:48:00Z</time>
981                        </trkpt>
982                        <trkpt lat="50.735815884545445" lon="10.146053563803434">
983                                <ele>368.29998779296875</ele>
984                                <time>2011-11-05T09:48:01Z</time>
985                        </trkpt>
986                        <trkpt lat="50.735822757706046" lon="10.146202426403761">
987                                <ele>368.4000244140625</ele>
988                                <time>2011-11-05T09:48:02Z</time>
989                        </trkpt>
990                        <trkpt lat="50.73583424091339" lon="10.146345421671867">
991                                <ele>367.70001220703125</ele>
992                                <time>2011-11-05T09:48:03Z</time>
993                        </trkpt>
994                        <trkpt lat="50.73585138190538" lon="10.146495709195733">
995                                <ele>367.4000244140625</ele>
996                                <time>2011-11-05T09:48:04Z</time>
997                        </trkpt>
998                        <trkpt lat="50.735876401886344" lon="10.146667622029781">
999                                <ele>367.5</ele>
1000                                <time>2011-11-05T09:48:05Z</time>
1001                        </trkpt>
1002                        <trkpt lat="50.735900374129415" lon="10.146874403581023">
1003                                <ele>367.9000244140625</ele>
1004                                <time>2011-11-05T09:48:06Z</time>
1005                        </trkpt>
1006                        <trkpt lat="50.73591894004494" lon="10.147082274779677">
1007                                <ele>367.9000244140625</ele>
1008                                <time>2011-11-05T09:48:07Z</time>
1009                        </trkpt>
1010                        <trkpt lat="50.73592589702457" lon="10.147268520668149">
1011                                <ele>367.9000244140625</ele>
1012                                <time>2011-11-05T09:48:08Z</time>
1013                        </trkpt>
1014                        <trkpt lat="50.735936793498695" lon="10.14744789339602">
1015                                <ele>367.5999755859375</ele>
1016                                <time>2011-11-05T09:48:09Z</time>
1017                        </trkpt>
1018                        <trkpt lat="50.73594320565462" lon="10.14762089587748">
1019                                <ele>366.9000244140625</ele>
1020                                <time>2011-11-05T09:48:10Z</time>
1021                        </trkpt>
1022                        <trkpt lat="50.73595058172941" lon="10.147795658558607">
1023                                <ele>366.0999755859375</ele>
1024                                <time>2011-11-05T09:48:11Z</time>
1025                        </trkpt>
1026                        <trkpt lat="50.73595087509602" lon="10.147970002144575">
1027                                <ele>365.20001220703125</ele>
1028                                <time>2011-11-05T09:48:12Z</time>
1029                        </trkpt>
1030                        <trkpt lat="50.73595724534243" lon="10.148154571652412">
1031                                <ele>365.0999755859375</ele>
1032                                <time>2011-11-05T09:48:13Z</time>
1033                        </trkpt>
1034                        <trkpt lat="50.73596478905529" lon="10.148338470607996">
1035                                <ele>364.5999755859375</ele>
1036                                <time>2011-11-05T09:48:14Z</time>
1037                        </trkpt>
1038                        <trkpt lat="50.73596910573542" lon="10.148524716496468">
1039                                <ele>364.20001220703125</ele>
1040                                <time>2011-11-05T09:48:15Z</time>
1041                        </trkpt>
1042                        <trkpt lat="50.7359737996012" lon="10.148712554946542">
1043                                <ele>364.0</ele>
1044                                <time>2011-11-05T09:48:16Z</time>
1045                        </trkpt>
1046                        <trkpt lat="50.73598239105195" lon="10.14890014193952">
1047                                <ele>363.79998779296875</ele>
1048                                <time>2011-11-05T09:48:17Z</time>
1049                        </trkpt>
1050                        <trkpt lat="50.73597996030003" lon="10.149079179391265">
1051                                <ele>363.9000244140625</ele>
1052                                <time>2011-11-05T09:48:18Z</time>
1053                        </trkpt>
1054                        <trkpt lat="50.73597086593509" lon="10.149238100275397">
1055                                <ele>364.20001220703125</ele>
1056                                <time>2011-11-05T09:48:19Z</time>
1057                        </trkpt>
1058                        <trkpt lat="50.73595041409135" lon="10.149417305365205">
1059                                <ele>364.79998779296875</ele>
1060                                <time>2011-11-05T09:48:20Z</time>
1061                        </trkpt>
1062                        <trkpt lat="50.73591516818851" lon="10.14959642663598">
1063                                <ele>364.70001220703125</ele>
1064                                <time>2011-11-05T09:48:21Z</time>
1065                        </trkpt>
1066                        <trkpt lat="50.735866385512054" lon="10.149788623675704">
1067                                <ele>364.79998779296875</ele>
1068                                <time>2011-11-05T09:48:22Z</time>
1069                        </trkpt>
1070                        <trkpt lat="50.73579530697316" lon="10.14997461810708">
1071                                <ele>365.5</ele>
1072                                <time>2011-11-05T09:48:23Z</time>
1073                        </trkpt>
1074                        <trkpt lat="50.735696400515735" lon="10.150152817368507">
1075                                <ele>366.4000244140625</ele>
1076                                <time>2011-11-05T09:48:24Z</time>
1077                        </trkpt>
1078                        <trkpt lat="50.735613838769495" lon="10.150347864255309">
1079                                <ele>367.0999755859375</ele>
1080                                <time>2011-11-05T09:48:25Z</time>
1081                        </trkpt>
1082                        <trkpt lat="50.73553571943194" lon="10.150564452633262">
1083                                <ele>368.0999755859375</ele>
1084                                <time>2011-11-05T09:48:26Z</time>
1085                        </trkpt>
1086                        <trkpt lat="50.73547821957618" lon="10.150779029354453">
1087                                <ele>368.5</ele>
1088                                <time>2011-11-05T09:48:27Z</time>
1089                        </trkpt>
1090                        <trkpt lat="50.73540508747101" lon="10.151013303548098">
1091                                <ele>369.79998779296875</ele>
1092                                <time>2011-11-05T09:48:28Z</time>
1093                        </trkpt>
1094                        <trkpt lat="50.73533048853278" lon="10.151278926059604">
1095                                <ele>371.4000244140625</ele>
1096                                <time>2011-11-05T09:48:29Z</time>
1097                        </trkpt>
1098                        <trkpt lat="50.73526850435883" lon="10.151538597419858">
1099                                <ele>371.5999755859375</ele>
1100                                <time>2011-11-05T09:48:30Z</time>
1101                        </trkpt>
1102                        <trkpt lat="50.735212387517095" lon="10.151813188567758">
1103                                <ele>371.79998779296875</ele>
1104                                <time>2011-11-05T09:48:31Z</time>
1105                        </trkpt>
1106                        <trkpt lat="50.73515275027603" lon="10.152101777493954">
1107                                <ele>372.29998779296875</ele>
1108                                <time>2011-11-05T09:48:32Z</time>
1109                        </trkpt>
1110                        <trkpt lat="50.735097764991224" lon="10.152394389733672">
1111                                <ele>372.5</ele>
1112                                <time>2011-11-05T09:48:33Z</time>
1113                        </trkpt>
1114                        <trkpt lat="50.73504600673914" lon="10.152691612020135">
1115                                <ele>373.29998779296875</ele>
1116                                <time>2011-11-05T09:48:34Z</time>
1117                        </trkpt>
1118                        <trkpt lat="50.734995673410594" lon="10.153012135997415">
1119                                <ele>374.29998779296875</ele>
1120                                <time>2011-11-05T09:48:35Z</time>
1121                        </trkpt>
1122                        <trkpt lat="50.73494575917721" lon="10.15333492308855">
1123                                <ele>375.20001220703125</ele>
1124                                <time>2011-11-05T09:48:36Z</time>
1125                        </trkpt>
1126                        <trkpt lat="50.734888510778546" lon="10.15367983840406">
1127                                <ele>376.4000244140625</ele>
1128                                <time>2011-11-05T09:48:37Z</time>
1129                        </trkpt>
1130                        <trkpt lat="50.73482329957187" lon="10.154022658243775">
1131                                <ele>377.20001220703125</ele>
1132                                <time>2011-11-05T09:48:38Z</time>
1133                        </trkpt>
1134                        <trkpt lat="50.73475569952279" lon="10.154376374557614">
1135                                <ele>378.0999755859375</ele>
1136                                <time>2011-11-05T09:48:39Z</time>
1137                        </trkpt>
1138                        <trkpt lat="50.73468336369842" lon="10.15473092906177">
1139                                <ele>377.9000244140625</ele>
1140                                <time>2011-11-05T09:48:40Z</time>
1141                        </trkpt>
1142                        <trkpt lat="50.734606250189245" lon="10.15508422628045">
1143                                <ele>377.5</ele>
1144                                <time>2011-11-05T09:48:41Z</time>
1145                        </trkpt>
1146                        <trkpt lat="50.73452959768474" lon="10.155440038070083">
1147                                <ele>377.29998779296875</ele>
1148                                <time>2011-11-05T09:48:42Z</time>
1149                        </trkpt>
1150                        <trkpt lat="50.73444934096187" lon="10.155799118801951">
1151                                <ele>378.0</ele>
1152                                <time>2011-11-05T09:48:43Z</time>
1153                        </trkpt>
1154                        <trkpt lat="50.73435760103166" lon="10.156161468476057">
1155                                <ele>378.5999755859375</ele>
1156                                <time>2011-11-05T09:48:44Z</time>
1157                        </trkpt>
1158                        <trkpt lat="50.73428115807474" lon="10.156526500359178">
1159                                <ele>380.0999755859375</ele>
1160                                <time>2011-11-05T09:48:45Z</time>
1161                        </trkpt>
1162                        <trkpt lat="50.73420794215053" lon="10.156889269128442">
1163                                <ele>381.0</ele>
1164                                <time>2011-11-05T09:48:46Z</time>
1165                        </trkpt>
1166                        <trkpt lat="50.73414197657257" lon="10.157268298789859">
1167                                <ele>381.79998779296875</ele>
1168                                <time>2011-11-05T09:48:47Z</time>
1169                        </trkpt>
1170                        <trkpt lat="50.734092900529504" lon="10.157663840800524">
1171                                <ele>382.5999755859375</ele>
1172                                <time>2011-11-05T09:48:48Z</time>
1173                        </trkpt>
1174                        <trkpt lat="50.73405761271715" lon="10.15805259346962">
1175                                <ele>384.4000244140625</ele>
1176                                <time>2011-11-05T09:48:49Z</time>
1177                        </trkpt>
1178                        <trkpt lat="50.73403883725405" lon="10.15845576301217">
1179                                <ele>385.4000244140625</ele>
1180                                <time>2011-11-05T09:48:50Z</time>
1181                        </trkpt>
1182                        <trkpt lat="50.73402203153819" lon="10.158869745209813">
1183                                <ele>387.0</ele>
1184                                <time>2011-11-05T09:48:51Z</time>
1185                        </trkpt>
1186                        <trkpt lat="50.73403439484537" lon="10.159261347725987">
1187                                <ele>387.70001220703125</ele>
1188                                <time>2011-11-05T09:48:52Z</time>
1189                        </trkpt>
1190                        <trkpt lat="50.73406352195889" lon="10.159628307446837">
1191                                <ele>388.9000244140625</ele>
1192                                <time>2011-11-05T09:48:53Z</time>
1193                        </trkpt>
1194                        <trkpt lat="50.73407986667007" lon="10.159967690706253">
1195                                <ele>390.9000244140625</ele>
1196                                <time>2011-11-05T09:48:54Z</time>
1197                        </trkpt>
1198                        <trkpt lat="50.7340566907078" lon="10.160315288230777">
1199                                <ele>391.70001220703125</ele>
1200                                <time>2011-11-05T09:48:55Z</time>
1201                        </trkpt>
1202                        <trkpt lat="50.73402664158493" lon="10.160661125555634">
1203                                <ele>392.20001220703125</ele>
1204                                <time>2011-11-05T09:48:56Z</time>
1205                        </trkpt>
1206                        <trkpt lat="50.73398804292083" lon="10.16100930981338">
1207                                <ele>392.9000244140625</ele>
1208                                <time>2011-11-05T09:48:57Z</time>
1209                        </trkpt>
1210                        <trkpt lat="50.733951539732516" lon="10.161349112167954">
1211                                <ele>394.0</ele>
1212                                <time>2011-11-05T09:48:58Z</time>
1213                        </trkpt>
1214                        <trkpt lat="50.73391285724938" lon="10.161691596731544">
1215                                <ele>395.29998779296875</ele>
1216                                <time>2011-11-05T09:48:59Z</time>
1217                        </trkpt>
1218                        <trkpt lat="50.73387136682868" lon="10.162037685513496">
1219                                <ele>395.70001220703125</ele>
1220                                <time>2011-11-05T09:49:00Z</time>
1221                        </trkpt>
1222                        <trkpt lat="50.73383779730648" lon="10.16236868686974">
1223                                <ele>396.4000244140625</ele>
1224                                <time>2011-11-05T09:49:01Z</time>
1225                        </trkpt>
1226                        <trkpt lat="50.73380519170314" lon="10.162692060694098">
1227                                <ele>396.70001220703125</ele>
1228                                <time>2011-11-05T09:49:02Z</time>
1229                        </trkpt>
1230                        <trkpt lat="50.73377070017159" lon="10.163000179454684">
1231                                <ele>397.20001220703125</ele>
1232                                <time>2011-11-05T09:49:03Z</time>
1233                        </trkpt>
1234                        <trkpt lat="50.733739980496466" lon="10.163298323750496">
1235                                <ele>397.5999755859375</ele>
1236                                <time>2011-11-05T09:49:04Z</time>
1237                        </trkpt>
1238                        <trkpt lat="50.73371060192585" lon="10.16357509419322">
1239                                <ele>399.0</ele>
1240                                <time>2011-11-05T09:49:05Z</time>
1241                        </trkpt>
1242                        <trkpt lat="50.73367904406041" lon="10.1638438180089">
1243                                <ele>400.0</ele>
1244                                <time>2011-11-05T09:49:06Z</time>
1245                        </trkpt>
1246                        <trkpt lat="50.7336425408721" lon="10.164096616208553">
1247                                <ele>400.4000244140625</ele>
1248                                <time>2011-11-05T09:49:07Z</time>
1249                        </trkpt>
1250                        <trkpt lat="50.733607462607324" lon="10.16435008496046">
1251                                <ele>400.79998779296875</ele>
1252                                <time>2011-11-05T09:49:08Z</time>
1253                        </trkpt>
1254                        <trkpt lat="50.73356358334422" lon="10.164605230093002">
1255                                <ele>401.0</ele>
1256                                <time>2011-11-05T09:49:09Z</time>
1257                        </trkpt>
1258                        <trkpt lat="50.73351228609681" lon="10.164859453216195">
1259                                <ele>401.4000244140625</ele>
1260                                <time>2011-11-05T09:49:10Z</time>
1261                        </trkpt>
1262                        <trkpt lat="50.73344585951418" lon="10.16510152257979">
1263                                <ele>401.79998779296875</ele>
1264                                <time>2011-11-05T09:49:11Z</time>
1265                        </trkpt>
1266                        <trkpt lat="50.73339229915291" lon="10.165342250838876">
1267                                <ele>402.79998779296875</ele>
1268                                <time>2011-11-05T09:49:12Z</time>
1269                        </trkpt>
1270                        <trkpt lat="50.73333739768714" lon="10.16557845287025">
1271                                <ele>403.0</ele>
1272                                <time>2011-11-05T09:49:13Z</time>
1273                        </trkpt>
1274                        <trkpt lat="50.73328781872988" lon="10.165819600224495">
1275                                <ele>403.4000244140625</ele>
1276                                <time>2011-11-05T09:49:14Z</time>
1277                        </trkpt>
1278                        <trkpt lat="50.733251022174954" lon="10.166059993207455">
1279                                <ele>404.5999755859375</ele>
1280                                <time>2011-11-05T09:49:15Z</time>
1281                        </trkpt>
1282                        <trkpt lat="50.73322738520801" lon="10.166307594627142">
1283                                <ele>405.29998779296875</ele>
1284                                <time>2011-11-05T09:49:16Z</time>
1285                        </trkpt>
1286                        <trkpt lat="50.73321443516761" lon="10.166552094742656">
1287                                <ele>405.5999755859375</ele>
1288                                <time>2011-11-05T09:49:17Z</time>
1289                        </trkpt>
1290                        <trkpt lat="50.73321829084307" lon="10.166783351451159">
1291                                <ele>405.4000244140625</ele>
1292                                <time>2011-11-05T09:49:18Z</time>
1293                        </trkpt>
1294                        <trkpt lat="50.733235348016024" lon="10.167028857395053">
1295                                <ele>404.70001220703125</ele>
1296                                <time>2011-11-05T09:49:19Z</time>
1297                        </trkpt>
1298                        <trkpt lat="50.7332487590611" lon="10.16727838665247">
1299                                <ele>403.5</ele>
1300                                <time>2011-11-05T09:49:20Z</time>
1301                        </trkpt>
1302                        <trkpt lat="50.733267618343234" lon="10.167539902031422">
1303                                <ele>402.0</ele>
1304                                <time>2011-11-05T09:49:21Z</time>
1305                        </trkpt>
1306                        <trkpt lat="50.73328978847712" lon="10.167810302227736">
1307                                <ele>400.20001220703125</ele>
1308                                <time>2011-11-05T09:49:22Z</time>
1309                        </trkpt>
1310                        <trkpt lat="50.733314347453415" lon="10.168077014386654">
1311                                <ele>398.5</ele>
1312                                <time>2011-11-05T09:49:23Z</time>
1313                        </trkpt>
1314                        <trkpt lat="50.73333777487278" lon="10.168330734595656">
1315                                <ele>397.0999755859375</ele>
1316                                <time>2011-11-05T09:49:24Z</time>
1317                        </trkpt>
1318                        <trkpt lat="50.733370715752244" lon="10.168574815616012">
1319                                <ele>396.0999755859375</ele>
1320                                <time>2011-11-05T09:49:25Z</time>
1321                        </trkpt>
1322                        <trkpt lat="50.733409649692476" lon="10.168813951313496">
1323                                <ele>394.79998779296875</ele>
1324                                <time>2011-11-05T09:49:26Z</time>
1325                        </trkpt>
1326                        <trkpt lat="50.733463587239385" lon="10.169029952958226">
1327                                <ele>394.20001220703125</ele>
1328                                <time>2011-11-05T09:49:27Z</time>
1329                        </trkpt>
1330                        <trkpt lat="50.733543802052736" lon="10.16920505091548">
1331                                <ele>393.20001220703125</ele>
1332                                <time>2011-11-05T09:49:28Z</time>
1333                        </trkpt>
1334                        <trkpt lat="50.7336380565539" lon="10.16934477724135">
1335                                <ele>392.0999755859375</ele>
1336                                <time>2011-11-05T09:49:29Z</time>
1337                        </trkpt>
1338                        <trkpt lat="50.73372849728912" lon="10.169476876035333">
1339                                <ele>391.29998779296875</ele>
1340                                <time>2011-11-05T09:49:30Z</time>
1341                        </trkpt>
1342                        <trkpt lat="50.733828619122505" lon="10.169601598754525">
1343                                <ele>390.5</ele>
1344                                <time>2011-11-05T09:49:31Z</time>
1345                        </trkpt>
1346                        <trkpt lat="50.733936284668744" lon="10.169730177149177">
1347                                <ele>389.9000244140625</ele>
1348                                <time>2011-11-05T09:49:32Z</time>
1349                        </trkpt>
1350                        <trkpt lat="50.73404872789979" lon="10.16985833644867">
1351                                <ele>388.70001220703125</ele>
1352                                <time>2011-11-05T09:49:33Z</time>
1353                        </trkpt>
1354                        <trkpt lat="50.7341663679108" lon="10.169971659779549">
1355                                <ele>387.9000244140625</ele>
1356                                <time>2011-11-05T09:49:34Z</time>
1357                        </trkpt>
1358                        <trkpt lat="50.73429021053016" lon="10.170065201818943">
1359                                <ele>387.5999755859375</ele>
1360                                <time>2011-11-05T09:49:35Z</time>
1361                        </trkpt>
1362                        <trkpt lat="50.7343997200951" lon="10.170159498229623">
1363                                <ele>387.0999755859375</ele>
1364                                <time>2011-11-05T09:49:36Z</time>
1365                        </trkpt>
1366                        <trkpt lat="50.73451254051179" lon="10.170232253149152">
1367                                <ele>386.4000244140625</ele>
1368                                <time>2011-11-05T09:49:37Z</time>
1369                        </trkpt>
1370                        <trkpt lat="50.73463277891278" lon="10.170285729691386">
1371                                <ele>385.5999755859375</ele>
1372                                <time>2011-11-05T09:49:38Z</time>
1373                        </trkpt>
1374                        <trkpt lat="50.7347512152046" lon="10.170325627550483">
1375                                <ele>385.0</ele>
1376                                <time>2011-11-05T09:49:39Z</time>
1377                        </trkpt>
1378                        <trkpt lat="50.73487937450409" lon="10.170351779088378">
1379                                <ele>384.29998779296875</ele>
1380                                <time>2011-11-05T09:49:40Z</time>
1381                        </trkpt>
1382                        <trkpt lat="50.7350057316944" lon="10.170375080779195">
1383                                <ele>383.79998779296875</ele>
1384                                <time>2011-11-05T09:49:41Z</time>
1385                        </trkpt>
1386                        <trkpt lat="50.735127604566514" lon="10.170396286994219">
1387                                <ele>382.29998779296875</ele>
1388                                <time>2011-11-05T09:49:42Z</time>
1389                        </trkpt>
1390                        <trkpt lat="50.73524625040591" lon="10.170414811000228">
1391                                <ele>381.4000244140625</ele>
1392                                <time>2011-11-05T09:49:43Z</time>
1393                        </trkpt>
1394                        <trkpt lat="50.7353691291064" lon="10.170433167368174">
1395                                <ele>380.20001220703125</ele>
1396                                <time>2011-11-05T09:49:44Z</time>
1397                        </trkpt>
1398                        <trkpt lat="50.73550139553845" lon="10.17045839689672">
1399                                <ele>379.0999755859375</ele>
1400                                <time>2011-11-05T09:49:45Z</time>
1401                        </trkpt>
1402                        <trkpt lat="50.73563026729971" lon="10.170488404110074">
1403                                <ele>378.0999755859375</ele>
1404                                <time>2011-11-05T09:49:46Z</time>
1405                        </trkpt>
1406                        <trkpt lat="50.735746985301375" lon="10.170527966693044">
1407                                <ele>377.5999755859375</ele>
1408                                <time>2011-11-05T09:49:47Z</time>
1409                        </trkpt>
1410                        <trkpt lat="50.73586592450738" lon="10.170577084645629">
1411                                <ele>377.20001220703125</ele>
1412                                <time>2011-11-05T09:49:48Z</time>
1413                        </trkpt>
1414                        <trkpt lat="50.73599190451205" lon="10.170622346922755">
1415                                <ele>376.5999755859375</ele>
1416                                <time>2011-11-05T09:49:49Z</time>
1417                        </trkpt>
1418                        <trkpt lat="50.736116669140756" lon="10.170678338035941">
1419                                <ele>376.70001220703125</ele>
1420                                <time>2011-11-05T09:49:50Z</time>
1421                        </trkpt>
1422                        <trkpt lat="50.736236069351435" lon="10.170739442110062">
1423                                <ele>378.0</ele>
1424                                <time>2011-11-05T09:49:51Z</time>
1425                        </trkpt>
1426                        <trkpt lat="50.73635479900986" lon="10.170820411294699">
1427                                <ele>377.9000244140625</ele>
1428                                <time>2011-11-05T09:49:52Z</time>
1429                        </trkpt>
1430                        <trkpt lat="50.7364717265591" lon="10.170908421278">
1431                                <ele>377.9000244140625</ele>
1432                                <time>2011-11-05T09:49:53Z</time>
1433                        </trkpt>
1434                        <trkpt lat="50.73658362496644" lon="10.171008165925741">
1435                                <ele>378.70001220703125</ele>
1436                                <time>2011-11-05T09:49:54Z</time>
1437                        </trkpt>
1438                        <trkpt lat="50.736701055429876" lon="10.171117885038257">
1439                                <ele>379.29998779296875</ele>
1440                                <time>2011-11-05T09:49:55Z</time>
1441                        </trkpt>
1442                        <trkpt lat="50.73680989444256" lon="10.17122701741755">
1443                                <ele>379.0999755859375</ele>
1444                                <time>2011-11-05T09:49:56Z</time>
1445                        </trkpt>
1446                        <trkpt lat="50.73692137375474" lon="10.171338580548763">
1447                                <ele>379.20001220703125</ele>
1448                                <time>2011-11-05T09:49:57Z</time>
1449                        </trkpt>
1450                        <trkpt lat="50.73703863658011" lon="10.171458190307021">
1451                                <ele>379.4000244140625</ele>
1452                                <time>2011-11-05T09:49:58Z</time>
1453                        </trkpt>
1454                        <trkpt lat="50.737159796990454" lon="10.171582074835896">
1455                                <ele>379.79998779296875</ele>
1456                                <time>2011-11-05T09:49:59Z</time>
1457                        </trkpt>
1458                        <trkpt lat="50.73727810755372" lon="10.171706127002835">
1459                                <ele>380.20001220703125</ele>
1460                                <time>2011-11-05T09:50:00Z</time>
1461                        </trkpt>
1462                        <trkpt lat="50.73739457409829" lon="10.17182213254273">
1463                                <ele>379.29998779296875</ele>
1464                                <time>2011-11-05T09:50:01Z</time>
1465                        </trkpt>
1466                        <trkpt lat="50.737508777529" lon="10.171940317377448">
1467                                <ele>378.5999755859375</ele>
1468                                <time>2011-11-05T09:50:02Z</time>
1469                        </trkpt>
1470                        <trkpt lat="50.737619209103286" lon="10.172055568546057">
1471                                <ele>378.20001220703125</ele>
1472                                <time>2011-11-05T09:50:03Z</time>
1473                        </trkpt>
1474                        <trkpt lat="50.73773144278675" lon="10.172166461125016">
1475                                <ele>378.20001220703125</ele>
1476                                <time>2011-11-05T09:50:04Z</time>
1477                        </trkpt>
1478                        <trkpt lat="50.73784317355603" lon="10.17226972617209">
1479                                <ele>378.0</ele>
1480                                <time>2011-11-05T09:50:05Z</time>
1481                        </trkpt>
1482                        <trkpt lat="50.73795691598207" lon="10.172361340373755">
1483                                <ele>378.20001220703125</ele>
1484                                <time>2011-11-05T09:50:06Z</time>
1485                        </trkpt>
1486                        <trkpt lat="50.73807111941278" lon="10.172458486631513">
1487                                <ele>378.29998779296875</ele>
1488                                <time>2011-11-05T09:50:07Z</time>
1489                        </trkpt>
1490                        <trkpt lat="50.73817564174533" lon="10.172552531585097">
1491                                <ele>378.0</ele>
1492                                <time>2011-11-05T09:50:08Z</time>
1493                        </trkpt>
1494                        <trkpt lat="50.73829386848956" lon="10.1726577244699">
1495                                <ele>378.20001220703125</ele>
1496                                <time>2011-11-05T09:50:09Z</time>
1497                        </trkpt>
1498                        <trkpt lat="50.738418800756335" lon="10.172766270115972">
1499                                <ele>378.0999755859375</ele>
1500                                <time>2011-11-05T09:50:10Z</time>
1501                        </trkpt>
1502                        <trkpt lat="50.738548510707915" lon="10.172863751649857">
1503                                <ele>377.5</ele>
1504                                <time>2011-11-05T09:50:11Z</time>
1505                        </trkpt>
1506                        <trkpt lat="50.73868999723345" lon="10.172946145758033">
1507                                <ele>377.0999755859375</ele>
1508                                <time>2011-11-05T09:50:12Z</time>
1509                        </trkpt>
1510                        <trkpt lat="50.738834417425096" lon="10.173016302287579">
1511                                <ele>376.4000244140625</ele>
1512                                <time>2011-11-05T09:50:13Z</time>
1513                        </trkpt>
1514                        <trkpt lat="50.738973934203386" lon="10.173077071085572">
1515                                <ele>376.20001220703125</ele>
1516                                <time>2011-11-05T09:50:14Z</time>
1517                        </trkpt>
1518                        <trkpt lat="50.73911495972425" lon="10.173132224008441">
1519                                <ele>376.0999755859375</ele>
1520                                <time>2011-11-05T09:50:15Z</time>
1521                        </trkpt>
1522                        <trkpt lat="50.73926595970988" lon="10.173188047483563">
1523                                <ele>375.9000244140625</ele>
1524                                <time>2011-11-05T09:50:16Z</time>
1525                        </trkpt>
1526                        <trkpt lat="50.73941511567682" lon="10.17323817126453">
1527                                <ele>375.70001220703125</ele>
1528                                <time>2011-11-05T09:50:17Z</time>
1529                        </trkpt>
1530                        <trkpt lat="50.739564104005694" lon="10.173284271731973">
1531                                <ele>375.5999755859375</ele>
1532                                <time>2011-11-05T09:50:18Z</time>
1533                        </trkpt>
1534                        <trkpt lat="50.73973408900201" lon="10.173340179026127">
1535                                <ele>374.9000244140625</ele>
1536                                <time>2011-11-05T09:50:19Z</time>
1537                        </trkpt>
1538                        <trkpt lat="50.73989984113723" lon="10.173385441303253">
1539                                <ele>374.29998779296875</ele>
1540                                <time>2011-11-05T09:50:20Z</time>
1541                        </trkpt>
1542                        <trkpt lat="50.7400792138651" lon="10.17340874299407">
1543                                <ele>374.0</ele>
1544                                <time>2011-11-05T09:50:21Z</time>
1545                        </trkpt>
1546                        <trkpt lat="50.740255736745894" lon="10.173405390232801">
1547                                <ele>374.20001220703125</ele>
1548                                <time>2011-11-05T09:50:22Z</time>
1549                        </trkpt>
1550                        <trkpt lat="50.7404299126938" lon="10.173362977802753">
1551                                <ele>376.0</ele>
1552                                <time>2011-11-05T09:50:23Z</time>
1553                        </trkpt>
1554                        <trkpt lat="50.740611967630684" lon="10.173240099102259">
1555                                <ele>377.70001220703125</ele>
1556                                <time>2011-11-05T09:50:24Z</time>
1557                        </trkpt>
1558                        <trkpt lat="50.740783042274415" lon="10.173078747466207">
1559                                <ele>378.0</ele>
1560                                <time>2011-11-05T09:50:25Z</time>
1561                        </trkpt>
1562                        <trkpt lat="50.74097746051848" lon="10.17292259261012">
1563                                <ele>378.0999755859375</ele>
1564                                <time>2011-11-05T09:50:26Z</time>
1565                        </trkpt>
1566                        <trkpt lat="50.74117502197623" lon="10.172755122184753">
1567                                <ele>377.79998779296875</ele>
1568                                <time>2011-11-05T09:50:27Z</time>
1569                        </trkpt>
1570                        <trkpt lat="50.74137748684734" lon="10.172585807740688">
1571                                <ele>378.0</ele>
1572                                <time>2011-11-05T09:50:28Z</time>
1573                        </trkpt>
1574                        <trkpt lat="50.74158380739391" lon="10.17242169007659">
1575                                <ele>378.70001220703125</ele>
1576                                <time>2011-11-05T09:50:29Z</time>
1577                        </trkpt>
1578                        <trkpt lat="50.74178945738822" lon="10.172259332612157">
1579                                <ele>379.0999755859375</ele>
1580                                <time>2011-11-05T09:50:30Z</time>
1581                        </trkpt>
1582                        <trkpt lat="50.741994017735124" lon="10.172107871621847">
1583                                <ele>379.0</ele>
1584                                <time>2011-11-05T09:50:31Z</time>
1585                        </trkpt>
1586                        <trkpt lat="50.74219082482159" lon="10.171955404803157">
1587                                <ele>378.70001220703125</ele>
1588                                <time>2011-11-05T09:50:32Z</time>
1589                        </trkpt>
1590                        <trkpt lat="50.742384321056306" lon="10.171809140592813">
1591                                <ele>377.5999755859375</ele>
1592                                <time>2011-11-05T09:50:33Z</time>
1593                        </trkpt>
1594                        <trkpt lat="50.74257806874812" lon="10.171674778684974">
1595                                <ele>377.0999755859375</ele>
1596                                <time>2011-11-05T09:50:34Z</time>
1597                        </trkpt>
1598                        <trkpt lat="50.74276846367866" lon="10.171553324908018">
1599                                <ele>377.29998779296875</ele>
1600                                <time>2011-11-05T09:50:35Z</time>
1601                        </trkpt>
1602                        <trkpt lat="50.74294783640653" lon="10.171422734856606">
1603                                <ele>377.0</ele>
1604                                <time>2011-11-05T09:50:36Z</time>
1605                        </trkpt>
1606                        <trkpt lat="50.743124024011195" lon="10.171291641891003">
1607                                <ele>376.5</ele>
1608                                <time>2011-11-05T09:50:37Z</time>
1609                        </trkpt>
1610                        <trkpt lat="50.74330377392471" lon="10.171172702684999">
1611                                <ele>376.29998779296875</ele>
1612                                <time>2011-11-05T09:50:38Z</time>
1613                        </trkpt>
1614                        <trkpt lat="50.74347941670567" lon="10.171079244464636">
1615                                <ele>376.0999755859375</ele>
1616                                <time>2011-11-05T09:50:39Z</time>
1617                        </trkpt>
1618                        <trkpt lat="50.74365510139614" lon="10.171051835641265">
1619                                <ele>376.0</ele>
1620                                <time>2011-11-05T09:50:40Z</time>
1621                        </trkpt>
1622                        <trkpt lat="50.74383191764355" lon="10.171066336333752">
1623                                <ele>376.0</ele>
1624                                <time>2011-11-05T09:50:41Z</time>
1625                        </trkpt>
1626                        <trkpt lat="50.744007267057896" lon="10.171121656894684">
1627                                <ele>376.20001220703125</ele>
1628                                <time>2011-11-05T09:50:42Z</time>
1629                        </trkpt>
1630                        <trkpt lat="50.744193135760725" lon="10.17123925499618">
1631                                <ele>376.5</ele>
1632                                <time>2011-11-05T09:50:43Z</time>
1633                        </trkpt>
1634                        <trkpt lat="50.74438021983951" lon="10.17140488140285">
1635                                <ele>375.5999755859375</ele>
1636                                <time>2011-11-05T09:50:44Z</time>
1637                        </trkpt>
1638                        <trkpt lat="50.74456533417106" lon="10.171640999615192">
1639                                <ele>375.20001220703125</ele>
1640                                <time>2011-11-05T09:50:45Z</time>
1641                        </trkpt>
1642                        <trkpt lat="50.744737540371716" lon="10.171854235231876">
1643                                <ele>375.0999755859375</ele>
1644                                <time>2011-11-05T09:50:46Z</time>
1645                        </trkpt>
1646                        <trkpt lat="50.74489939492196" lon="10.17206252552569">
1647                                <ele>375.79998779296875</ele>
1648                                <time>2011-11-05T09:50:47Z</time>
1649                        </trkpt>
1650                        <trkpt lat="50.745067284442484" lon="10.172270899638534">
1651                                <ele>375.79998779296875</ele>
1652                                <time>2011-11-05T09:50:48Z</time>
1653                        </trkpt>
1654                        <trkpt lat="50.74523031245917" lon="10.172485895454884">
1655                                <ele>376.0</ele>
1656                                <time>2011-11-05T09:50:49Z</time>
1657                        </trkpt>
1658                        <trkpt lat="50.745392041280866" lon="10.172696616500616">
1659                                <ele>376.29998779296875</ele>
1660                                <time>2011-11-05T09:50:50Z</time>
1661                        </trkpt>
1662                        <trkpt lat="50.745557458139956" lon="10.172906080260873">
1663                                <ele>377.4000244140625</ele>
1664                                <time>2011-11-05T09:50:51Z</time>
1665                        </trkpt>
1666                        <trkpt lat="50.745734735392034" lon="10.17305745743215">
1667                                <ele>379.29998779296875</ele>
1668                                <time>2011-11-05T09:50:52Z</time>
1669                        </trkpt>
1670                        <trkpt lat="50.745922112837434" lon="10.173180922865868">
1671                                <ele>380.70001220703125</ele>
1672                                <time>2011-11-05T09:50:53Z</time>
1673                        </trkpt>
1674                        <trkpt lat="50.74612793046981" lon="10.173256611451507">
1675                                <ele>381.9000244140625</ele>
1676                                <time>2011-11-05T09:50:54Z</time>
1677                        </trkpt>
1678                        <trkpt lat="50.74634124990553" lon="10.17333347350359">
1679                                <ele>382.9000244140625</ele>
1680                                <time>2011-11-05T09:50:55Z</time>
1681                        </trkpt>
1682                        <trkpt lat="50.7465533958748" lon="10.173417627811432">
1683                                <ele>383.29998779296875</ele>
1684                                <time>2011-11-05T09:50:56Z</time>
1685                        </trkpt>
1686                        <trkpt lat="50.746772876009345" lon="10.173497507348657">
1687                                <ele>382.70001220703125</ele>
1688                                <time>2011-11-05T09:50:57Z</time>
1689                        </trkpt>
1690                        <trkpt lat="50.74698326177895" lon="10.17357680015266">
1691                                <ele>382.70001220703125</ele>
1692                                <time>2011-11-05T09:50:58Z</time>
1693                        </trkpt>
1694                        <trkpt lat="50.74718463700265" lon="10.173666486516595">
1695                                <ele>383.79998779296875</ele>
1696                                <time>2011-11-05T09:50:59Z</time>
1697                        </trkpt>
1698                        <trkpt lat="50.74738068971783" lon="10.173760699108243">
1699                                <ele>384.9000244140625</ele>
1700                                <time>2011-11-05T09:51:00Z</time>
1701                        </trkpt>
1702                        <trkpt lat="50.74756630696356" lon="10.173863125965">
1703                                <ele>386.0</ele>
1704                                <time>2011-11-05T09:51:01Z</time>
1705                        </trkpt>
1706                        <trkpt lat="50.74774601496756" lon="10.173972258344293">
1707                                <ele>386.79998779296875</ele>
1708                                <time>2011-11-05T09:51:02Z</time>
1709                        </trkpt>
1710                        <trkpt lat="50.74791365303099" lon="10.17409035935998">
1711                                <ele>388.0</ele>
1712                                <time>2011-11-05T09:51:03Z</time>
1713                        </trkpt>
1714                        <trkpt lat="50.748074376024306" lon="10.174226313829422">
1715                                <ele>389.4000244140625</ele>
1716                                <time>2011-11-05T09:51:04Z</time>
1717                        </trkpt>
1718                        <trkpt lat="50.748228058218956" lon="10.174371739849448">
1719                                <ele>390.4000244140625</ele>
1720                                <time>2011-11-05T09:51:05Z</time>
1721                        </trkpt>
1722                        <trkpt lat="50.74837428051978" lon="10.174534767866135">
1723                                <ele>391.9000244140625</ele>
1724                                <time>2011-11-05T09:51:06Z</time>
1725                        </trkpt>
1726                        <trkpt lat="50.74851329438388" lon="10.1747006457299">
1727                                <ele>393.20001220703125</ele>
1728                                <time>2011-11-05T09:51:07Z</time>
1729                        </trkpt>
1730                        <trkpt lat="50.74866659939289" lon="10.174888400360942">
1731                                <ele>393.0999755859375</ele>
1732                                <time>2011-11-05T09:51:08Z</time>
1733                        </trkpt>
1734                        <trkpt lat="50.74881504289806" lon="10.175118232145905">
1735                                <ele>392.70001220703125</ele>
1736                                <time>2011-11-05T09:51:09Z</time>
1737                        </trkpt>
1738                        <trkpt lat="50.74893762823194" lon="10.175372706726193">
1739                                <ele>393.79998779296875</ele>
1740                                <time>2011-11-05T09:51:10Z</time>
1741                        </trkpt>
1742                        <trkpt lat="50.749025219120085" lon="10.175671437755227">
1743                                <ele>395.70001220703125</ele>
1744                                <time>2011-11-05T09:51:11Z</time>
1745                        </trkpt>
1746                        <trkpt lat="50.74910887051374" lon="10.175962038338184">
1747                                <ele>398.0999755859375</ele>
1748                                <time>2011-11-05T09:51:12Z</time>
1749                        </trkpt>
1750                        <trkpt lat="50.74916360434145" lon="10.176274264231324">
1751                                <ele>400.20001220703125</ele>
1752                                <time>2011-11-05T09:51:13Z</time>
1753                        </trkpt>
1754                        <trkpt lat="50.74921544641256" lon="10.176576348021626">
1755                                <ele>401.79998779296875</ele>
1756                                <time>2011-11-05T09:51:14Z</time>
1757                        </trkpt>
1758                        <trkpt lat="50.74926699511707" lon="10.17688823863864">
1759                                <ele>403.20001220703125</ele>
1760                                <time>2011-11-05T09:51:15Z</time>
1761                        </trkpt>
1762                        <trkpt lat="50.749315693974495" lon="10.177197027951479">
1763                                <ele>403.5999755859375</ele>
1764                                <time>2011-11-05T09:51:16Z</time>
1765                        </trkpt>
1766                        <trkpt lat="50.749364853836596" lon="10.17747069709003">
1767                                <ele>403.79998779296875</ele>
1768                                <time>2011-11-05T09:51:17Z</time>
1769                        </trkpt>
1770                        <trkpt lat="50.74942771811038" lon="10.177768170833588">
1771                                <ele>403.4000244140625</ele>
1772                                <time>2011-11-05T09:51:18Z</time>
1773                        </trkpt>
1774                        <trkpt lat="50.749509860761464" lon="10.178082576021552">
1775                                <ele>403.5999755859375</ele>
1776                                <time>2011-11-05T09:51:19Z</time>
1777                        </trkpt>
1778                        <trkpt lat="50.749594643712044" lon="10.178389772772789">
1779                                <ele>402.5999755859375</ele>
1780                                <time>2011-11-05T09:51:20Z</time>
1781                        </trkpt>
1782                        <trkpt lat="50.74969300534576" lon="10.178697975352407">
1783                                <ele>402.70001220703125</ele>
1784                                <time>2011-11-05T09:51:21Z</time>
1785                        </trkpt>
1786                        <trkpt lat="50.74981718324125" lon="10.179001232609153">
1787                                <ele>401.9000244140625</ele>
1788                                <time>2011-11-05T09:51:22Z</time>
1789                        </trkpt>
1790                        <trkpt lat="50.74994303751737" lon="10.179270710796118">
1791                                <ele>401.5999755859375</ele>
1792                                <time>2011-11-05T09:51:23Z</time>
1793                        </trkpt>
1794                        <trkpt lat="50.75008406303823" lon="10.179525604471564">
1795                                <ele>401.79998779296875</ele>
1796                                <time>2011-11-05T09:51:24Z</time>
1797                        </trkpt>
1798                        <trkpt lat="50.75021486263722" lon="10.179767925292253">
1799                                <ele>402.4000244140625</ele>
1800                                <time>2011-11-05T09:51:25Z</time>
1801                        </trkpt>
1802                        <trkpt lat="50.75035412795842" lon="10.180017873644829">
1803                                <ele>401.70001220703125</ele>
1804                                <time>2011-11-05T09:51:26Z</time>
1805                        </trkpt>
1806                        <trkpt lat="50.75048266444355" lon="10.180269330739975">
1807                                <ele>402.0</ele>
1808                                <time>2011-11-05T09:51:27Z</time>
1809                        </trkpt>
1810                        <trkpt lat="50.750607093796134" lon="10.180507460609078">
1811                                <ele>402.29998779296875</ele>
1812                                <time>2011-11-05T09:51:28Z</time>
1813                        </trkpt>
1814                        <trkpt lat="50.7507338700816" lon="10.180745255202055">
1815                                <ele>402.29998779296875</ele>
1816                                <time>2011-11-05T09:51:29Z</time>
1817                        </trkpt>
1818                        <trkpt lat="50.75086550787091" lon="10.180981121957302">
1819                                <ele>402.79998779296875</ele>
1820                                <time>2011-11-05T09:51:30Z</time>
1821                        </trkpt>
1822                        <trkpt lat="50.75099743902683" lon="10.181216485798359">
1823                                <ele>403.20001220703125</ele>
1824                                <time>2011-11-05T09:51:31Z</time>
1825                        </trkpt>
1826                        <trkpt lat="50.75112907681614" lon="10.181439109146595">
1827                                <ele>403.5999755859375</ele>
1828                                <time>2011-11-05T09:51:32Z</time>
1829                        </trkpt>
1830                        <trkpt lat="50.751261175610125" lon="10.181662235409021">
1831                                <ele>403.5999755859375</ele>
1832                                <time>2011-11-05T09:51:33Z</time>
1833                        </trkpt>
1834                        <trkpt lat="50.75139163993299" lon="10.181881170719862">
1835                                <ele>404.70001220703125</ele>
1836                                <time>2011-11-05T09:51:34Z</time>
1837                        </trkpt>
1838                        <trkpt lat="50.751529689878225" lon="10.182084767147899">
1839                                <ele>405.9000244140625</ele>
1840                                <time>2011-11-05T09:51:35Z</time>
1841                        </trkpt>
1842                        <trkpt lat="50.75167980976403" lon="10.182261541485786">
1843                                <ele>407.29998779296875</ele>
1844                                <time>2011-11-05T09:51:36Z</time>
1845                        </trkpt>
1846                        <trkpt lat="50.75183772481978" lon="10.182422138750553">
1847                                <ele>408.5</ele>
1848                                <time>2011-11-05T09:51:37Z</time>
1849                        </trkpt>
1850                        <trkpt lat="50.752018564380705" lon="10.182549627497792">
1851                                <ele>410.0</ele>
1852                                <time>2011-11-05T09:51:38Z</time>
1853                        </trkpt>
1854                        <trkpt lat="50.75219697318971" lon="10.182661609724164">
1855                                <ele>411.20001220703125</ele>
1856                                <time>2011-11-05T09:51:39Z</time>
1857                        </trkpt>
1858                        <trkpt lat="50.752372574061155" lon="10.1827737595886">
1859                                <ele>411.70001220703125</ele>
1860                                <time>2011-11-05T09:51:40Z</time>
1861                        </trkpt>
1862                        <trkpt lat="50.752533841878176" lon="10.18290527164936">
1863                                <ele>412.5</ele>
1864                                <time>2011-11-05T09:51:41Z</time>
1865                        </trkpt>
1866                        <trkpt lat="50.752698462456465" lon="10.183047261089087">
1867                                <ele>414.0999755859375</ele>
1868                                <time>2011-11-05T09:51:42Z</time>
1869                        </trkpt>
1870                        <trkpt lat="50.752869034186006" lon="10.18321892246604">
1871                                <ele>415.0</ele>
1872                                <time>2011-11-05T09:51:43Z</time>
1873                        </trkpt>
1874                        <trkpt lat="50.75302933808416" lon="10.183406341820955">
1875                                <ele>415.0</ele>
1876                                <time>2011-11-05T09:51:44Z</time>
1877                        </trkpt>
1878                        <trkpt lat="50.75316734611988" lon="10.183614129200578">
1879                                <ele>414.9000244140625</ele>
1880                                <time>2011-11-05T09:51:45Z</time>
1881                        </trkpt>
1882                        <trkpt lat="50.75331277213991" lon="10.183811690658331">
1883                                <ele>415.20001220703125</ele>
1884                                <time>2011-11-05T09:51:46Z</time>
1885                        </trkpt>
1886                        <trkpt lat="50.75345233082771" lon="10.183991733938456">
1887                                <ele>415.0999755859375</ele>
1888                                <time>2011-11-05T09:51:47Z</time>
1889                        </trkpt>
1890                        <trkpt lat="50.75358308851719" lon="10.184160294011235">
1891                                <ele>415.0</ele>
1892                                <time>2011-11-05T09:51:48Z</time>
1893                        </trkpt>
1894                        <trkpt lat="50.75371573213488" lon="10.184311922639608">
1895                                <ele>415.0999755859375</ele>
1896                                <time>2011-11-05T09:51:49Z</time>
1897                        </trkpt>
1898                        <trkpt lat="50.75385541655123" lon="10.184446284547448">
1899                                <ele>415.5</ele>
1900                                <time>2011-11-05T09:51:50Z</time>
1901                        </trkpt>
1902                        <trkpt lat="50.754002812318504" lon="10.184557177126408">
1903                                <ele>416.20001220703125</ele>
1904                                <time>2011-11-05T09:51:51Z</time>
1905                        </trkpt>
1906                        <trkpt lat="50.75415825471282" lon="10.184620711952448">
1907                                <ele>416.9000244140625</ele>
1908                                <time>2011-11-05T09:51:52Z</time>
1909                        </trkpt>
1910                        <trkpt lat="50.754356905817986" lon="10.184564720839262">
1911                                <ele>417.79998779296875</ele>
1912                                <time>2011-11-05T09:51:53Z</time>
1913                        </trkpt>
1914                        <trkpt lat="50.75456892605871" lon="10.184418959543109">
1915                                <ele>418.0</ele>
1916                                <time>2011-11-05T09:51:54Z</time>
1917                        </trkpt>
1918                        <trkpt lat="50.754781323485076" lon="10.184229277074337">
1919                                <ele>417.79998779296875</ele>
1920                                <time>2011-11-05T09:51:55Z</time>
1921                        </trkpt>
1922                        <trkpt lat="50.754948165267706" lon="10.18399584107101">
1923                                <ele>418.29998779296875</ele>
1924                                <time>2011-11-05T09:51:56Z</time>
1925                        </trkpt>
1926                        <trkpt lat="50.75507603120059" lon="10.183781934902072">
1927                                <ele>419.9000244140625</ele>
1928                                <time>2011-11-05T09:51:57Z</time>
1929                        </trkpt>
1930                        <trkpt lat="50.75518373865634" lon="10.183534501120448">
1931                                <ele>421.29998779296875</ele>
1932                                <time>2011-11-05T09:51:58Z</time>
1933                        </trkpt>
1934                        <trkpt lat="50.75530435424298" lon="10.183280445635319">
1935                                <ele>423.29998779296875</ele>
1936                                <time>2011-11-05T09:51:59Z</time>
1937                        </trkpt>
1938                        <trkpt lat="50.75542547274381" lon="10.183030497282743">
1939                                <ele>425.0999755859375</ele>
1940                                <time>2011-11-05T09:52:00Z</time>
1941                        </trkpt>
1942                        <trkpt lat="50.75554114300758" lon="10.18279287032783">
1943                                <ele>426.29998779296875</ele>
1944                                <time>2011-11-05T09:52:01Z</time>
1945                        </trkpt>
1946                        <trkpt lat="50.75565631035715" lon="10.182564798742533">
1947                                <ele>426.79998779296875</ele>
1948                                <time>2011-11-05T09:52:02Z</time>
1949                        </trkpt>
1950                        <trkpt lat="50.755763347260654" lon="10.182342175394297">
1951                                <ele>426.70001220703125</ele>
1952                                <time>2011-11-05T09:52:03Z</time>
1953                        </trkpt>
1954                        <trkpt lat="50.75587268918753" lon="10.182116953656077">
1955                                <ele>427.0999755859375</ele>
1956                                <time>2011-11-05T09:52:04Z</time>
1957                        </trkpt>
1958                        <trkpt lat="50.75598412659019" lon="10.181890055537224">
1959                                <ele>427.70001220703125</ele>
1960                                <time>2011-11-05T09:52:05Z</time>
1961                        </trkpt>
1962                        <trkpt lat="50.75609895866364" lon="10.181657457724214">
1963                                <ele>428.29998779296875</ele>
1964                                <time>2011-11-05T09:52:06Z</time>
1965                        </trkpt>
1966                        <trkpt lat="50.75622263364494" lon="10.181434247642756">
1967                                <ele>428.70001220703125</ele>
1968                                <time>2011-11-05T09:52:07Z</time>
1969                        </trkpt>
1970                        <trkpt lat="50.756359342485666" lon="10.18121900036931">
1971                                <ele>428.79998779296875</ele>
1972                                <time>2011-11-05T09:52:08Z</time>
1973                        </trkpt>
1974                        <trkpt lat="50.756507785990834" lon="10.181026048958302">
1975                                <ele>429.20001220703125</ele>
1976                                <time>2011-11-05T09:52:09Z</time>
1977                        </trkpt>
1978                        <trkpt lat="50.756659749895334" lon="10.180855225771666">
1979                                <ele>430.20001220703125</ele>
1980                                <time>2011-11-05T09:52:10Z</time>
1981                        </trkpt>
1982                        <trkpt lat="50.75681054033339" lon="10.180709296837449">
1983                                <ele>430.9000244140625</ele>
1984                                <time>2011-11-05T09:52:11Z</time>
1985                        </trkpt>
1986                        <trkpt lat="50.756982495076954" lon="10.180582646280527">
1987                                <ele>429.9000244140625</ele>
1988                                <time>2011-11-05T09:52:12Z</time>
1989                        </trkpt>
1990                        <trkpt lat="50.75716911815107" lon="10.18047720193863">
1991                                <ele>429.70001220703125</ele>
1992                                <time>2011-11-05T09:52:13Z</time>
1993                        </trkpt>
1994                        <trkpt lat="50.75737522915006" lon="10.18037997186184">
1995                                <ele>428.70001220703125</ele>
1996                                <time>2011-11-05T09:52:14Z</time>
1997                        </trkpt>
1998                        <trkpt lat="50.75755539815873" lon="10.180266983807087">
1999                                <ele>428.79998779296875</ele>
2000                                <time>2011-11-05T09:52:15Z</time>
2001                        </trkpt>
2002                        <trkpt lat="50.757734226062894" lon="10.180155839771032">
2003                                <ele>428.20001220703125</ele>
2004                                <time>2011-11-05T09:52:16Z</time>
2005                        </trkpt>
2006                        <trkpt lat="50.75791284441948" lon="10.180052239447832">
2007                                <ele>428.0999755859375</ele>
2008                                <time>2011-11-05T09:52:17Z</time>
2009                        </trkpt>
2010                        <trkpt lat="50.758095821365714" lon="10.179958865046501">
2011                                <ele>428.0</ele>
2012                                <time>2011-11-05T09:52:18Z</time>
2013                        </trkpt>
2014                        <trkpt lat="50.75826207641512" lon="10.179852833971381">
2015                                <ele>427.5999755859375</ele>
2016                                <time>2011-11-05T09:52:19Z</time>
2017                        </trkpt>
2018                        <trkpt lat="50.75842690654099" lon="10.179749736562371">
2019                                <ele>427.0</ele>
2020                                <time>2011-11-05T09:52:20Z</time>
2021                        </trkpt>
2022                        <trkpt lat="50.75859508942813" lon="10.179650411009789">
2023                                <ele>427.29998779296875</ele>
2024                                <time>2011-11-05T09:52:21Z</time>
2025                        </trkpt>
2026                        <trkpt lat="50.758767002262175" lon="10.179554019123316">
2027                                <ele>427.4000244140625</ele>
2028                                <time>2011-11-05T09:52:22Z</time>
2029                        </trkpt>
2030                        <trkpt lat="50.75895085930824" lon="10.179473804309964">
2031                                <ele>428.20001220703125</ele>
2032                                <time>2011-11-05T09:52:23Z</time>
2033                        </trkpt>
2034                        <trkpt lat="50.75914045795798" lon="10.179400965571404">
2035                                <ele>429.5</ele>
2036                                <time>2011-11-05T09:52:24Z</time>
2037                        </trkpt>
2038                        <trkpt lat="50.75932875741273" lon="10.179339107125998">
2039                                <ele>428.79998779296875</ele>
2040                                <time>2011-11-05T09:52:25Z</time>
2041                        </trkpt>
2042                        <trkpt lat="50.75951927807182" lon="10.179282361641526">
2043                                <ele>428.70001220703125</ele>
2044                                <time>2011-11-05T09:52:26Z</time>
2045                        </trkpt>
2046                        <trkpt lat="50.75971830636263" lon="10.17924103885889">
2047                                <ele>429.0999755859375</ele>
2048                                <time>2011-11-05T09:52:27Z</time>
2049                        </trkpt>
2050                        <trkpt lat="50.759909665212035" lon="10.179214887320995">
2051                                <ele>429.5999755859375</ele>
2052                                <time>2011-11-05T09:52:28Z</time>
2053                        </trkpt>
2054                        <trkpt lat="50.760106849484146" lon="10.179216312244534">
2055                                <ele>430.29998779296875</ele>
2056                                <time>2011-11-05T09:52:29Z</time>
2057                        </trkpt>
2058                        <trkpt lat="50.76028546784073" lon="10.17928160727024">
2059                                <ele>431.29998779296875</ele>
2060                                <time>2011-11-05T09:52:30Z</time>
2061                        </trkpt>
2062                        <trkpt lat="50.76045767404139" lon="10.179369868710637">
2063                                <ele>432.29998779296875</ele>
2064                                <time>2011-11-05T09:52:31Z</time>
2065                        </trkpt>
2066                        <trkpt lat="50.76063910033554" lon="10.179477576166391">
2067                                <ele>433.20001220703125</ele>
2068                                <time>2011-11-05T09:52:32Z</time>
2069                        </trkpt>
2070                        <trkpt lat="50.760828740894794" lon="10.179615458473563">
2071                                <ele>435.5999755859375</ele>
2072                                <time>2011-11-05T09:52:33Z</time>
2073                        </trkpt>
2074                        <trkpt lat="50.761015196330845" lon="10.179739007726312">
2075                                <ele>437.29998779296875</ele>
2076                                <time>2011-11-05T09:52:34Z</time>
2077                        </trkpt>
2078                        <trkpt lat="50.761194694787264" lon="10.179863143712282">
2079                                <ele>438.4000244140625</ele>
2080                                <time>2011-11-05T09:52:35Z</time>
2081                        </trkpt>
2082                        <trkpt lat="50.761366775259376" lon="10.1799969188869">
2083                                <ele>440.0999755859375</ele>
2084                                <time>2011-11-05T09:52:36Z</time>
2085                        </trkpt>
2086                        <trkpt lat="50.76153093483299" lon="10.18013714812696">
2087                                <ele>441.5</ele>
2088                                <time>2011-11-05T09:52:37Z</time>
2089                        </trkpt>
2090                        <trkpt lat="50.76169383712113" lon="10.180274527519941">
2091                                <ele>444.0</ele>
2092                                <time>2011-11-05T09:52:38Z</time>
2093                        </trkpt>
2094                        <trkpt lat="50.76185569167137" lon="10.180413834750652">
2095                                <ele>446.0999755859375</ele>
2096                                <time>2011-11-05T09:52:39Z</time>
2097                        </trkpt>
2098                        <trkpt lat="50.762007613666356" lon="10.180574180558324">
2099                                <ele>448.0999755859375</ele>
2100                                <time>2011-11-05T09:52:40Z</time>
2101                        </trkpt>
2102                        <trkpt lat="50.76215446460992" lon="10.180745422840118">
2103                                <ele>449.0999755859375</ele>
2104                                <time>2011-11-05T09:52:41Z</time>
2105                        </trkpt>
2106                        <trkpt lat="50.762291508726776" lon="10.180917922407389">
2107                                <ele>450.20001220703125</ele>
2108                                <time>2011-11-05T09:52:42Z</time>
2109                        </trkpt>
2110                        <trkpt lat="50.76242075767368" lon="10.181099977344275">
2111                                <ele>451.29998779296875</ele>
2112                                <time>2011-11-05T09:52:43Z</time>
2113                        </trkpt>
2114                        <trkpt lat="50.76254589948803" lon="10.181291000917554">
2115                                <ele>452.0</ele>
2116                                <time>2011-11-05T09:52:44Z</time>
2117                        </trkpt>
2118                        <trkpt lat="50.762662114575505" lon="10.181493759155273">
2119                                <ele>452.29998779296875</ele>
2120                                <time>2011-11-05T09:52:45Z</time>
2121                        </trkpt>
2122                        <trkpt lat="50.76276433188468" lon="10.181702887639403">
2123                                <ele>452.70001220703125</ele>
2124                                <time>2011-11-05T09:52:46Z</time>
2125                        </trkpt>
2126                        <trkpt lat="50.76286185532808" lon="10.181922744959593">
2127                                <ele>453.20001220703125</ele>
2128                                <time>2011-11-05T09:52:47Z</time>
2129                        </trkpt>
2130                        <trkpt lat="50.76294445898384" lon="10.182168083265424">
2131                                <ele>452.79998779296875</ele>
2132                                <time>2011-11-05T09:52:48Z</time>
2133                        </trkpt>
2134                        <trkpt lat="50.76298565603793" lon="10.18246061168611">
2135                                <ele>453.20001220703125</ele>
2136                                <time>2011-11-05T09:52:49Z</time>
2137                        </trkpt>
2138                        <trkpt lat="50.763028152287006" lon="10.182772167026997">
2139                                <ele>453.9000244140625</ele>
2140                                <time>2011-11-05T09:52:50Z</time>
2141                        </trkpt>
2142                        <trkpt lat="50.76307458803058" lon="10.183075927197933">
2143                                <ele>454.4000244140625</ele>
2144                                <time>2011-11-05T09:52:51Z</time>
2145                        </trkpt>
2146                        <trkpt lat="50.76311239041388" lon="10.18338454887271">
2147                                <ele>454.29998779296875</ele>
2148                                <time>2011-11-05T09:52:52Z</time>
2149                        </trkpt>
2150                        <trkpt lat="50.76314109843224" lon="10.183702893555164">
2151                                <ele>454.29998779296875</ele>
2152                                <time>2011-11-05T09:52:53Z</time>
2153                        </trkpt>
2154                        <trkpt lat="50.76318501960486" lon="10.183990225195885">
2155                                <ele>454.20001220703125</ele>
2156                                <time>2011-11-05T09:52:54Z</time>
2157                        </trkpt>
2158                        <trkpt lat="50.76323468238115" lon="10.18427336588502">
2159                                <ele>453.9000244140625</ele>
2160                                <time>2011-11-05T09:52:55Z</time>
2161                        </trkpt>
2162                        <trkpt lat="50.763292727060616" lon="10.184551477432251">
2163                                <ele>453.79998779296875</ele>
2164                                <time>2011-11-05T09:52:56Z</time>
2165                        </trkpt>
2166                        <trkpt lat="50.76336875092238" lon="10.184797318652272">
2167                                <ele>453.70001220703125</ele>
2168                                <time>2011-11-05T09:52:57Z</time>
2169                        </trkpt>
2170                        <trkpt lat="50.76345718000084" lon="10.18499563448131">
2171                                <ele>452.5</ele>
2172                                <time>2011-11-05T09:52:58Z</time>
2173                        </trkpt>
2174                        <trkpt lat="50.76356639619917" lon="10.185175677761436">
2175                                <ele>451.9000244140625</ele>
2176                                <time>2011-11-05T09:52:59Z</time>
2177                        </trkpt>
2178                        <trkpt lat="50.76371014583856" lon="10.185332586988807">
2179                                <ele>451.20001220703125</ele>
2180                                <time>2011-11-05T09:53:00Z</time>
2181                        </trkpt>
2182                        <trkpt lat="50.7638727966696" lon="10.185465356335044">
2183                                <ele>450.5</ele>
2184                                <time>2011-11-05T09:53:01Z</time>
2185                        </trkpt>
2186                        <trkpt lat="50.76408427208662" lon="10.185540542006493">
2187                                <ele>449.9000244140625</ele>
2188                                <time>2011-11-05T09:53:02Z</time>
2189                        </trkpt>
2190                        <trkpt lat="50.76427173335105" lon="10.185645148158073">
2191                                <ele>450.20001220703125</ele>
2192                                <time>2011-11-05T09:53:03Z</time>
2193                        </trkpt>
2194                        <trkpt lat="50.76445399783552" lon="10.185764003545046">
2195                                <ele>450.20001220703125</ele>
2196                                <time>2011-11-05T09:53:04Z</time>
2197                        </trkpt>
2198                        <trkpt lat="50.76463240664452" lon="10.185898868367076">
2199                                <ele>450.20001220703125</ele>
2200                                <time>2011-11-05T09:53:05Z</time>
2201                        </trkpt>
2202                        <trkpt lat="50.764820077456534" lon="10.186013113707304">
2203                                <ele>450.0999755859375</ele>
2204                                <time>2011-11-05T09:53:06Z</time>
2205                        </trkpt>
2206                        <trkpt lat="50.765001671388745" lon="10.186137333512306">
2207                                <ele>449.29998779296875</ele>
2208                                <time>2011-11-05T09:53:07Z</time>
2209                        </trkpt>
2210                        <trkpt lat="50.76518670190126" lon="10.186244621872902">
2211                                <ele>448.5999755859375</ele>
2212                                <time>2011-11-05T09:53:08Z</time>
2213                        </trkpt>
2214                        <trkpt lat="50.76536821201444" lon="10.18634864129126">
2215                                <ele>447.0999755859375</ele>
2216                                <time>2011-11-05T09:53:09Z</time>
2217                        </trkpt>
2218                        <trkpt lat="50.76556057669222" lon="10.186422653496265">
2219                                <ele>446.0</ele>
2220                                <time>2011-11-05T09:53:10Z</time>
2221                        </trkpt>
2222                        <trkpt lat="50.76575465966016" lon="10.186477303504944">
2223                                <ele>445.29998779296875</ele>
2224                                <time>2011-11-05T09:53:11Z</time>
2225                        </trkpt>
2226                        <trkpt lat="50.76595293357968" lon="10.186517536640167">
2227                                <ele>446.20001220703125</ele>
2228                                <time>2011-11-05T09:53:12Z</time>
2229                        </trkpt>
2230                        <trkpt lat="50.7661429932341" lon="10.186531953513622">
2231                                <ele>447.20001220703125</ele>
2232                                <time>2011-11-05T09:53:13Z</time>
2233                        </trkpt>
2234                        <trkpt lat="50.766317839734256" lon="10.186526421457529">
2235                                <ele>448.0</ele>
2236                                <time>2011-11-05T09:53:14Z</time>
2237                        </trkpt>
2238                        <trkpt lat="50.76650173868984" lon="10.18652549944818">
2239                                <ele>447.9000244140625</ele>
2240                                <time>2011-11-05T09:53:15Z</time>
2241                        </trkpt>
2242                        <trkpt lat="50.766686433926225" lon="10.186529187485576">
2243                                <ele>446.5999755859375</ele>
2244                                <time>2011-11-05T09:53:16Z</time>
2245                        </trkpt>
2246                        <trkpt lat="50.76687125489116" lon="10.186539078131318">
2247                                <ele>445.20001220703125</ele>
2248                                <time>2011-11-05T09:53:17Z</time>
2249                        </trkpt>
2250                        <trkpt lat="50.76706064399332" lon="10.186556428670883">
2251                                <ele>444.0</ele>
2252                                <time>2011-11-05T09:53:18Z</time>
2253                        </trkpt>
2254                        <trkpt lat="50.767250787466764" lon="10.186567911878228">
2255                                <ele>442.5</ele>
2256                                <time>2011-11-05T09:53:19Z</time>
2257                        </trkpt>
2258                        <trkpt lat="50.76741645578295" lon="10.186602948233485">
2259                                <ele>440.0999755859375</ele>
2260                                <time>2011-11-05T09:53:20Z</time>
2261                        </trkpt>
2262                        <trkpt lat="50.76758216600865" lon="10.186611749231815">
2263                                <ele>438.20001220703125</ele>
2264                                <time>2011-11-05T09:53:21Z</time>
2265                        </trkpt>
2266                        <trkpt lat="50.767731070518494" lon="10.186650473624468">
2267                                <ele>437.4000244140625</ele>
2268                                <time>2011-11-05T09:53:22Z</time>
2269                        </trkpt>
2270                        <trkpt lat="50.76786656398326" lon="10.18669012002647">
2271                                <ele>437.4000244140625</ele>
2272                                <time>2011-11-05T09:53:23Z</time>
2273                        </trkpt>
2274                        <trkpt lat="50.76797301415354" lon="10.186743093654513">
2275                                <ele>438.70001220703125</ele>
2276                                <time>2011-11-05T09:53:24Z</time>
2277                        </trkpt>
2278                        <trkpt lat="50.768103897571564" lon="10.186794893816113">
2279                                <ele>440.5</ele>
2280                                <time>2011-11-05T09:53:25Z</time>
2281                        </trkpt>
2282                        <trkpt lat="50.76823272742331" lon="10.186895979568362">
2283                                <ele>442.9000244140625</ele>
2284                                <time>2011-11-05T09:53:26Z</time>
2285                        </trkpt>
2286                        <trkpt lat="50.768396886996925" lon="10.187023133039474">
2287                                <ele>444.0</ele>
2288                                <time>2011-11-05T09:53:27Z</time>
2289                        </trkpt>
2290                        <trkpt lat="50.768519304692745" lon="10.187138803303242">
2291                                <ele>445.70001220703125</ele>
2292                                <time>2011-11-05T09:53:28Z</time>
2293                        </trkpt>
2294                        <trkpt lat="50.76863853726536" lon="10.187276350334287">
2295                                <ele>446.79998779296875</ele>
2296                                <time>2011-11-05T09:53:29Z</time>
2297                        </trkpt>
2298                        <trkpt lat="50.76881225220859" lon="10.18753208220005">
2299                                <ele>447.5999755859375</ele>
2300                                <time>2011-11-05T09:53:30Z</time>
2301                        </trkpt>
2302                        <trkpt lat="50.76899627689272" lon="10.187794016674161">
2303                                <ele>448.5999755859375</ele>
2304                                <time>2011-11-05T09:53:31Z</time>
2305                        </trkpt>
2306                        <trkpt lat="50.76917292550206" lon="10.188046814873815">
2307                                <ele>449.9000244140625</ele>
2308                                <time>2011-11-05T09:53:32Z</time>
2309                        </trkpt>
2310                        <trkpt lat="50.769355106167495" lon="10.188269941136241">
2311                                <ele>450.5999755859375</ele>
2312                                <time>2011-11-05T09:53:33Z</time>
2313                        </trkpt>
2314                        <trkpt lat="50.76953364070505" lon="10.188503544777632">
2315                                <ele>450.9000244140625</ele>
2316                                <time>2011-11-05T09:53:34Z</time>
2317                        </trkpt>
2318                        <trkpt lat="50.76972118578851" lon="10.188774280250072">
2319                                <ele>449.20001220703125</ele>
2320                                <time>2011-11-05T09:53:35Z</time>
2321                        </trkpt>
2322                        <trkpt lat="50.76990055851638" lon="10.189019199460745">
2323                                <ele>448.4000244140625</ele>
2324                                <time>2011-11-05T09:53:36Z</time>
2325                        </trkpt>
2326                        <trkpt lat="50.77009422238916" lon="10.189240984618664">
2327                                <ele>447.20001220703125</ele>
2328                                <time>2011-11-05T09:53:37Z</time>
2329                        </trkpt>
2330                        <trkpt lat="50.770275900140405" lon="10.189451621845365">
2331                                <ele>448.29998779296875</ele>
2332                                <time>2011-11-05T09:53:38Z</time>
2333                        </trkpt>
2334                        <trkpt lat="50.77046222984791" lon="10.189657732844353">
2335                                <ele>447.79998779296875</ele>
2336                                <time>2011-11-05T09:53:39Z</time>
2337                        </trkpt>
2338                        <trkpt lat="50.77064474578947" lon="10.189866777509451">
2339                                <ele>447.0</ele>
2340                                <time>2011-11-05T09:53:40Z</time>
2341                        </trkpt>
2342                        <trkpt lat="50.770814563147724" lon="10.190076995640993">
2343                                <ele>447.4000244140625</ele>
2344                                <time>2011-11-05T09:53:41Z</time>
2345                        </trkpt>
2346                        <trkpt lat="50.770993935875595" lon="10.190293584018946">
2347                                <ele>445.79998779296875</ele>
2348                                <time>2011-11-05T09:53:42Z</time>
2349                        </trkpt>
2350                        <trkpt lat="50.77118127141148" lon="10.19052634947002">
2351                                <ele>442.5999755859375</ele>
2352                                <time>2011-11-05T09:53:43Z</time>
2353                        </trkpt>
2354                        <trkpt lat="50.77137204352766" lon="10.190753247588873">
2355                                <ele>439.0</ele>
2356                                <time>2011-11-05T09:53:44Z</time>
2357                        </trkpt>
2358                        <trkpt lat="50.77155447565019" lon="10.191027084365487">
2359                                <ele>433.0999755859375</ele>
2360                                <time>2011-11-05T09:53:45Z</time>
2361                        </trkpt>
2362                        <trkpt lat="50.771722281351686" lon="10.191264376044273">
2363                                <ele>430.5999755859375</ele>
2364                                <time>2011-11-05T09:53:46Z</time>
2365                        </trkpt>
2366                        <trkpt lat="50.77188631519675" lon="10.191561598330736">
2367                                <ele>424.79998779296875</ele>
2368                                <time>2011-11-05T09:53:47Z</time>
2369                        </trkpt>
2370                        <trkpt lat="50.772027424536645" lon="10.191872986033559">
2371                                <ele>419.79998779296875</ele>
2372                                <time>2011-11-05T09:53:48Z</time>
2373                        </trkpt>
2374                        <trkpt lat="50.77216878533363" lon="10.192159311845899">
2375                                <ele>415.70001220703125</ele>
2376                                <time>2011-11-05T09:53:49Z</time>
2377                        </trkpt>
2378                        <trkpt lat="50.77229124493897" lon="10.192437171936035">
2379                                <ele>412.9000244140625</ele>
2380                                <time>2011-11-05T09:53:50Z</time>
2381                        </trkpt>
2382                        <trkpt lat="50.77240473590791" lon="10.192730203270912">
2383                                <ele>410.9000244140625</ele>
2384                                <time>2011-11-05T09:53:51Z</time>
2385                        </trkpt>
2386                        <trkpt lat="50.77251080889255" lon="10.193031951785088">
2387                                <ele>409.70001220703125</ele>
2388                                <time>2011-11-05T09:53:52Z</time>
2389                        </trkpt>
2390                        <trkpt lat="50.77260657213628" lon="10.193339986726642">
2391                                <ele>408.5999755859375</ele>
2392                                <time>2011-11-05T09:53:53Z</time>
2393                        </trkpt>
2394                        <trkpt lat="50.77269642613828" lon="10.193647434934974">
2395                                <ele>406.9000244140625</ele>
2396                                <time>2011-11-05T09:53:54Z</time>
2397                        </trkpt>
2398                        <trkpt lat="50.77278200536966" lon="10.193954380229115">
2399                                <ele>405.29998779296875</ele>
2400                                <time>2011-11-05T09:53:55Z</time>
2401                        </trkpt>
2402                        <trkpt lat="50.77285174280405" lon="10.194277670234442">
2403                                <ele>404.0</ele>
2404                                <time>2011-11-05T09:53:56Z</time>
2405                        </trkpt>
2406                        <trkpt lat="50.77291519381106" lon="10.194611186161637">
2407                                <ele>402.20001220703125</ele>
2408                                <time>2011-11-05T09:53:57Z</time>
2409                        </trkpt>
2410                        <trkpt lat="50.77296548523009" lon="10.194949647411704">
2411                                <ele>400.5</ele>
2412                                <time>2011-11-05T09:53:58Z</time>
2413                        </trkpt>
2414                        <trkpt lat="50.773014687001705" lon="10.195294646546245">
2415                                <ele>399.0999755859375</ele>
2416                                <time>2011-11-05T09:53:59Z</time>
2417                        </trkpt>
2418                        <trkpt lat="50.77305437531322" lon="10.19563402980566">
2419                                <ele>396.5</ele>
2420                                <time>2011-11-05T09:54:00Z</time>
2421                        </trkpt>
2422                        <trkpt lat="50.77310537919402" lon="10.195936532691121">
2423                                <ele>393.79998779296875</ele>
2424                                <time>2011-11-05T09:54:01Z</time>
2425                        </trkpt>
2426                        <trkpt lat="50.77315294649452" lon="10.196230821311474">
2427                                <ele>391.79998779296875</ele>
2428                                <time>2011-11-05T09:54:02Z</time>
2429                        </trkpt>
2430                        <trkpt lat="50.77319485601038" lon="10.196527037769556">
2431                                <ele>389.20001220703125</ele>
2432                                <time>2011-11-05T09:54:03Z</time>
2433                        </trkpt>
2434                        <trkpt lat="50.77323546633124" lon="10.196810765191913">
2435                                <ele>387.29998779296875</ele>
2436                                <time>2011-11-05T09:54:04Z</time>
2437                        </trkpt>
2438                        <trkpt lat="50.77329518739134" lon="10.197095582261682">
2439                                <ele>387.4000244140625</ele>
2440                                <time>2011-11-05T09:54:05Z</time>
2441                        </trkpt>
2442                        <trkpt lat="50.77337565366179" lon="10.1973813213408">
2443                                <ele>387.9000244140625</ele>
2444                                <time>2011-11-05T09:54:06Z</time>
2445                        </trkpt>
2446                        <trkpt lat="50.7734586764127" lon="10.197653649374843">
2447                                <ele>388.4000244140625</ele>
2448                                <time>2011-11-05T09:54:07Z</time>
2449                        </trkpt>
2450                        <trkpt lat="50.77355594839901" lon="10.19792572595179">
2451                                <ele>388.5999755859375</ele>
2452                                <time>2011-11-05T09:54:08Z</time>
2453                        </trkpt>
2454                        <trkpt lat="50.77367451041937" lon="10.198187492787838">
2455                                <ele>388.0999755859375</ele>
2456                                <time>2011-11-05T09:54:09Z</time>
2457                        </trkpt>
2458                        <trkpt lat="50.77381331473589" lon="10.198424030095339">
2459                                <ele>388.29998779296875</ele>
2460                                <time>2011-11-05T09:54:10Z</time>
2461                        </trkpt>
2462                        <trkpt lat="50.77397973742336" lon="10.198633074760437">
2463                                <ele>388.4000244140625</ele>
2464                                <time>2011-11-05T09:54:11Z</time>
2465                        </trkpt>
2466                        <trkpt lat="50.774168875068426" lon="10.198818063363433">
2467                                <ele>388.20001220703125</ele>
2468                                <time>2011-11-05T09:54:12Z</time>
2469                        </trkpt>
2470                        <trkpt lat="50.77439770102501" lon="10.198973631486297">
2471                                <ele>388.70001220703125</ele>
2472                                <time>2011-11-05T09:54:13Z</time>
2473                        </trkpt>
2474                        <trkpt lat="50.774641279131174" lon="10.19907153211534">
2475                                <ele>390.20001220703125</ele>
2476                                <time>2011-11-05T09:54:14Z</time>
2477                        </trkpt>
2478                        <trkpt lat="50.77487291302532" lon="10.19919315353036">
2479                                <ele>388.5</ele>
2480                                <time>2011-11-05T09:54:15Z</time>
2481                        </trkpt>
2482                        <trkpt lat="50.77509738039225" lon="10.199302705004811">
2483                                <ele>386.29998779296875</ele>
2484                                <time>2011-11-05T09:54:16Z</time>
2485                        </trkpt>
2486                        <trkpt lat="50.775294145569205" lon="10.199381578713655">
2487                                <ele>385.9000244140625</ele>
2488                                <time>2011-11-05T09:54:17Z</time>
2489                        </trkpt>
2490                        <trkpt lat="50.775473937392235" lon="10.199456932023168">
2491                                <ele>386.20001220703125</ele>
2492                                <time>2011-11-05T09:54:18Z</time>
2493                        </trkpt>
2494                        <trkpt lat="50.775658884085715" lon="10.199543349444866">
2495                                <ele>385.4000244140625</ele>
2496                                <time>2011-11-05T09:54:19Z</time>
2497                        </trkpt>
2498                        <trkpt lat="50.77584274113178" lon="10.199636640027165">
2499                                <ele>384.70001220703125</ele>
2500                                <time>2011-11-05T09:54:20Z</time>
2501                        </trkpt>
2502                        <trkpt lat="50.776017042808235" lon="10.199729762971401">
2503                                <ele>384.5</ele>
2504                                <time>2011-11-05T09:54:21Z</time>
2505                        </trkpt>
2506                        <trkpt lat="50.77620416879654" lon="10.199831100180745">
2507                                <ele>384.20001220703125</ele>
2508                                <time>2011-11-05T09:54:22Z</time>
2509                        </trkpt>
2510                        <trkpt lat="50.77638555318117" lon="10.199933778494596">
2511                                <ele>384.0</ele>
2512                                <time>2011-11-05T09:54:23Z</time>
2513                        </trkpt>
2514                        <trkpt lat="50.776569158770144" lon="10.200034193694592">
2515                                <ele>383.5999755859375</ele>
2516                                <time>2011-11-05T09:54:24Z</time>
2517                        </trkpt>
2518                        <trkpt lat="50.776758254505694" lon="10.200124466791749">
2519                                <ele>383.0999755859375</ele>
2520                                <time>2011-11-05T09:54:25Z</time>
2521                        </trkpt>
2522                        <trkpt lat="50.776947224512696" lon="10.200207866728306">
2523                                <ele>382.5</ele>
2524                                <time>2011-11-05T09:54:26Z</time>
2525                        </trkpt>
2526                        <trkpt lat="50.777136445976794" lon="10.200279951095581">
2527                                <ele>382.0999755859375</ele>
2528                                <time>2011-11-05T09:54:27Z</time>
2529                        </trkpt>
2530                        <trkpt lat="50.77732365578413" lon="10.200343988835812">
2531                                <ele>381.5999755859375</ele>
2532                                <time>2011-11-05T09:54:28Z</time>
2533                        </trkpt>
2534                        <trkpt lat="50.777508309111" lon="10.200397968292236">
2535                                <ele>380.9000244140625</ele>
2536                                <time>2011-11-05T09:54:29Z</time>
2537                        </trkpt>
2538                        <trkpt lat="50.77769405208528" lon="10.200459072366357">
2539                                <ele>381.0999755859375</ele>
2540                                <time>2011-11-05T09:54:30Z</time>
2541                        </trkpt>
2542                        <trkpt lat="50.77787413727492" lon="10.200519254431129">
2543                                <ele>380.79998779296875</ele>
2544                                <time>2011-11-05T09:54:31Z</time>
2545                        </trkpt>
2546                        <trkpt lat="50.77805112116039" lon="10.200576921924949">
2547                                <ele>381.29998779296875</ele>
2548                                <time>2011-11-05T09:54:32Z</time>
2549                        </trkpt>
2550                        <trkpt lat="50.778229823336005" lon="10.200635762885213">
2551                                <ele>381.79998779296875</ele>
2552                                <time>2011-11-05T09:54:33Z</time>
2553                        </trkpt>
2554                        <trkpt lat="50.77840722631663" lon="10.200675912201405">
2555                                <ele>382.0</ele>
2556                                <time>2011-11-05T09:54:34Z</time>
2557                        </trkpt>
2558                        <trkpt lat="50.77858441974968" lon="10.200683204457164">
2559                                <ele>383.0</ele>
2560                                <time>2011-11-05T09:54:35Z</time>
2561                        </trkpt>
2562                        <trkpt lat="50.778767061419785" lon="10.200655795633793">
2563                                <ele>383.5</ele>
2564                                <time>2011-11-05T09:54:36Z</time>
2565                        </trkpt>
2566                        <trkpt lat="50.778959803283215" lon="10.200566779822111">
2567                                <ele>384.20001220703125</ele>
2568                                <time>2011-11-05T09:54:37Z</time>
2569                        </trkpt>
2570                        <trkpt lat="50.77914491761476" lon="10.200456557795405">
2571                                <ele>384.5</ele>
2572                                <time>2011-11-05T09:54:38Z</time>
2573                        </trkpt>
2574                        <trkpt lat="50.77932768501341" lon="10.200334349647164">
2575                                <ele>385.5</ele>
2576                                <time>2011-11-05T09:54:39Z</time>
2577                        </trkpt>
2578                        <trkpt lat="50.77950454317033" lon="10.200208285823464">
2579                                <ele>386.0999755859375</ele>
2580                                <time>2011-11-05T09:54:40Z</time>
2581                        </trkpt>
2582                        <trkpt lat="50.77967595309019" lon="10.200082724913955">
2583                                <ele>386.9000244140625</ele>
2584                                <time>2011-11-05T09:54:41Z</time>
2585                        </trkpt>
2586                        <trkpt lat="50.779842836782336" lon="10.199958505108953">
2587                                <ele>386.79998779296875</ele>
2588                                <time>2011-11-05T09:54:42Z</time>
2589                        </trkpt>
2590                        <trkpt lat="50.78001705463976" lon="10.199839314445853">
2591                                <ele>386.0</ele>
2592                                <time>2011-11-05T09:54:43Z</time>
2593                        </trkpt>
2594                        <trkpt lat="50.78019206877798" lon="10.199720039963722">
2595                                <ele>385.4000244140625</ele>
2596                                <time>2011-11-05T09:54:44Z</time>
2597                        </trkpt>
2598                        <trkpt lat="50.78036465216428" lon="10.199596155434847">
2599                                <ele>385.29998779296875</ele>
2600                                <time>2011-11-05T09:54:45Z</time>
2601                        </trkpt>
2602                        <trkpt lat="50.78053019475192" lon="10.19946631975472">
2603                                <ele>385.20001220703125</ele>
2604                                <time>2011-11-05T09:54:46Z</time>
2605                        </trkpt>
2606                        <trkpt lat="50.78070256859064" lon="10.19934712909162">
2607                                <ele>385.0999755859375</ele>
2608                                <time>2011-11-05T09:54:47Z</time>
2609                        </trkpt>
2610                        <trkpt lat="50.780873098410666" lon="10.199230201542377">
2611                                <ele>385.29998779296875</ele>
2612                                <time>2011-11-05T09:54:48Z</time>
2613                        </trkpt>
2614                        <trkpt lat="50.781038724817336" lon="10.19911645911634">
2615                                <ele>385.29998779296875</ele>
2616                                <time>2011-11-05T09:54:49Z</time>
2617                        </trkpt>
2618                        <trkpt lat="50.78120326157659" lon="10.199016965925694">
2619                                <ele>385.20001220703125</ele>
2620                                <time>2011-11-05T09:54:50Z</time>
2621                        </trkpt>
2622                        <trkpt lat="50.78137303702533" lon="10.198951922357082">
2623                                <ele>384.79998779296875</ele>
2624                                <time>2011-11-05T09:54:51Z</time>
2625                        </trkpt>
2626                        <trkpt lat="50.781553206034005" lon="10.198922250419855">
2627                                <ele>384.5999755859375</ele>
2628                                <time>2011-11-05T09:54:52Z</time>
2629                        </trkpt>
2630                        <trkpt lat="50.78174469061196" lon="10.198947144672275">
2631                                <ele>383.79998779296875</ele>
2632                                <time>2011-11-05T09:54:53Z</time>
2633                        </trkpt>
2634                        <trkpt lat="50.78192913439125" lon="10.198992490768433">
2635                                <ele>383.4000244140625</ele>
2636                                <time>2011-11-05T09:54:54Z</time>
2637                        </trkpt>
2638                        <trkpt lat="50.782113494351506" lon="10.199069520458579">
2639                                <ele>382.79998779296875</ele>
2640                                <time>2011-11-05T09:54:55Z</time>
2641                        </trkpt>
2642                        <trkpt lat="50.78229047823697" lon="10.19917462952435">
2643                                <ele>382.20001220703125</ele>
2644                                <time>2011-11-05T09:54:56Z</time>
2645                        </trkpt>
2646                        <trkpt lat="50.78246389981359" lon="10.199297005310655">
2647                                <ele>381.4000244140625</ele>
2648                                <time>2011-11-05T09:54:57Z</time>
2649                        </trkpt>
2650                        <trkpt lat="50.782636776566505" lon="10.199417620897293">
2651                                <ele>381.0</ele>
2652                                <time>2011-11-05T09:54:58Z</time>
2653                        </trkpt>
2654                        <trkpt lat="50.78280466608703" lon="10.199538320302963">
2655                                <ele>380.4000244140625</ele>
2656                                <time>2011-11-05T09:54:59Z</time>
2657                        </trkpt>
2658                        <trkpt lat="50.78296626918018" lon="10.199662372469902">
2659                                <ele>379.5999755859375</ele>
2660                                <time>2011-11-05T09:55:00Z</time>
2661                        </trkpt>
2662                        <trkpt lat="50.783123848959804" lon="10.199781227856874">
2663                                <ele>379.4000244140625</ele>
2664                                <time>2011-11-05T09:55:01Z</time>
2665                        </trkpt>
2666                        <trkpt lat="50.78327505849302" lon="10.199915170669556">
2667                                <ele>379.79998779296875</ele>
2668                                <time>2011-11-05T09:55:02Z</time>
2669                        </trkpt>
2670                        <trkpt lat="50.78342425636947" lon="10.200073421001434">
2671                                <ele>379.9000244140625</ele>
2672                                <time>2011-11-05T09:55:03Z</time>
2673                        </trkpt>
2674                        <trkpt lat="50.78356088139117" lon="10.200248686596751">
2675                                <ele>380.20001220703125</ele>
2676                                <time>2011-11-05T09:55:04Z</time>
2677                        </trkpt>
2678                        <trkpt lat="50.783695075660944" lon="10.200452283024788">
2679                                <ele>380.20001220703125</ele>
2680                                <time>2011-11-05T09:55:05Z</time>
2681                        </trkpt>
2682                        <trkpt lat="50.78382126521319" lon="10.200664680451155">
2683                                <ele>380.20001220703125</ele>
2684                                <time>2011-11-05T09:55:06Z</time>
2685                        </trkpt>
2686                        <trkpt lat="50.783943054266274" lon="10.200876072049141">
2687                                <ele>379.9000244140625</ele>
2688                                <time>2011-11-05T09:55:07Z</time>
2689                        </trkpt>
2690                        <trkpt lat="50.78406421467662" lon="10.20108469761908">
2691                                <ele>379.5999755859375</ele>
2692                                <time>2011-11-05T09:55:08Z</time>
2693                        </trkpt>
2694                        <trkpt lat="50.78418390825391" lon="10.201295586302876">
2695                                <ele>379.5999755859375</ele>
2696                                <time>2011-11-05T09:55:09Z</time>
2697                        </trkpt>
2698                        <trkpt lat="50.784303518012166" lon="10.201503373682499">
2699                                <ele>379.9000244140625</ele>
2700                                <time>2011-11-05T09:55:10Z</time>
2701                        </trkpt>
2702                        <trkpt lat="50.784422708675265" lon="10.201705545186996">
2703                                <ele>379.70001220703125</ele>
2704                                <time>2011-11-05T09:55:11Z</time>
2705                        </trkpt>
2706                        <trkpt lat="50.78454101923853" lon="10.201903777197003">
2707                                <ele>379.5999755859375</ele>
2708                                <time>2011-11-05T09:55:12Z</time>
2709                        </trkpt>
2710                        <trkpt lat="50.7846558932215" lon="10.202097985893488">
2711                                <ele>379.0</ele>
2712                                <time>2011-11-05T09:55:13Z</time>
2713                        </trkpt>
2714                        <trkpt lat="50.78476749826223" lon="10.202288255095482">
2715                                <ele>378.70001220703125</ele>
2716                                <time>2011-11-05T09:55:14Z</time>
2717                        </trkpt>
2718                        <trkpt lat="50.78487541526556" lon="10.202464861795306">
2719                                <ele>378.0999755859375</ele>
2720                                <time>2011-11-05T09:55:15Z</time>
2721                        </trkpt>
2722                        <trkpt lat="50.78496719710529" lon="10.202616574242711">
2723                                <ele>377.70001220703125</ele>
2724                                <time>2011-11-05T09:55:16Z</time>
2725                        </trkpt>
2726                        <trkpt lat="50.78505001030862" lon="10.202751690521836">
2727                                <ele>377.29998779296875</ele>
2728                                <time>2011-11-05T09:55:17Z</time>
2729                        </trkpt>
2730                        <trkpt lat="50.785122849047184" lon="10.202876329421997">
2731                                <ele>376.79998779296875</ele>
2732                                <time>2011-11-05T09:55:18Z</time>
2733                        </trkpt>
2734                        <trkpt lat="50.78519279602915" lon="10.202996022999287">
2735                                <ele>376.4000244140625</ele>
2736                                <time>2011-11-05T09:55:19Z</time>
2737                        </trkpt>
2738                        <trkpt lat="50.785265089944005" lon="10.203115465119481">
2739                                <ele>375.79998779296875</ele>
2740                                <time>2011-11-05T09:55:20Z</time>
2741                        </trkpt>
2742                        <trkpt lat="50.78533650375903" lon="10.203235745429993">
2743                                <ele>375.5999755859375</ele>
2744                                <time>2011-11-05T09:55:21Z</time>
2745                        </trkpt>
2746                        <trkpt lat="50.78540686983615" lon="10.203354768455029">
2747                                <ele>375.5</ele>
2748                                <time>2011-11-05T09:55:22Z</time>
2749                        </trkpt>
2750                        <trkpt lat="50.78547870274633" lon="10.203475300222635">
2751                                <ele>375.29998779296875</ele>
2752                                <time>2011-11-05T09:55:23Z</time>
2753                        </trkpt>
2754                        <trkpt lat="50.78555154148489" lon="10.203600777313113">
2755                                <ele>374.9000244140625</ele>
2756                                <time>2011-11-05T09:55:24Z</time>
2757                        </trkpt>
2758                        <trkpt lat="50.785627691075206" lon="10.203730529174209">
2759                                <ele>374.4000244140625</ele>
2760                                <time>2011-11-05T09:55:25Z</time>
2761                        </trkpt>
2762                        <trkpt lat="50.78570778016001" lon="10.20386447198689">
2763                                <ele>373.79998779296875</ele>
2764                                <time>2011-11-05T09:55:26Z</time>
2765                        </trkpt>
2766                        <trkpt lat="50.78578342683613" lon="10.203999001532793">
2767                                <ele>373.5</ele>
2768                                <time>2011-11-05T09:55:27Z</time>
2769                        </trkpt>
2770                        <trkpt lat="50.78585911542177" lon="10.204134872183204">
2771                                <ele>373.20001220703125</ele>
2772                                <time>2011-11-05T09:55:28Z</time>
2773                        </trkpt>
2774                        <trkpt lat="50.78593069687486" lon="10.20427635870874">
2775                                <ele>373.0</ele>
2776                                <time>2011-11-05T09:55:29Z</time>
2777                        </trkpt>
2778                        <trkpt lat="50.7860034937039" lon="10.20441172644496">
2779                                <ele>372.29998779296875</ele>
2780                                <time>2011-11-05T09:55:30Z</time>
2781                        </trkpt>
2782                        <trkpt lat="50.78607582952827" lon="10.204555727541447">
2783                                <ele>372.0</ele>
2784                                <time>2011-11-05T09:55:31Z</time>
2785                        </trkpt>
2786                        <trkpt lat="50.7861520210281" lon="10.204698974266648">
2787                                <ele>371.4000244140625</ele>
2788                                <time>2011-11-05T09:55:32Z</time>
2789                        </trkpt>
2790                        <trkpt lat="50.786228883080184" lon="10.204844316467643">
2791                                <ele>370.9000244140625</ele>
2792                                <time>2011-11-05T09:55:33Z</time>
2793                        </trkpt>
2794                        <trkpt lat="50.78631706070155" lon="10.204992005601525">
2795                                <ele>370.29998779296875</ele>
2796                                <time>2011-11-05T09:55:34Z</time>
2797                        </trkpt>
2798                        <trkpt lat="50.78640913590789" lon="10.205131061375141">
2799                                <ele>369.29998779296875</ele>
2800                                <time>2011-11-05T09:55:35Z</time>
2801                        </trkpt>
2802                        <trkpt lat="50.78650116920471" lon="10.205270033329725">
2803                                <ele>368.0999755859375</ele>
2804                                <time>2011-11-05T09:55:36Z</time>
2805                        </trkpt>
2806                        <trkpt lat="50.78658679034561" lon="10.205406909808517">
2807                                <ele>367.0999755859375</ele>
2808                                <time>2011-11-05T09:55:37Z</time>
2809                        </trkpt>
2810                        <trkpt lat="50.78667568042874" lon="10.205537499859929">
2811                                <ele>367.20001220703125</ele>
2812                                <time>2011-11-05T09:55:38Z</time>
2813                        </trkpt>
2814                        <trkpt lat="50.786760337650776" lon="10.205670855939388">
2815                                <ele>367.0</ele>
2816                                <time>2011-11-05T09:55:39Z</time>
2817                        </trkpt>
2818                        <trkpt lat="50.786844324320555" lon="10.205804631114006">
2819                                <ele>366.5</ele>
2820                                <time>2011-11-05T09:55:40Z</time>
2821                        </trkpt>
2822                        <trkpt lat="50.78692604787648" lon="10.205943686887622">
2823                                <ele>365.9000244140625</ele>
2824                                <time>2011-11-05T09:55:41Z</time>
2825                        </trkpt>
2826                        <trkpt lat="50.787007729522884" lon="10.206080228090286">
2827                                <ele>365.5999755859375</ele>
2828                                <time>2011-11-05T09:55:42Z</time>
2829                        </trkpt>
2830                        <trkpt lat="50.7870897045359" lon="10.206217104569077">
2831                                <ele>365.5999755859375</ele>
2832                                <time>2011-11-05T09:55:43Z</time>
2833                        </trkpt>
2834                        <trkpt lat="50.78716254327446" lon="10.206362111493945">
2835                                <ele>365.0999755859375</ele>
2836                                <time>2011-11-05T09:55:44Z</time>
2837                        </trkpt>
2838                        <trkpt lat="50.78723886050284" lon="10.206503346562386">
2839                                <ele>364.70001220703125</ele>
2840                                <time>2011-11-05T09:55:45Z</time>
2841                        </trkpt>
2842                        <trkpt lat="50.78731572255492" lon="10.206640642136335">
2843                                <ele>364.70001220703125</ele>
2844                                <time>2011-11-05T09:55:46Z</time>
2845                        </trkpt>
2846                        <trkpt lat="50.787391578778625" lon="10.206762682646513">
2847                                <ele>365.29998779296875</ele>
2848                                <time>2011-11-05T09:55:47Z</time>
2849                        </trkpt>
2850                        <trkpt lat="50.78747175168246" lon="10.206882879137993">
2851                                <ele>365.5</ele>
2852                                <time>2011-11-05T09:55:48Z</time>
2853                        </trkpt>
2854                        <trkpt lat="50.787564078345895" lon="10.20699217915535">
2855                                <ele>366.5</ele>
2856                                <time>2011-11-05T09:55:49Z</time>
2857                        </trkpt>
2858                        <trkpt lat="50.78765409998596" lon="10.207104245200753">
2859                                <ele>366.79998779296875</ele>
2860                                <time>2011-11-05T09:55:50Z</time>
2861                        </trkpt>
2862                        <trkpt lat="50.787759753875434" lon="10.20719401538372">
2863                                <ele>367.5</ele>
2864                                <time>2011-11-05T09:55:51Z</time>
2865                        </trkpt>
2866                        <trkpt lat="50.78787404112518" lon="10.207266435027122">
2867                                <ele>368.5</ele>
2868                                <time>2011-11-05T09:55:52Z</time>
2869                        </trkpt>
2870                        <trkpt lat="50.787981329485774" lon="10.207342123612761">
2871                                <ele>368.29998779296875</ele>
2872                                <time>2011-11-05T09:55:53Z</time>
2873                        </trkpt>
2874                        <trkpt lat="50.788090797141194" lon="10.207413788884878">
2875                                <ele>369.0999755859375</ele>
2876                                <time>2011-11-05T09:55:54Z</time>
2877                        </trkpt>
2878                        <trkpt lat="50.788193978369236" lon="10.207499116659164">
2879                                <ele>368.5</ele>
2880                                <time>2011-11-05T09:55:55Z</time>
2881                        </trkpt>
2882                        <trkpt lat="50.78829489648342" lon="10.20758293569088">
2883                                <ele>368.0</ele>
2884                                <time>2011-11-05T09:55:56Z</time>
2885                        </trkpt>
2886                        <trkpt lat="50.788389570079744" lon="10.20766549743712">
2887                                <ele>367.9000244140625</ele>
2888                                <time>2011-11-05T09:55:57Z</time>
2889                        </trkpt>
2890                        <trkpt lat="50.788481435738504" lon="10.207760045304894">
2891                                <ele>367.79998779296875</ele>
2892                                <time>2011-11-05T09:55:58Z</time>
2893                        </trkpt>
2894                        <trkpt lat="50.788567517884076" lon="10.207861717790365">
2895                                <ele>367.29998779296875</ele>
2896                                <time>2011-11-05T09:55:59Z</time>
2897                        </trkpt>
2898                        <trkpt lat="50.788644631393254" lon="10.207965904846787">
2899                                <ele>365.70001220703125</ele>
2900                                <time>2011-11-05T09:56:00Z</time>
2901                        </trkpt>
2902                        <trkpt lat="50.78872392419726" lon="10.208083167672157">
2903                                <ele>365.0</ele>
2904                                <time>2011-11-05T09:56:01Z</time>
2905                        </trkpt>
2906                        <trkpt lat="50.788804180920124" lon="10.20820939913392">
2907                                <ele>364.29998779296875</ele>
2908                                <time>2011-11-05T09:56:02Z</time>
2909                        </trkpt>
2910                        <trkpt lat="50.78888058196753" lon="10.208338564261794">
2911                                <ele>363.70001220703125</ele>
2912                                <time>2011-11-05T09:56:03Z</time>
2913                        </trkpt>
2914                        <trkpt lat="50.78895254060626" lon="10.208483655005693">
2915                                <ele>363.5</ele>
2916                                <time>2011-11-05T09:56:04Z</time>
2917                        </trkpt>
2918                        <trkpt lat="50.78901758417487" lon="10.208624806255102">
2919                                <ele>363.29998779296875</ele>
2920                                <time>2011-11-05T09:56:05Z</time>
2921                        </trkpt>
2922                        <trkpt lat="50.789083004929125" lon="10.208746008574963">
2923                                <ele>363.20001220703125</ele>
2924                                <time>2011-11-05T09:56:06Z</time>
2925                        </trkpt>
2926                        <trkpt lat="50.78915500547737" lon="10.208854721859097">
2927                                <ele>363.20001220703125</ele>
2928                                <time>2011-11-05T09:56:07Z</time>
2929                        </trkpt>
2930                        <trkpt lat="50.789235890842974" lon="10.208956561982632">
2931                                <ele>363.0</ele>
2932                                <time>2011-11-05T09:56:08Z</time>
2933                        </trkpt>
2934                        <trkpt lat="50.789318536408246" lon="10.209060329943895">
2935                                <ele>363.0</ele>
2936                                <time>2011-11-05T09:56:09Z</time>
2937                        </trkpt>
2938                        <trkpt lat="50.789407971315086" lon="10.209153620526195">
2939                                <ele>362.5</ele>
2940                                <time>2011-11-05T09:56:10Z</time>
2941                        </trkpt>
2942                        <trkpt lat="50.789499836973846" lon="10.209251688793302">
2943                                <ele>362.0</ele>
2944                                <time>2011-11-05T09:56:11Z</time>
2945                        </trkpt>
2946                        <trkpt lat="50.78959639649838" lon="10.209353780373931">
2947                                <ele>361.29998779296875</ele>
2948                                <time>2011-11-05T09:56:12Z</time>
2949                        </trkpt>
2950                        <trkpt lat="50.78969412948936" lon="10.20946559496224">
2951                                <ele>361.4000244140625</ele>
2952                                <time>2011-11-05T09:56:13Z</time>
2953                        </trkpt>
2954                        <trkpt lat="50.78978997655213" lon="10.20957950502634">
2955                                <ele>361.5</ele>
2956                                <time>2011-11-05T09:56:14Z</time>
2957                        </trkpt>
2958                        <trkpt lat="50.789893409237266" lon="10.209676651284099">
2959                                <ele>361.79998779296875</ele>
2960                                <time>2011-11-05T09:56:15Z</time>
2961                        </trkpt>
2962                        <trkpt lat="50.78999072313309" lon="10.209779748693109">
2963                                <ele>361.29998779296875</ele>
2964                                <time>2011-11-05T09:56:16Z</time>
2965                        </trkpt>
2966                        <trkpt lat="50.79006745945662" lon="10.209892066195607">
2967                                <ele>360.79998779296875</ele>
2968                                <time>2011-11-05T09:56:17Z</time>
2969                        </trkpt>
2970                        <trkpt lat="50.7901556789875" lon="10.210012178868055">
2971                                <ele>360.5999755859375</ele>
2972                                <time>2011-11-05T09:56:18Z</time>
2973                        </trkpt>
2974                        <trkpt lat="50.79024607781321" lon="10.21013748832047">
2975                                <ele>360.5999755859375</ele>
2976                                <time>2011-11-05T09:56:19Z</time>
2977                        </trkpt>
2978                        <trkpt lat="50.79032013192773" lon="10.210263468325138">
2979                                <ele>360.70001220703125</ele>
2980                                <time>2011-11-05T09:56:20Z</time>
2981                        </trkpt>
2982                        <trkpt lat="50.79039137810469" lon="10.210387939587235">
2983                                <ele>360.4000244140625</ele>
2984                                <time>2011-11-05T09:56:21Z</time>
2985                        </trkpt>
2986                        <trkpt lat="50.79045679885894" lon="10.21051567979157">
2987                                <ele>359.20001220703125</ele>
2988                                <time>2011-11-05T09:56:22Z</time>
2989                        </trkpt>
2990                        <trkpt lat="50.79054162371904" lon="10.210631852969527">
2991                                <ele>358.9000244140625</ele>
2992                                <time>2011-11-05T09:56:23Z</time>
2993                        </trkpt>
2994                        <trkpt lat="50.790627747774124" lon="10.210746014490724">
2995                                <ele>359.0999755859375</ele>
2996                                <time>2011-11-05T09:56:24Z</time>
2997                        </trkpt>
2998                        <trkpt lat="50.79070972278714" lon="10.210845926776528">
2999                                <ele>358.5999755859375</ele>
3000                                <time>2011-11-05T09:56:25Z</time>
3001                        </trkpt>
3002                        <trkpt lat="50.790783860720694" lon="10.210945755243301">
3003                                <ele>358.4000244140625</ele>
3004                                <time>2011-11-05T09:56:26Z</time>
3005                        </trkpt>
3006                        <trkpt lat="50.79086072277278" lon="10.211026053875685">
3007                                <ele>359.0</ele>
3008                                <time>2011-11-05T09:56:27Z</time>
3009                        </trkpt>
3010                        <trkpt lat="50.790929244831204" lon="10.211100820451975">
3011                                <ele>359.70001220703125</ele>
3012                                <time>2011-11-05T09:56:28Z</time>
3013                        </trkpt>
3014                        <trkpt lat="50.79099043272436" lon="10.211169300600886">
3015                                <ele>360.0</ele>
3016                                <time>2011-11-05T09:56:29Z</time>
3017                        </trkpt>
3018                        <trkpt lat="50.791040640324354" lon="10.211245492100716">
3019                                <ele>360.70001220703125</ele>
3020                                <time>2011-11-05T09:56:30Z</time>
3021                        </trkpt>
3022                        <trkpt lat="50.79108552541584" lon="10.21132587455213">
3023                                <ele>361.20001220703125</ele>
3024                                <time>2011-11-05T09:56:31Z</time>
3025                        </trkpt>
3026                        <trkpt lat="50.79113154206425" lon="10.211375327780843">
3027                                <ele>361.29998779296875</ele>
3028                                <time>2011-11-05T09:56:32Z</time>
3029                        </trkpt>
3030                        <trkpt lat="50.79118233639747" lon="10.21142846904695">
3031                                <ele>361.0999755859375</ele>
3032                                <time>2011-11-05T09:56:33Z</time>
3033                        </trkpt>
3034                        <trkpt lat="50.79122562892735" lon="10.211489824578166">
3035                                <ele>360.9000244140625</ele>
3036                                <time>2011-11-05T09:56:34Z</time>
3037                        </trkpt>
3038                        <trkpt lat="50.79126053955406" lon="10.211548078805208">
3039                                <ele>361.0</ele>
3040                                <time>2011-11-05T09:56:35Z</time>
3041                        </trkpt>
3042                        <trkpt lat="50.79125312156975" lon="10.211601471528411">
3043                                <ele>361.0999755859375</ele>
3044                                <time>2011-11-05T09:56:36Z</time>
3045                        </trkpt>
3046                        <trkpt lat="50.79126095864922" lon="10.211647739633918">
3047                                <ele>361.29998779296875</ele>
3048                                <time>2011-11-05T09:56:37Z</time>
3049                        </trkpt>
3050                        <trkpt lat="50.791275165975094" lon="10.211679674685001">
3051                                <ele>361.5</ele>
3052                                <time>2011-11-05T09:56:38Z</time>
3053                        </trkpt>
3054                        <trkpt lat="50.79128229059279" lon="10.211743712425232">
3055                                <ele>362.0999755859375</ele>
3056                                <time>2011-11-05T09:56:39Z</time>
3057                        </trkpt>
3058                        <trkpt lat="50.791297000832856" lon="10.211789645254612">
3059                                <ele>362.5</ele>
3060                                <time>2011-11-05T09:56:40Z</time>
3061                        </trkpt>
3062                        <trkpt lat="50.7913232780993" lon="10.211838008835912">
3063                                <ele>362.70001220703125</ele>
3064                                <time>2011-11-05T09:56:41Z</time>
3065                        </trkpt>
3066                        <trkpt lat="50.79135378822684" lon="10.211884528398514">
3067                                <ele>363.0</ele>
3068                                <time>2011-11-05T09:56:42Z</time>
3069                        </trkpt>
3070                        <trkpt lat="50.79136330168694" lon="10.211927946656942">
3071                                <ele>363.4000244140625</ele>
3072                                <time>2011-11-05T09:56:43Z</time>
3073                        </trkpt>
3074                        <trkpt lat="50.791400098241866" lon="10.21196885034442">
3075                                <ele>363.5</ele>
3076                                <time>2011-11-05T09:56:44Z</time>
3077                        </trkpt>
3078                        <trkpt lat="50.79143458977342" lon="10.212022745981812">
3079                                <ele>363.5999755859375</ele>
3080                                <time>2011-11-05T09:56:45Z</time>
3081                        </trkpt>
3082                        <trkpt lat="50.79146924894303" lon="10.212091309949756">
3083                                <ele>363.4000244140625</ele>
3084                                <time>2011-11-05T09:56:46Z</time>
3085                        </trkpt>
3086                        <trkpt lat="50.79150763805956" lon="10.212180996313691">
3087                                <ele>363.4000244140625</ele>
3088                                <time>2011-11-05T09:56:47Z</time>
3089                        </trkpt>
3090                        <trkpt lat="50.79156274907291" lon="10.212285937741399">
3091                                <ele>363.20001220703125</ele>
3092                                <time>2011-11-05T09:56:48Z</time>
3093                        </trkpt>
3094                        <trkpt lat="50.79163768328726" lon="10.21241451613605">
3095                                <ele>363.20001220703125</ele>
3096                                <time>2011-11-05T09:56:49Z</time>
3097                        </trkpt>
3098                        <trkpt lat="50.79170654062182" lon="10.212559942156076">
3099                                <ele>363.4000244140625</ele>
3100                                <time>2011-11-05T09:56:50Z</time>
3101                        </trkpt>
3102                        <trkpt lat="50.79176416620612" lon="10.2127228025347">
3103                                <ele>363.5</ele>
3104                                <time>2011-11-05T09:56:51Z</time>
3105                        </trkpt>
3106                        <trkpt lat="50.791822713799775" lon="10.212889267131686">
3107                                <ele>364.0</ele>
3108                                <time>2011-11-05T09:56:52Z</time>
3109                        </trkpt>
3110                        <trkpt lat="50.79188293777406" lon="10.213054222986102">
3111                                <ele>363.70001220703125</ele>
3112                                <time>2011-11-05T09:56:53Z</time>
3113                        </trkpt>
3114                        <trkpt lat="50.791945424862206" lon="10.213214820250869">
3115                                <ele>363.70001220703125</ele>
3116                                <time>2011-11-05T09:56:54Z</time>
3117                        </trkpt>
3118                        <trkpt lat="50.79202580731362" lon="10.213351864367723">
3119                                <ele>363.20001220703125</ele>
3120                                <time>2011-11-05T09:56:55Z</time>
3121                        </trkpt>
3122                        <trkpt lat="50.79210623167455" lon="10.213481113314629">
3123                                <ele>362.4000244140625</ele>
3124                                <time>2011-11-05T09:56:56Z</time>
3125                        </trkpt>
3126                        <trkpt lat="50.79218175262213" lon="10.213599046692252">
3127                                <ele>361.70001220703125</ele>
3128                                <time>2011-11-05T09:56:57Z</time>
3129                        </trkpt>
3130                        <trkpt lat="50.79225207678974" lon="10.21371966227889">
3131                                <ele>361.4000244140625</ele>
3132                                <time>2011-11-05T09:56:58Z</time>
3133                        </trkpt>
3134                        <trkpt lat="50.792334764264524" lon="10.213858969509602">
3135                                <ele>361.0999755859375</ele>
3136                                <time>2011-11-05T09:56:59Z</time>
3137                        </trkpt>
3138                        <trkpt lat="50.792414979077876" lon="10.214011436328292">
3139                                <ele>360.5999755859375</ele>
3140                                <time>2011-11-05T09:57:00Z</time>
3141                        </trkpt>
3142                        <trkpt lat="50.792500684037805" lon="10.21419701166451">
3143                                <ele>359.79998779296875</ele>
3144                                <time>2011-11-05T09:57:01Z</time>
3145                        </trkpt>
3146                        <trkpt lat="50.79258944839239" lon="10.214407900348306">
3147                                <ele>359.4000244140625</ele>
3148                                <time>2011-11-05T09:57:02Z</time>
3149                        </trkpt>
3150                        <trkpt lat="50.792669034563005" lon="10.214592721313238">
3151                                <ele>358.70001220703125</ele>
3152                                <time>2011-11-05T09:57:03Z</time>
3153                        </trkpt>
3154                        <trkpt lat="50.792747531086206" lon="10.214745188131928">
3155                                <ele>358.29998779296875</ele>
3156                                <time>2011-11-05T09:57:04Z</time>
3157                        </trkpt>
3158                        <trkpt lat="50.792811191640794" lon="10.214910646900535">
3159                                <ele>357.70001220703125</ele>
3160                                <time>2011-11-05T09:57:05Z</time>
3161                        </trkpt>
3162                        <trkpt lat="50.79287405591458" lon="10.215062778443098">
3163                                <ele>357.29998779296875</ele>
3164                                <time>2011-11-05T09:57:06Z</time>
3165                        </trkpt>
3166                        <trkpt lat="50.79294035676867" lon="10.215205186977983">
3167                                <ele>357.29998779296875</ele>
3168                                <time>2011-11-05T09:57:07Z</time>
3169                        </trkpt>
3170                        <trkpt lat="50.79300489742309" lon="10.21535606123507">
3171                                <ele>356.9000244140625</ele>
3172                                <time>2011-11-05T09:57:08Z</time>
3173                        </trkpt>
3174                        <trkpt lat="50.79305669758469" lon="10.21551045589149">
3175                                <ele>356.79998779296875</ele>
3176                                <time>2011-11-05T09:57:09Z</time>
3177                        </trkpt>
3178                        <trkpt lat="50.793103887699544" lon="10.215680357068777">
3179                                <ele>356.4000244140625</ele>
3180                                <time>2011-11-05T09:57:10Z</time>
3181                        </trkpt>
3182                        <trkpt lat="50.79315250273794" lon="10.215836931020021">
3183                                <ele>356.20001220703125</ele>
3184                                <time>2011-11-05T09:57:11Z</time>
3185                        </trkpt>
3186                        <trkpt lat="50.79320690128952" lon="10.21599031984806">
3187                                <ele>356.0999755859375</ele>
3188                                <time>2011-11-05T09:57:12Z</time>
3189                        </trkpt>
3190                        <trkpt lat="50.79326109029353" lon="10.21615250967443">
3191                                <ele>355.79998779296875</ele>
3192                                <time>2011-11-05T09:57:13Z</time>
3193                        </trkpt>
3194                        <trkpt lat="50.79331171698868" lon="10.216323332861066">
3195                                <ele>355.5</ele>
3196                                <time>2011-11-05T09:57:14Z</time>
3197                        </trkpt>
3198                        <trkpt lat="50.79336527734995" lon="10.216493317857385">
3199                                <ele>355.5</ele>
3200                                <time>2011-11-05T09:57:15Z</time>
3201                        </trkpt>
3202                        <trkpt lat="50.793415610678494" lon="10.21666414104402">
3203                                <ele>355.0999755859375</ele>
3204                                <time>2011-11-05T09:57:16Z</time>
3205                        </trkpt>
3206                        <trkpt lat="50.79346933867782" lon="10.216822223737836">
3207                                <ele>355.20001220703125</ele>
3208                                <time>2011-11-05T09:57:17Z</time>
3209                        </trkpt>
3210                        <trkpt lat="50.793516277335584" lon="10.216970164328814">
3211                                <ele>355.0</ele>
3212                                <time>2011-11-05T09:57:18Z</time>
3213                        </trkpt>
3214                        <trkpt lat="50.79357704613358" lon="10.217084158211946">
3215                                <ele>355.5999755859375</ele>
3216                                <time>2011-11-05T09:57:19Z</time>
3217                        </trkpt>
3218                        <trkpt lat="50.79363743774593" lon="10.217190776020288">
3219                                <ele>355.9000244140625</ele>
3220                                <time>2011-11-05T09:57:20Z</time>
3221                        </trkpt>
3222                        <trkpt lat="50.793693135492504" lon="10.217290353029966">
3223                                <ele>355.5999755859375</ele>
3224                                <time>2011-11-05T09:57:21Z</time>
3225                        </trkpt>
3226                        <trkpt lat="50.793748958967626" lon="10.21737358532846">
3227                                <ele>355.5</ele>
3228                                <time>2011-11-05T09:57:22Z</time>
3229                        </trkpt>
3230                        <trkpt lat="50.79379220958799" lon="10.217450866475701">
3231                                <ele>355.5999755859375</ele>
3232                                <time>2011-11-05T09:57:23Z</time>
3233                        </trkpt>
3234                        <trkpt lat="50.79383596312255" lon="10.217531751841307">
3235                                <ele>355.4000244140625</ele>
3236                                <time>2011-11-05T09:57:24Z</time>
3237                        </trkpt>
3238                        <trkpt lat="50.79387841746211" lon="10.217607943341136">
3239                                <ele>355.29998779296875</ele>
3240                                <time>2011-11-05T09:57:25Z</time>
3241                        </trkpt>
3242                        <trkpt lat="50.793922380544245" lon="10.217679105699062">
3243                                <ele>355.29998779296875</ele>
3244                                <time>2011-11-05T09:57:26Z</time>
3245                        </trkpt>
3246                        <trkpt lat="50.7939714146778" lon="10.217739706858993">
3247                                <ele>355.4000244140625</ele>
3248                                <time>2011-11-05T09:57:27Z</time>
3249                        </trkpt>
3250                        <trkpt lat="50.79402514267713" lon="10.217798966914415">
3251                                <ele>355.4000244140625</ele>
3252                                <time>2011-11-05T09:57:28Z</time>
3253                        </trkpt>
3254                        <trkpt lat="50.79407375771552" lon="10.21785831078887">
3255                                <ele>355.20001220703125</ele>
3256                                <time>2011-11-05T09:57:29Z</time>
3257                        </trkpt>
3258                        <trkpt lat="50.79412731807679" lon="10.217921007424593">
3259                                <ele>355.20001220703125</ele>
3260                                <time>2011-11-05T09:57:30Z</time>
3261                        </trkpt>
3262                        <trkpt lat="50.794194247573614" lon="10.217982195317745">
3263                                <ele>355.0999755859375</ele>
3264                                <time>2011-11-05T09:57:31Z</time>
3265                        </trkpt>
3266                        <trkpt lat="50.79426528420299" lon="10.218041455373168">
3267                                <ele>355.5</ele>
3268                                <time>2011-11-05T09:57:32Z</time>
3269                        </trkpt>
3270                        <trkpt lat="50.7943416852504" lon="10.218107420951128">
3271                                <ele>355.5999755859375</ele>
3272                                <time>2011-11-05T09:57:33Z</time>
3273                        </trkpt>
3274                        <trkpt lat="50.79442416317761" lon="10.218171626329422">
3275                                <ele>355.5999755859375</ele>
3276                                <time>2011-11-05T09:57:34Z</time>
3277                        </trkpt>
3278                        <trkpt lat="50.79451368190348" lon="10.218239352107048">
3279                                <ele>355.4000244140625</ele>
3280                                <time>2011-11-05T09:57:35Z</time>
3281                        </trkpt>
3282                        <trkpt lat="50.79461024142802" lon="10.218316800892353">
3283                                <ele>355.79998779296875</ele>
3284                                <time>2011-11-05T09:57:36Z</time>
3285                        </trkpt>
3286                        <trkpt lat="50.79471262637526" lon="10.218397350981832">
3287                                <ele>356.0</ele>
3288                                <time>2011-11-05T09:57:37Z</time>
3289                        </trkpt>
3290                        <trkpt lat="50.7948210882023" lon="10.218483936041594">
3291                                <ele>356.0999755859375</ele>
3292                                <time>2011-11-05T09:57:38Z</time>
3293                        </trkpt>
3294                        <trkpt lat="50.794932818971574" lon="10.218572029843926">
3295                                <ele>356.20001220703125</ele>
3296                                <time>2011-11-05T09:57:39Z</time>
3297                        </trkpt>
3298                        <trkpt lat="50.79504739958793" lon="10.218659872189164">
3299                                <ele>356.29998779296875</ele>
3300                                <time>2011-11-05T09:57:40Z</time>
3301                        </trkpt>
3302                        <trkpt lat="50.79516483005136" lon="10.2187495585531">
3303                                <ele>356.4000244140625</ele>
3304                                <time>2011-11-05T09:57:41Z</time>
3305                        </trkpt>
3306                        <trkpt lat="50.79529001377523" lon="10.218831785023212">
3307                                <ele>356.9000244140625</ele>
3308                                <time>2011-11-05T09:57:42Z</time>
3309                        </trkpt>
3310                        <trkpt lat="50.79541423358023" lon="10.218912921845913">
3311                                <ele>356.79998779296875</ele>
3312                                <time>2011-11-05T09:57:43Z</time>
3313                        </trkpt>
3314                        <trkpt lat="50.79553912393749" lon="10.21898752078414">
3315                                <ele>356.5999755859375</ele>
3316                                <time>2011-11-05T09:57:44Z</time>
3317                        </trkpt>
3318                        <trkpt lat="50.79566736705601" lon="10.219058515504003">
3319                                <ele>356.5999755859375</ele>
3320                                <time>2011-11-05T09:57:45Z</time>
3321                        </trkpt>
3322                        <trkpt lat="50.79580005258322" lon="10.219128420576453">
3323                                <ele>356.5</ele>
3324                                <time>2011-11-05T09:57:46Z</time>
3325                        </trkpt>
3326                        <trkpt lat="50.7959363842383" lon="10.219199918210506">
3327                                <ele>356.4000244140625</ele>
3328                                <time>2011-11-05T09:57:47Z</time>
3329                        </trkpt>
3330                        <trkpt lat="50.796075775288045" lon="10.219269152730703">
3331                                <ele>356.5999755859375</ele>
3332                                <time>2011-11-05T09:57:48Z</time>
3333                        </trkpt>
3334                        <trkpt lat="50.79621797427535" lon="10.219337800517678">
3335                                <ele>356.70001220703125</ele>
3336                                <time>2011-11-05T09:57:49Z</time>
3337                        </trkpt>
3338                        <trkpt lat="50.79636197537184" lon="10.219409465789795">
3339                                <ele>356.70001220703125</ele>
3340                                <time>2011-11-05T09:57:50Z</time>
3341                        </trkpt>
3342                        <trkpt lat="50.79650895204395" lon="10.219483897089958">
3343                                <ele>356.5999755859375</ele>
3344                                <time>2011-11-05T09:57:51Z</time>
3345                        </trkpt>
3346                        <trkpt lat="50.79665421042591" lon="10.219561848789454">
3347                                <ele>356.4000244140625</ele>
3348                                <time>2011-11-05T09:57:52Z</time>
3349                        </trkpt>
3350                        <trkpt lat="50.796798379160464" lon="10.219634771347046">
3351                                <ele>356.0999755859375</ele>
3352                                <time>2011-11-05T09:57:53Z</time>
3353                        </trkpt>
3354                        <trkpt lat="50.796941625885665" lon="10.219709454104304">
3355                                <ele>355.79998779296875</ele>
3356                                <time>2011-11-05T09:57:54Z</time>
3357                        </trkpt>
3358                        <trkpt lat="50.79709011130035" lon="10.219792937859893">
3359                                <ele>355.5</ele>
3360                                <time>2011-11-05T09:57:55Z</time>
3361                        </trkpt>
3362                        <trkpt lat="50.79723344184458" lon="10.219876002520323">
3363                                <ele>355.20001220703125</ele>
3364                                <time>2011-11-05T09:57:56Z</time>
3365                        </trkpt>
3366                        <trkpt lat="50.79736755229533" lon="10.219961749389768">
3367                                <ele>354.70001220703125</ele>
3368                                <time>2011-11-05T09:57:57Z</time>
3369                        </trkpt>
3370                        <trkpt lat="50.79749047290534" lon="10.220047496259212">
3371                                <ele>354.70001220703125</ele>
3372                                <time>2011-11-05T09:57:58Z</time>
3373                        </trkpt>
3374                        <trkpt lat="50.79760283231735" lon="10.220129890367389">
3375                                <ele>354.4000244140625</ele>
3376                                <time>2011-11-05T09:57:59Z</time>
3377                        </trkpt>
3378                        <trkpt lat="50.797694865614176" lon="10.220194347202778">
3379                                <ele>354.4000244140625</ele>
3380                                <time>2011-11-05T09:58:00Z</time>
3381                        </trkpt>
3382                        <trkpt lat="50.79777164384723" lon="10.220252769067883">
3383                                <ele>354.29998779296875</ele>
3384                                <time>2011-11-05T09:58:01Z</time>
3385                        </trkpt>
3386                        <trkpt lat="50.79783861525357" lon="10.2203019708395">
3387                                <ele>354.29998779296875</ele>
3388                                <time>2011-11-05T09:58:02Z</time>
3389                        </trkpt>
3390                        <trkpt lat="50.797895109280944" lon="10.22034547291696">
3391                                <ele>354.4000244140625</ele>
3392                                <time>2011-11-05T09:58:03Z</time>
3393                        </trkpt>
3394                        <trkpt lat="50.79794368240982" lon="10.22038210183382">
3395                                <ele>354.29998779296875</ele>
3396                                <time>2011-11-05T09:58:04Z</time>
3397                        </trkpt>
3398                        <trkpt lat="50.7979803532362" lon="10.220413031056523">
3399                                <ele>354.5999755859375</ele>
3400                                <time>2011-11-05T09:58:05Z</time>
3401                        </trkpt>
3402                        <trkpt lat="50.79800839070231" lon="10.220438176766038">
3403                                <ele>354.9000244140625</ele>
3404                                <time>2011-11-05T09:58:06Z</time>
3405                        </trkpt>
3406                        <trkpt lat="50.798027333803475" lon="10.220453264191747">
3407                                <ele>355.0</ele>
3408                                <time>2011-11-05T09:58:07Z</time>
3409                        </trkpt>
3410                        <trkpt lat="50.79803680535406" lon="10.220459885895252">
3411                                <ele>355.0999755859375</ele>
3412                                <time>2011-11-05T09:58:08Z</time>
3413                        </trkpt>
3414                        <trkpt lat="50.79803345259279" lon="10.220454689115286">
3415                                <ele>355.0</ele>
3416                                <time>2011-11-05T09:58:09Z</time>
3417                        </trkpt>
3418                        <trkpt lat="50.7980252802372" lon="10.220448318868876">
3419                                <ele>354.79998779296875</ele>
3420                                <time>2011-11-05T09:58:10Z</time>
3421                        </trkpt>
3422                        <trkpt lat="50.7980252802372" lon="10.220448318868876">
3423                                <ele>354.79998779296875</ele>
3424                                <time>2011-11-05T09:58:11Z</time>
3425                        </trkpt>
3426                        <trkpt lat="50.7980252802372" lon="10.220448318868876">
3427                                <ele>354.79998779296875</ele>
3428                                <time>2011-11-05T09:58:12Z</time>
3429                        </trkpt>
3430                        <trkpt lat="50.7980252802372" lon="10.220448318868876">
3431                                <ele>354.79998779296875</ele>
3432                                <time>2011-11-05T09:58:13Z</time>
3433                        </trkpt>
3434                        <trkpt lat="50.7980252802372" lon="10.220448318868876">
3435                                <ele>354.79998779296875</ele>
3436                                <time>2011-11-05T09:58:14Z</time>
3437                        </trkpt>
3438                        <trkpt lat="50.7980252802372" lon="10.220448318868876">
3439                                <ele>354.79998779296875</ele>
3440                                <time>2011-11-05T09:58:15Z</time>
3441                        </trkpt>
3442                        <trkpt lat="50.79799154307693" lon="10.220393082126975">
3443                                <ele>354.0999755859375</ele>
3444                                <time>2011-11-05T09:58:16Z</time>
3445                        </trkpt>
3446                        <trkpt lat="50.79799816478044" lon="10.220405654981732">
3447                                <ele>354.0999755859375</ele>
3448                                <time>2011-11-05T09:58:17Z</time>
3449                        </trkpt>
3450                        <trkpt lat="50.79799816478044" lon="10.220405738800764">
3451                                <ele>354.0999755859375</ele>
3452                                <time>2011-11-05T09:58:18Z</time>
3453                        </trkpt>
3454                        <trkpt lat="50.797998080961406" lon="10.220405738800764">
3455                                <ele>354.0999755859375</ele>
3456                                <time>2011-11-05T09:58:19Z</time>
3457                        </trkpt>
3458                        <trkpt lat="50.797998080961406" lon="10.220405738800764">
3459                                <ele>354.0999755859375</ele>
3460                                <time>2011-11-05T09:58:20Z</time>
3461                        </trkpt>
3462                        <trkpt lat="50.797998080961406" lon="10.220405738800764">
3463                                <ele>354.0999755859375</ele>
3464                                <time>2011-11-05T09:58:21Z</time>
3465                        </trkpt>
3466                        <trkpt lat="50.797998080961406" lon="10.220405738800764">
3467                                <ele>354.0999755859375</ele>
3468                                <time>2011-11-05T09:58:22Z</time>
3469                        </trkpt>
3470                        <trkpt lat="50.797998080961406" lon="10.220405738800764">
3471                                <ele>354.0999755859375</ele>
3472                                <time>2011-11-05T09:58:23Z</time>
3473                        </trkpt>
3474                        <trkpt lat="50.797998080961406" lon="10.220405738800764">
3475                                <ele>354.0999755859375</ele>
3476                                <time>2011-11-05T09:58:24Z</time>
3477                        </trkpt>
3478                        <trkpt lat="50.797998080961406" lon="10.220405738800764">
3479                                <ele>354.0999755859375</ele>
3480                                <time>2011-11-05T09:58:25Z</time>
3481                        </trkpt>
3482                        <trkpt lat="50.797998080961406" lon="10.220405738800764">
3483                                <ele>354.0999755859375</ele>
3484                                <time>2011-11-05T09:58:26Z</time>
3485                        </trkpt>
3486                        <trkpt lat="50.797998080961406" lon="10.220405738800764">
3487                                <ele>354.0999755859375</ele>
3488                                <time>2011-11-05T09:58:27Z</time>
3489                        </trkpt>
3490                        <trkpt lat="50.797998080961406" lon="10.220405738800764">
3491                                <ele>354.0999755859375</ele>
3492                                <time>2011-11-05T09:58:28Z</time>
3493                        </trkpt>
3494                        <trkpt lat="50.797998080961406" lon="10.220405738800764">
3495                                <ele>354.0999755859375</ele>
3496                                <time>2011-11-05T09:58:29Z</time>
3497                        </trkpt>
3498                        <trkpt lat="50.797998080961406" lon="10.220405738800764">
3499                                <ele>354.0999755859375</ele>
3500                                <time>2011-11-05T09:58:30Z</time>
3501                        </trkpt>
3502                        <trkpt lat="50.797998080961406" lon="10.220405738800764">
3503                                <ele>354.0999755859375</ele>
3504                                <time>2011-11-05T09:58:31Z</time>
3505                        </trkpt>
3506                        <trkpt lat="50.797998080961406" lon="10.220405738800764">
3507                                <ele>354.0999755859375</ele>
3508                                <time>2011-11-05T09:58:32Z</time>
3509                        </trkpt>
3510                        <trkpt lat="50.797998080961406" lon="10.220405738800764">
3511                                <ele>354.0999755859375</ele>
3512                                <time>2011-11-05T09:58:33Z</time>
3513                        </trkpt>
3514                        <trkpt lat="50.797998080961406" lon="10.220405738800764">
3515                                <ele>354.0999755859375</ele>
3516                                <time>2011-11-05T09:58:34Z</time>
3517                        </trkpt>
3518                        <trkpt lat="50.797998080961406" lon="10.220405738800764">
3519                                <ele>354.0999755859375</ele>
3520                                <time>2011-11-05T09:58:35Z</time>
3521                        </trkpt>
3522                        <trkpt lat="50.797998080961406" lon="10.220405738800764">
3523                                <ele>354.0999755859375</ele>
3524                                <time>2011-11-05T09:58:36Z</time>
3525                        </trkpt>
3526                        <trkpt lat="50.797998080961406" lon="10.220405738800764">
3527                                <ele>354.0999755859375</ele>
3528                                <time>2011-11-05T09:58:37Z</time>
3529                        </trkpt>
3530                        <trkpt lat="50.797998080961406" lon="10.220405738800764">
3531                                <ele>354.0999755859375</ele>
3532                                <time>2011-11-05T09:58:38Z</time>
3533                        </trkpt>
3534                        <trkpt lat="50.797998080961406" lon="10.220405738800764">
3535                                <ele>354.0999755859375</ele>
3536                                <time>2011-11-05T09:58:39Z</time>
3537                        </trkpt>
3538                        <trkpt lat="50.797998080961406" lon="10.220405738800764">
3539                                <ele>354.0999755859375</ele>
3540                                <time>2011-11-05T09:58:40Z</time>
3541                        </trkpt>
3542                        <trkpt lat="50.797998080961406" lon="10.220405738800764">
3543                                <ele>354.0999755859375</ele>
3544                                <time>2011-11-05T09:58:41Z</time>
3545                        </trkpt>
3546                        <trkpt lat="50.797998080961406" lon="10.220405738800764">
3547                                <ele>354.0999755859375</ele>
3548                                <time>2011-11-05T09:58:42Z</time>
3549                        </trkpt>
3550                        <trkpt lat="50.797998080961406" lon="10.220405738800764">
3551                                <ele>354.0999755859375</ele>
3552                                <time>2011-11-05T09:58:43Z</time>
3553                        </trkpt>
3554                        <trkpt lat="50.797998080961406" lon="10.220405738800764">
3555                                <ele>354.0999755859375</ele>
3556                                <time>2011-11-05T09:58:44Z</time>
3557                        </trkpt>
3558                        <trkpt lat="50.797998080961406" lon="10.220405738800764">
3559                                <ele>354.0999755859375</ele>
3560                                <time>2011-11-05T09:58:45Z</time>
3561                        </trkpt>
3562                        <trkpt lat="50.79801429994404" lon="10.220444798469543">
3563                                <ele>354.5</ele>
3564                                <time>2011-11-05T09:58:46Z</time>
3565                        </trkpt>
3566                        <trkpt lat="50.79803554806858" lon="10.220461897552013">
3567                                <ele>354.5</ele>
3568                                <time>2011-11-05T09:58:47Z</time>
3569                        </trkpt>
3570                        <trkpt lat="50.79806635156274" lon="10.220487210899591">
3571                                <ele>354.5999755859375</ele>
3572                                <time>2011-11-05T09:58:48Z</time>
3573                        </trkpt>
3574                        <trkpt lat="50.79810863826424" lon="10.220521660521626">
3575                                <ele>354.5999755859375</ele>
3576                                <time>2011-11-05T09:58:49Z</time>
3577                        </trkpt>
3578                        <trkpt lat="50.798156624659896" lon="10.220555104315281">
3579                                <ele>354.5</ele>
3580                                <time>2011-11-05T09:58:50Z</time>
3581                        </trkpt>
3582                        <trkpt lat="50.79820829909295" lon="10.220590643584728">
3583                                <ele>354.5</ele>
3584                                <time>2011-11-05T09:58:51Z</time>
3585                        </trkpt>
3586                        <trkpt lat="50.79826051834971" lon="10.220633391290903">
3587                                <ele>354.4000244140625</ele>
3588                                <time>2011-11-05T09:58:52Z</time>
3589                        </trkpt>
3590                        <trkpt lat="50.79831877257675" lon="10.220682006329298">
3591                                <ele>354.29998779296875</ele>
3592                                <time>2011-11-05T09:58:53Z</time>
3593                        </trkpt>
3594                        <trkpt lat="50.798380421474576" lon="10.220733303576708">
3595                                <ele>354.5</ele>
3596                                <time>2011-11-05T09:58:54Z</time>
3597                        </trkpt>
3598                        <trkpt lat="50.7984481472522" lon="10.220788959413767">
3599                                <ele>354.29998779296875</ele>
3600                                <time>2011-11-05T09:58:55Z</time>
3601                        </trkpt>
3602                        <trkpt lat="50.798517423681915" lon="10.220844028517604">
3603                                <ele>354.0</ele>
3604                                <time>2011-11-05T09:58:56Z</time>
3605                        </trkpt>
3606                        <trkpt lat="50.79858464654535" lon="10.220897672697902">
3607                                <ele>353.70001220703125</ele>
3608                                <time>2011-11-05T09:58:57Z</time>
3609                        </trkpt>
3610                        <trkpt lat="50.79865698236972" lon="10.220954502001405">
3611                                <ele>353.5</ele>
3612                                <time>2011-11-05T09:58:58Z</time>
3613                        </trkpt>
3614                        <trkpt lat="50.79872793518007" lon="10.221008732914925">
3615                                <ele>353.4000244140625</ele>
3616                                <time>2011-11-05T09:58:59Z</time>
3617                        </trkpt>
3618                        <trkpt lat="50.79880701843649" lon="10.221061371266842">
3619                                <ele>353.29998779296875</ele>
3620                                <time>2011-11-05T09:59:00Z</time>
3621                        </trkpt>
3622                        <trkpt lat="50.79889087937772" lon="10.221106046810746">
3623                                <ele>353.0999755859375</ele>
3624                                <time>2011-11-05T09:59:01Z</time>
3625                        </trkpt>
3626                        <trkpt lat="50.798977757804096" lon="10.22115265019238">
3627                                <ele>353.20001220703125</ele>
3628                                <time>2011-11-05T09:59:02Z</time>
3629                        </trkpt>
3630                        <trkpt lat="50.79907167702913" lon="10.221200846135616">
3631                                <ele>353.20001220703125</ele>
3632                                <time>2011-11-05T09:59:03Z</time>
3633                        </trkpt>
3634                        <trkpt lat="50.79917355906218" lon="10.221245437860489">
3635                                <ele>353.29998779296875</ele>
3636                                <time>2011-11-05T09:59:04Z</time>
3637                        </trkpt>
3638                        <trkpt lat="50.79927921295166" lon="10.221292041242123">
3639                                <ele>353.20001220703125</ele>
3640                                <time>2011-11-05T09:59:05Z</time>
3641                        </trkpt>
3642                        <trkpt lat="50.79938809387386" lon="10.221336800605059">
3643                                <ele>353.20001220703125</ele>
3644                                <time>2011-11-05T09:59:06Z</time>
3645                        </trkpt>
3646                        <trkpt lat="50.79951143357903" lon="10.221368903294206">
3647                                <ele>353.5</ele>
3648                                <time>2011-11-05T09:59:07Z</time>
3649                        </trkpt>
3650                        <trkpt lat="50.7996511599049" lon="10.221397569403052">
3651                                <ele>354.20001220703125</ele>
3652                                <time>2011-11-05T09:59:08Z</time>
3653                        </trkpt>
3654                        <trkpt lat="50.799786443822086" lon="10.22143704816699">
3655                                <ele>355.0</ele>
3656                                <time>2011-11-05T09:59:09Z</time>
3657                        </trkpt>
3658                        <trkpt lat="50.799927092157304" lon="10.22147560492158">
3659                                <ele>354.9000244140625</ele>
3660                                <time>2011-11-05T09:59:10Z</time>
3661                        </trkpt>
3662                        <trkpt lat="50.800071470439434" lon="10.221520531922579">
3663                                <ele>355.20001220703125</ele>
3664                                <time>2011-11-05T09:59:11Z</time>
3665                        </trkpt>
3666                        <trkpt lat="50.800214423798025" lon="10.221555903553963">
3667                                <ele>355.79998779296875</ele>
3668                                <time>2011-11-05T09:59:12Z</time>
3669                        </trkpt>
3670                        <trkpt lat="50.80034723505378" lon="10.221584318205714">
3671                                <ele>356.20001220703125</ele>
3672                                <time>2011-11-05T09:59:13Z</time>
3673                        </trkpt>
3674                        <trkpt lat="50.80048197414726" lon="10.221609631553292">
3675                                <ele>356.20001220703125</ele>
3676                                <time>2011-11-05T09:59:14Z</time>
3677                        </trkpt>
3678                        <trkpt lat="50.800620946101844" lon="10.221628407016397">
3679                                <ele>356.29998779296875</ele>
3680                                <time>2011-11-05T09:59:15Z</time>
3681                        </trkpt>
3682                        <trkpt lat="50.8007640670985" lon="10.22164911031723">
3683                                <ele>356.4000244140625</ele>
3684                                <time>2011-11-05T09:59:16Z</time>
3685                        </trkpt>
3686                        <trkpt lat="50.800904422067106" lon="10.221674256026745">
3687                                <ele>356.9000244140625</ele>
3688                                <time>2011-11-05T09:59:17Z</time>
3689                        </trkpt>
3690                        <trkpt lat="50.80104481894523" lon="10.22169797681272">
3691                                <ele>357.29998779296875</ele>
3692                                <time>2011-11-05T09:59:18Z</time>
3693                        </trkpt>
3694                        <trkpt lat="50.8011689549312" lon="10.221724547445774">
3695                                <ele>357.70001220703125</ele>
3696                                <time>2011-11-05T09:59:19Z</time>
3697                        </trkpt>
3698                        <trkpt lat="50.80129736568779" lon="10.221770480275154">
3699                                <ele>358.20001220703125</ele>
3700                                <time>2011-11-05T09:59:20Z</time>
3701                        </trkpt>
3702                        <trkpt lat="50.801428710110486" lon="10.221825800836086">
3703                                <ele>358.9000244140625</ele>
3704                                <time>2011-11-05T09:59:21Z</time>
3705                        </trkpt>
3706                        <trkpt lat="50.80155557021499" lon="10.221884222701192">
3707                                <ele>359.29998779296875</ele>
3708                                <time>2011-11-05T09:59:22Z</time>
3709                        </trkpt>
3710                        <trkpt lat="50.80168901011348" lon="10.221943650394678">
3711                                <ele>359.20001220703125</ele>
3712                                <time>2011-11-05T09:59:23Z</time>
3713                        </trkpt>
3714                        <trkpt lat="50.801823497749865" lon="10.222006347030401">
3715                                <ele>359.5</ele>
3716                                <time>2011-11-05T09:59:24Z</time>
3717                        </trkpt>
3718                        <trkpt lat="50.801951489411294" lon="10.222068624570966">
3719                                <ele>360.20001220703125</ele>
3720                                <time>2011-11-05T09:59:25Z</time>
3721                        </trkpt>
3722                        <trkpt lat="50.80207156017423" lon="10.22213526070118">
3723                                <ele>360.70001220703125</ele>
3724                                <time>2011-11-05T09:59:26Z</time>
3725                        </trkpt>
3726                        <trkpt lat="50.80219171475619" lon="10.222199214622378">
3727                                <ele>361.20001220703125</ele>
3728                                <time>2011-11-05T09:59:27Z</time>
3729                        </trkpt>
3730                        <trkpt lat="50.802315725013614" lon="10.222267359495163">
3731                                <ele>361.0</ele>
3732                                <time>2011-11-05T09:59:28Z</time>
3733                        </trkpt>
3734                        <trkpt lat="50.80243512522429" lon="10.222347741946578">
3735                                <ele>360.70001220703125</ele>
3736                                <time>2011-11-05T09:59:29Z</time>
3737                        </trkpt>
3738                        <trkpt lat="50.802554609254" lon="10.222433656454086">
3739                                <ele>360.5</ele>
3740                                <time>2011-11-05T09:59:30Z</time>
3741                        </trkpt>
3742                        <trkpt lat="50.80267208162695" lon="10.222527282312512">
3743                                <ele>360.0999755859375</ele>
3744                                <time>2011-11-05T09:59:31Z</time>
3745                        </trkpt>
3746                        <trkpt lat="50.80278938636184" lon="10.222623841837049">
3747                                <ele>360.0</ele>
3748                                <time>2011-11-05T09:59:32Z</time>
3749                        </trkpt>
3750                        <trkpt lat="50.80290597863495" lon="10.222722413018346">
3751                                <ele>359.9000244140625</ele>
3752                                <time>2011-11-05T09:59:33Z</time>
3753                        </trkpt>
3754                        <trkpt lat="50.80302621703595" lon="10.22281939163804">
3755                                <ele>359.4000244140625</ele>
3756                                <time>2011-11-05T09:59:34Z</time>
3757                        </trkpt>
3758                        <trkpt lat="50.80315077211708" lon="10.22291075438261">
3759                                <ele>359.20001220703125</ele>
3760                                <time>2011-11-05T09:59:35Z</time>
3761                        </trkpt>
3762                        <trkpt lat="50.80327268689871" lon="10.223008738830686">
3763                                <ele>359.0999755859375</ele>
3764                                <time>2011-11-05T09:59:36Z</time>
3765                        </trkpt>
3766                        <trkpt lat="50.80339841544628" lon="10.22310622036457">
3767                                <ele>358.5</ele>
3768                                <time>2011-11-05T09:59:37Z</time>
3769                        </trkpt>
3770                        <trkpt lat="50.80350880511105" lon="10.223235385492444">
3771                                <ele>359.29998779296875</ele>
3772                                <time>2011-11-05T09:59:38Z</time>
3773                        </trkpt>
3774                        <trkpt lat="50.80361366271973" lon="10.223354743793607">
3775                                <ele>359.0</ele>
3776                                <time>2011-11-05T09:59:39Z</time>
3777                        </trkpt>
3778                        <trkpt lat="50.803719903342426" lon="10.22348198108375">
3779                                <ele>358.70001220703125</ele>
3780                                <time>2011-11-05T09:59:40Z</time>
3781                        </trkpt>
3782                        <trkpt lat="50.80382727552205" lon="10.223615169525146">
3783                                <ele>357.4000244140625</ele>
3784                                <time>2011-11-05T09:59:41Z</time>
3785                        </trkpt>
3786                        <trkpt lat="50.80393225885928" lon="10.22373897023499">
3787                                <ele>356.20001220703125</ele>
3788                                <time>2011-11-05T09:59:42Z</time>
3789                        </trkpt>
3790                        <trkpt lat="50.80403279978782" lon="10.223852209746838">
3791                                <ele>355.5</ele>
3792                                <time>2011-11-05T09:59:43Z</time>
3793                        </trkpt>
3794                        <trkpt lat="50.804138369858265" lon="10.22397399879992">
3795                                <ele>354.70001220703125</ele>
3796                                <time>2011-11-05T09:59:44Z</time>
3797                        </trkpt>
3798                        <trkpt lat="50.80424565821886" lon="10.22409855388105">
3799                                <ele>353.70001220703125</ele>
3800                                <time>2011-11-05T09:59:45Z</time>
3801                        </trkpt>
3802                        <trkpt lat="50.804354161955416" lon="10.224216571077704">
3803                                <ele>353.5</ele>
3804                                <time>2011-11-05T09:59:46Z</time>
3805                        </trkpt>
3806                        <trkpt lat="50.80446145031601" lon="10.224336683750153">
3807                                <ele>353.5</ele>
3808                                <time>2011-11-05T09:59:47Z</time>
3809                        </trkpt>
3810                        <trkpt lat="50.80456848721951" lon="10.22444942034781">
3811                                <ele>353.70001220703125</ele>
3812                                <time>2011-11-05T09:59:48Z</time>
3813                        </trkpt>
3814                        <trkpt lat="50.8046760270372" lon="10.224570455029607">
3815                                <ele>352.9000244140625</ele>
3816                                <time>2011-11-05T09:59:49Z</time>
3817                        </trkpt>
3818                        <trkpt lat="50.80477464012802" lon="10.22468981333077">
3819                                <ele>351.70001220703125</ele>
3820                                <time>2011-11-05T09:59:50Z</time>
3821                        </trkpt>
3822                        <trkpt lat="50.804887167178094" lon="10.224790899083018">
3823                                <ele>350.9000244140625</ele>
3824                                <time>2011-11-05T09:59:51Z</time>
3825                        </trkpt>
3826                        <trkpt lat="50.804999568499625" lon="10.224861642345786">
3827                                <ele>349.79998779296875</ele>
3828                                <time>2011-11-05T09:59:52Z</time>
3829                        </trkpt>
3830                        <trkpt lat="50.805110963992774" lon="10.224903300404549">
3831                                <ele>349.0</ele>
3832                                <time>2011-11-05T09:59:53Z</time>
3833                        </trkpt>
3834                        <trkpt lat="50.80524494871497" lon="10.224972199648619">
3835                                <ele>348.0999755859375</ele>
3836                                <time>2011-11-05T09:59:54Z</time>
3837                        </trkpt>
3838                        <trkpt lat="50.8053858904168" lon="10.225018383935094">
3839                                <ele>347.0</ele>
3840                                <time>2011-11-05T09:59:55Z</time>
3841                        </trkpt>
3842                        <trkpt lat="50.8055317774415" lon="10.22504847496748">
3843                                <ele>345.4000244140625</ele>
3844                                <time>2011-11-05T09:59:56Z</time>
3845                        </trkpt>
3846                        <trkpt lat="50.805670665577054" lon="10.225058030337095">
3847                                <ele>343.5</ele>
3848                                <time>2011-11-05T09:59:57Z</time>
3849                        </trkpt>
3850                        <trkpt lat="50.80581659451127" lon="10.22510563954711">
3851                                <ele>342.29998779296875</ele>
3852                                <time>2011-11-05T09:59:58Z</time>
3853                        </trkpt>
3854                        <trkpt lat="50.80596390645951" lon="10.225142603740096">
3855                                <ele>341.29998779296875</ele>
3856                                <time>2011-11-05T09:59:59Z</time>
3857                        </trkpt>
3858                        <trkpt lat="50.806102165952325" lon="10.22518677636981">
3859                                <ele>340.5</ele>
3860                                <time>2011-11-05T10:00:00Z</time>
3861                        </trkpt>
3862                        <trkpt lat="50.80623078625649" lon="10.225231284275651">
3863                                <ele>339.70001220703125</ele>
3864                                <time>2011-11-05T10:00:01Z</time>
3865                        </trkpt>
3866                        <trkpt lat="50.80635504797101" lon="10.225272355601192">
3867                                <ele>338.79998779296875</ele>
3868                                <time>2011-11-05T10:00:02Z</time>
3869                        </trkpt>
3870                        <trkpt lat="50.80647972878069" lon="10.22531870752573">
3871                                <ele>338.0999755859375</ele>
3872                                <time>2011-11-05T10:00:03Z</time>
3873                        </trkpt>
3874                        <trkpt lat="50.806600344367325" lon="10.225379727780819">
3875                                <ele>337.5</ele>
3876                                <time>2011-11-05T10:00:04Z</time>
3877                        </trkpt>
3878                        <trkpt lat="50.80671069212258" lon="10.225461702793837">
3879                                <ele>336.70001220703125</ele>
3880                                <time>2011-11-05T10:00:05Z</time>
3881                        </trkpt>
3882                        <trkpt lat="50.806814040988684" lon="10.225568739697337">
3883                                <ele>335.5999755859375</ele>
3884                                <time>2011-11-05T10:00:06Z</time>
3885                        </trkpt>
3886                        <trkpt lat="50.806917138397694" lon="10.225687343627214">
3887                                <ele>334.29998779296875</ele>
3888                                <time>2011-11-05T10:00:07Z</time>
3889                        </trkpt>
3890                        <trkpt lat="50.807015374302864" lon="10.225804941728711">
3891                                <ele>333.0999755859375</ele>
3892                                <time>2011-11-05T10:00:08Z</time>
3893                        </trkpt>
3894                        <trkpt lat="50.80711101181805" lon="10.225912230089307">
3895                                <ele>332.0</ele>
3896                                <time>2011-11-05T10:00:09Z</time>
3897                        </trkpt>
3898                        <trkpt lat="50.80721561796963" lon="10.226038629189134">
3899                                <ele>331.20001220703125</ele>
3900                                <time>2011-11-05T10:00:10Z</time>
3901                        </trkpt>
3902                        <trkpt lat="50.80731896683574" lon="10.226161424070597">
3903                                <ele>330.20001220703125</ele>
3904                                <time>2011-11-05T10:00:11Z</time>
3905                        </trkpt>
3906                        <trkpt lat="50.807421184144914" lon="10.226281452924013">
3907                                <ele>328.70001220703125</ele>
3908                                <time>2011-11-05T10:00:12Z</time>
3909                        </trkpt>
3910                        <trkpt lat="50.807531154714525" lon="10.226400475949049">
3911                                <ele>327.5</ele>
3912                                <time>2011-11-05T10:00:13Z</time>
3913                        </trkpt>
3914                        <trkpt lat="50.807634964585304" lon="10.226508602499962">
3915                                <ele>326.5999755859375</ele>
3916                                <time>2011-11-05T10:00:14Z</time>
3917                        </trkpt>
3918                        <trkpt lat="50.8077380200848" lon="10.226609352976084">
3919                                <ele>325.5</ele>
3920                                <time>2011-11-05T10:00:15Z</time>
3921                        </trkpt>
3922                        <trkpt lat="50.80783981829882" lon="10.226711025461555">
3923                                <ele>324.5</ele>
3924                                <time>2011-11-05T10:00:16Z</time>
3925                        </trkpt>
3926                        <trkpt lat="50.80794186796993" lon="10.226817727088928">
3927                                <ele>323.5</ele>
3928                                <time>2011-11-05T10:00:17Z</time>
3929                        </trkpt>
3930                        <trkpt lat="50.808038553223014" lon="10.226927194744349">
3931                                <ele>322.4000244140625</ele>
3932                                <time>2011-11-05T10:00:18Z</time>
3933                        </trkpt>
3934                        <trkpt lat="50.808132430538535" lon="10.22703967988491">
3935                                <ele>321.79998779296875</ele>
3936                                <time>2011-11-05T10:00:19Z</time>
3937                        </trkpt>
3938                        <trkpt lat="50.80823075026274" lon="10.227170772850513">
3939                                <ele>321.5999755859375</ele>
3940                                <time>2011-11-05T10:00:20Z</time>
3941                        </trkpt>
3942                        <trkpt lat="50.808311928994954" lon="10.227269511669874">
3943                                <ele>322.79998779296875</ele>
3944                                <time>2011-11-05T10:00:21Z</time>
3945                        </trkpt>
3946                        <trkpt lat="50.80841544549912" lon="10.227410243824124">
3947                                <ele>322.5</ele>
3948                                <time>2011-11-05T10:00:22Z</time>
3949                        </trkpt>
3950                        <trkpt lat="50.80851544160396" lon="10.227559357881546">
3951                                <ele>321.29998779296875</ele>
3952                                <time>2011-11-05T10:00:23Z</time>
3953                        </trkpt>
3954                        <trkpt lat="50.80860558897257" lon="10.227704364806414">
3955                                <ele>320.5</ele>
3956                                <time>2011-11-05T10:00:24Z</time>
3957                        </trkpt>
3958                        <trkpt lat="50.80869401805103" lon="10.22784006781876">
3959                                <ele>320.29998779296875</ele>
3960                                <time>2011-11-05T10:00:25Z</time>
3961                        </trkpt>
3962                        <trkpt lat="50.8087782561779" lon="10.227970657870173">
3963                                <ele>320.29998779296875</ele>
3964                                <time>2011-11-05T10:00:26Z</time>
3965                        </trkpt>
3966                        <trkpt lat="50.8088562078774" lon="10.228090770542622">
3967                                <ele>320.0999755859375</ele>
3968                                <time>2011-11-05T10:00:27Z</time>
3969                        </trkpt>
3970                        <trkpt lat="50.80892326310277" lon="10.228189174085855">
3971                                <ele>320.9000244140625</ele>
3972                                <time>2011-11-05T10:00:28Z</time>
3973                        </trkpt>
3974                        <trkpt lat="50.80898013431579" lon="10.22825874388218">
3975                                <ele>322.20001220703125</ele>
3976                                <time>2011-11-05T10:00:29Z</time>
3977                        </trkpt>
3978                        <trkpt lat="50.80903122201562" lon="10.228296965360641">
3979                                <ele>323.0999755859375</ele>
3980                                <time>2011-11-05T10:00:30Z</time>
3981                        </trkpt>
3982                        <trkpt lat="50.8090813877061" lon="10.228283638134599">
3983                                <ele>323.5</ele>
3984                                <time>2011-11-05T10:00:31Z</time>
3985                        </trkpt>
3986                        <trkpt lat="50.809115837328136" lon="10.228199064731598">
3987                                <ele>323.9000244140625</ele>
3988                                <time>2011-11-05T10:00:32Z</time>
3989                        </trkpt>
3990                        <trkpt lat="50.80915234051645" lon="10.228085070848465">
3991                                <ele>324.0</ele>
3992                                <time>2011-11-05T10:00:33Z</time>
3993                        </trkpt>
3994                        <trkpt lat="50.80920879263431" lon="10.227951798588037">
3995                                <ele>324.0</ele>
3996                                <time>2011-11-05T10:00:34Z</time>
3997                        </trkpt>
3998                        <trkpt lat="50.80926281400025" lon="10.227828919887543">
3999                                <ele>323.79998779296875</ele>
4000                                <time>2011-11-05T10:00:35Z</time>
4001                        </trkpt>
4002                        <trkpt lat="50.809317170642316" lon="10.227712746709585">
4003                                <ele>323.5</ele>
4004                                <time>2011-11-05T10:00:36Z</time>
4005                        </trkpt>
4006                        <trkpt lat="50.80937291029841" lon="10.22759372368455">
4007                                <ele>323.20001220703125</ele>
4008                                <time>2011-11-05T10:00:37Z</time>
4009                        </trkpt>
4010                        <trkpt lat="50.80942751839757" lon="10.227466821670532">
4011                                <ele>322.70001220703125</ele>
4012                                <time>2011-11-05T10:00:38Z</time>
4013                        </trkpt>
4014                        <trkpt lat="50.80948174931109" lon="10.227337824180722">
4015                                <ele>322.0</ele>
4016                                <time>2011-11-05T10:00:39Z</time>
4017                        </trkpt>
4018                        <trkpt lat="50.809536525048316" lon="10.227214442566037">
4019                                <ele>321.0999755859375</ele>
4020                                <time>2011-11-05T10:00:40Z</time>
4021                        </trkpt>
4022                        <trkpt lat="50.80959272570908" lon="10.22708561271429">
4023                                <ele>320.0999755859375</ele>
4024                                <time>2011-11-05T10:00:41Z</time>
4025                        </trkpt>
4026                        <trkpt lat="50.80964268185198" lon="10.226960889995098">
4027                                <ele>319.79998779296875</ele>
4028                                <time>2011-11-05T10:00:42Z</time>
4029                        </trkpt>
4030                        <trkpt lat="50.809688488952816" lon="10.226838598027825">
4031                                <ele>319.4000244140625</ele>
4032                                <time>2011-11-05T10:00:43Z</time>
4033                        </trkpt>
4034                        <trkpt lat="50.80973810981959" lon="10.226714378222823">
4035                                <ele>318.5</ele>
4036                                <time>2011-11-05T10:00:44Z</time>
4037                        </trkpt>
4038                        <trkpt lat="50.8097878145054" lon="10.226575825363398">
4039                                <ele>317.70001220703125</ele>
4040                                <time>2011-11-05T10:00:45Z</time>
4041                        </trkpt>
4042                        <trkpt lat="50.809843386523426" lon="10.22642645984888">
4043                                <ele>316.79998779296875</ele>
4044                                <time>2011-11-05T10:00:46Z</time>
4045                        </trkpt>
4046                        <trkpt lat="50.809894474223256" lon="10.226278938353062">
4047                                <ele>316.5</ele>
4048                                <time>2011-11-05T10:00:47Z</time>
4049                        </trkpt>
4050                        <trkpt lat="50.809946483932436" lon="10.226126136258245">
4051                                <ele>316.4000244140625</ele>
4052                                <time>2011-11-05T10:00:48Z</time>
4053                        </trkpt>
4054                        <trkpt lat="50.80998499877751" lon="10.225979033857584">
4055                                <ele>315.5</ele>
4056                                <time>2011-11-05T10:00:49Z</time>
4057                        </trkpt>
4058                        <trkpt lat="50.810018233023584" lon="10.225811647251248">
4059                                <ele>315.5</ele>
4060                                <time>2011-11-05T10:00:50Z</time>
4061                        </trkpt>
4062                        <trkpt lat="50.810056161135435" lon="10.225647948682308">
4063                                <ele>314.79998779296875</ele>
4064                                <time>2011-11-05T10:00:51Z</time>
4065                        </trkpt>
4066                        <trkpt lat="50.810106452554464" lon="10.225485255941749">
4067                                <ele>314.4000244140625</ele>
4068                                <time>2011-11-05T10:00:52Z</time>
4069                        </trkpt>
4070                        <trkpt lat="50.81017354968935" lon="10.225349720567465">
4071                                <ele>313.4000244140625</ele>
4072                                <time>2011-11-05T10:00:53Z</time>
4073                        </trkpt>
4074                        <trkpt lat="50.81022304482758" lon="10.225247042253613">
4075                                <ele>312.70001220703125</ele>
4076                                <time>2011-11-05T10:00:54Z</time>
4077                        </trkpt>
4078                        <trkpt lat="50.81027354579419" lon="10.225145369768143">
4079                                <ele>312.5</ele>
4080                                <time>2011-11-05T10:00:55Z</time>
4081                        </trkpt>
4082                        <trkpt lat="50.81032232847065" lon="10.225058952346444">
4083                                <ele>313.29998779296875</ele>
4084                                <time>2011-11-05T10:00:56Z</time>
4085                        </trkpt>
4086                        <trkpt lat="50.810374463908374" lon="10.225001452490687">
4087                                <ele>314.0</ele>
4088                                <time>2011-11-05T10:00:57Z</time>
4089                        </trkpt>
4090                        <trkpt lat="50.81044273450971" lon="10.225024251267314">
4091                                <ele>314.5999755859375</ele>
4092                                <time>2011-11-05T10:00:58Z</time>
4093                        </trkpt>
4094                        <trkpt lat="50.81049922853708" lon="10.225062556564808">
4095                                <ele>314.5</ele>
4096                                <time>2011-11-05T10:00:59Z</time>
4097                        </trkpt>
4098                        <trkpt lat="50.81055375281721" lon="10.225093821063638">
4099                                <ele>314.29998779296875</ele>
4100                                <time>2011-11-05T10:01:00Z</time>
4101                        </trkpt>
4102                        <trkpt lat="50.8106089476496" lon="10.22509097121656">
4103                                <ele>313.20001220703125</ele>
4104                                <time>2011-11-05T10:01:01Z</time>
4105                        </trkpt>
4106                        <trkpt lat="50.81065232399851" lon="10.225070184096694">
4107                                <ele>312.70001220703125</ele>
4108                                <time>2011-11-05T10:01:02Z</time>
4109                        </trkpt>
4110                        <trkpt lat="50.81070546526462" lon="10.225032968446612">
4111                                <ele>313.5</ele>
4112                                <time>2011-11-05T10:01:03Z</time>
4113                        </trkpt>
4114                        <trkpt lat="50.8107754541561" lon="10.224983682855964">
4115                                <ele>314.79998779296875</ele>
4116                                <time>2011-11-05T10:01:04Z</time>
4117                        </trkpt>
4118                        <trkpt lat="50.81086958292872" lon="10.224933559074998">
4119                                <ele>315.29998779296875</ele>
4120                                <time>2011-11-05T10:01:05Z</time>
4121                        </trkpt>
4122                        <trkpt lat="50.81095625180751" lon="10.224881172180176">
4123                                <ele>315.0</ele>
4124                                <time>2011-11-05T10:01:06Z</time>
4125                        </trkpt>
4126                        <trkpt lat="50.81104497425258" lon="10.224819732829928">
4127                                <ele>315.4000244140625</ele>
4128                                <time>2011-11-05T10:01:07Z</time>
4129                        </trkpt>
4130                        <trkpt lat="50.81111064646393" lon="10.22474848665297">
4131                                <ele>316.20001220703125</ele>
4132                                <time>2011-11-05T10:01:08Z</time>
4133                        </trkpt>
4134                        <trkpt lat="50.81117573194206" lon="10.224692998453975">
4135                                <ele>316.5</ele>
4136                                <time>2011-11-05T10:01:09Z</time>
4137                        </trkpt>
4138                        <trkpt lat="50.811239392496645" lon="10.224648490548134">
4139                                <ele>316.9000244140625</ele>
4140                                <time>2011-11-05T10:01:10Z</time>
4141                        </trkpt>
4142                        <trkpt lat="50.811295132152736" lon="10.224611861631274">
4143                                <ele>317.5999755859375</ele>
4144                                <time>2011-11-05T10:01:11Z</time>
4145                        </trkpt>
4146                        <trkpt lat="50.811352506279945" lon="10.224582608789206">
4147                                <ele>318.0</ele>
4148                                <time>2011-11-05T10:01:12Z</time>
4149                        </trkpt>
4150                        <trkpt lat="50.81141549628228" lon="10.224551763385534">
4151                                <ele>318.5</ele>
4152                                <time>2011-11-05T10:01:13Z</time>
4153                        </trkpt>
4154                        <trkpt lat="50.811461387202144" lon="10.224509602412581">
4155                                <ele>318.70001220703125</ele>
4156                                <time>2011-11-05T10:01:14Z</time>
4157                        </trkpt>
4158                        <trkpt lat="50.81150019541383" lon="10.22447632625699">
4159                                <ele>318.79998779296875</ele>
4160                                <time>2011-11-05T10:01:15Z</time>
4161                        </trkpt>
4162                        <trkpt lat="50.81151951570064" lon="10.224404828622937">
4163                                <ele>319.0</ele>
4164                                <time>2011-11-05T10:01:16Z</time>
4165                        </trkpt>
4166                        <trkpt lat="50.811518928967416" lon="10.224300809204578">
4167                                <ele>318.5</ele>
4168                                <time>2011-11-05T10:01:17Z</time>
4169                        </trkpt>
4170                        <trkpt lat="50.811492945067585" lon="10.224170554429293">
4171                                <ele>318.0999755859375</ele>
4172                                <time>2011-11-05T10:01:18Z</time>
4173                        </trkpt>
4174                        <trkpt lat="50.811468930915" lon="10.224059661850333">
4175                                <ele>318.20001220703125</ele>
4176                                <time>2011-11-05T10:01:19Z</time>
4177                        </trkpt>
4178                        <trkpt lat="50.81145497504622" lon="10.22394759580493">
4179                                <ele>317.70001220703125</ele>
4180                                <time>2011-11-05T10:01:20Z</time>
4181                        </trkpt>
4182                        <trkpt lat="50.81145786680281" lon="10.223852461203933">
4183                                <ele>317.5999755859375</ele>
4184                                <time>2011-11-05T10:01:21Z</time>
4185                        </trkpt>
4186                        <trkpt lat="50.81145920790732" lon="10.223788423463702">
4187                                <ele>317.0999755859375</ele>
4188                                <time>2011-11-05T10:01:22Z</time>
4189                        </trkpt>
4190                        <trkpt lat="50.811461764387786" lon="10.22376386448741">
4191                                <ele>316.70001220703125</ele>
4192                                <time>2011-11-05T10:01:23Z</time>
4193                        </trkpt>
4194                        <trkpt lat="50.811461973935366" lon="10.223747687414289">
4195                                <ele>316.4000244140625</ele>
4196                                <time>2011-11-05T10:01:24Z</time>
4197                        </trkpt>
4198                        <trkpt lat="50.81145057454705" lon="10.223733438178897">
4199                                <ele>316.0</ele>
4200                                <time>2011-11-05T10:01:25Z</time>
4201                        </trkpt>
4202                        <trkpt lat="50.8114351099357" lon="10.223715584725142">
4203                                <ele>315.70001220703125</ele>
4204                                <time>2011-11-05T10:01:26Z</time>
4205                        </trkpt>
4206                        <trkpt lat="50.81142324954271" lon="10.223705023527145">
4207                                <ele>315.79998779296875</ele>
4208                                <time>2011-11-05T10:01:27Z</time>
4209                        </trkpt>
4210                        <trkpt lat="50.8114144904539" lon="10.223704520612955">
4211                                <ele>315.9000244140625</ele>
4212                                <time>2011-11-05T10:01:28Z</time>
4213                        </trkpt>
4214                        <trkpt lat="50.811409167945385" lon="10.223707789555192">
4215                                <ele>316.29998779296875</ele>
4216                                <time>2011-11-05T10:01:29Z</time>
4217                        </trkpt>
4218                        <trkpt lat="50.811400366947055" lon="10.223714830353856">
4219                                <ele>317.0</ele>
4220                                <time>2011-11-05T10:01:30Z</time>
4221                        </trkpt>
4222                        <trkpt lat="50.81139517016709" lon="10.223717512562871">
4223                                <ele>317.20001220703125</ele>
4224                                <time>2011-11-05T10:01:31Z</time>
4225                        </trkpt>
4226                        <trkpt lat="50.811370024457574" lon="10.223720613867044">
4227                                <ele>317.0999755859375</ele>
4228                                <time>2011-11-05T10:01:32Z</time>
4229                        </trkpt>
4230                        <trkpt lat="50.8113323058933" lon="10.223725391551852">
4231                                <ele>316.5999755859375</ele>
4232                                <time>2011-11-05T10:01:33Z</time>
4233                        </trkpt>
4234                        <trkpt lat="50.81130653154105" lon="10.223737796768546">
4235                                <ele>316.4000244140625</ele>
4236                                <time>2011-11-05T10:01:34Z</time>
4237                        </trkpt>
4238                        <trkpt lat="50.81127149518579" lon="10.223720949143171">
4239                                <ele>316.0999755859375</ele>
4240                                <time>2011-11-05T10:01:35Z</time>
4241                        </trkpt>
4242                        <trkpt lat="50.81125783268362" lon="10.223714746534824">
4243                                <ele>316.0999755859375</ele>
4244                                <time>2011-11-05T10:01:36Z</time>
4245                        </trkpt>
4246                        <trkpt lat="50.81124366726726" lon="10.223724385723472">
4247                                <ele>316.4000244140625</ele>
4248                                <time>2011-11-05T10:01:37Z</time>
4249                        </trkpt>
4250                        <trkpt lat="50.811227867379785" lon="10.223737545311451">
4251                                <ele>316.5</ele>
4252                                <time>2011-11-05T10:01:38Z</time>
4253                        </trkpt>
4254                        <trkpt lat="50.81121588125825" lon="10.22375850006938">
4255                                <ele>316.70001220703125</ele>
4256                                <time>2011-11-05T10:01:39Z</time>
4257                        </trkpt>
4258                        <trkpt lat="50.811209259554744" lon="10.223770821467042">
4259                                <ele>317.0999755859375</ele>
4260                                <time>2011-11-05T10:01:40Z</time>
4261                        </trkpt>
4262                        <trkpt lat="50.811207415536046" lon="10.22377802990377">
4263                                <ele>317.0999755859375</ele>
4264                                <time>2011-11-05T10:01:41Z</time>
4265                        </trkpt>
4266                        <trkpt lat="50.811207415536046" lon="10.22377802990377">
4267                                <ele>317.0999755859375</ele>
4268                                <time>2011-11-05T10:01:42Z</time>
4269                        </trkpt>
4270                        <trkpt lat="50.811207415536046" lon="10.22377802990377">
4271                                <ele>317.0999755859375</ele>
4272                                <time>2011-11-05T10:01:43Z</time>
4273                        </trkpt>
4274                        <trkpt lat="50.811207415536046" lon="10.22377802990377">
4275                                <ele>317.0999755859375</ele>
4276                                <time>2011-11-05T10:01:44Z</time>
4277                        </trkpt>
4278                        <trkpt lat="50.811207415536046" lon="10.22377802990377">
4279                                <ele>317.0999755859375</ele>
4280                                <time>2011-11-05T10:01:45Z</time>
4281                        </trkpt>
4282                        <trkpt lat="50.811207415536046" lon="10.22377802990377">
4283                                <ele>317.0999755859375</ele>
4284                                <time>2011-11-05T10:01:46Z</time>
4285                        </trkpt>
4286                        <trkpt lat="50.811207415536046" lon="10.22377802990377">
4287                                <ele>317.0999755859375</ele>
4288                                <time>2011-11-05T10:01:47Z</time>
4289                        </trkpt>
4290                        <trkpt lat="50.811207415536046" lon="10.22377802990377">
4291                                <ele>317.0999755859375</ele>
4292                                <time>2011-11-05T10:01:48Z</time>
4293                        </trkpt>
4294                        <trkpt lat="50.811207415536046" lon="10.22377802990377">
4295                                <ele>317.0999755859375</ele>
4296                                <time>2011-11-05T10:01:49Z</time>
4297                        </trkpt>
4298                        <trkpt lat="50.811207415536046" lon="10.22377802990377">
4299                                <ele>317.0999755859375</ele>
4300                                <time>2011-11-05T10:01:50Z</time>
4301                        </trkpt>
4302                        <trkpt lat="50.811207415536046" lon="10.22377802990377">
4303                                <ele>317.0999755859375</ele>
4304                                <time>2011-11-05T10:01:51Z</time>
4305                        </trkpt>
4306                        <trkpt lat="50.811226861551404" lon="10.223759757354856">
4307                                <ele>319.20001220703125</ele>
4308                                <time>2011-11-05T10:01:52Z</time>
4309                        </trkpt>
4310                        <trkpt lat="50.811245469376445" lon="10.223748022690415">
4311                                <ele>319.4000244140625</ele>
4312                                <time>2011-11-05T10:01:53Z</time>
4313                        </trkpt>
4314                        <trkpt lat="50.81124903168529" lon="10.223732348531485">
4315                                <ele>319.5999755859375</ele>
4316                                <time>2011-11-05T10:01:54Z</time>
4317                        </trkpt>
4318                        <trkpt lat="50.811253767460585" lon="10.223728325217962">
4319                                <ele>319.5999755859375</ele>
4320                                <time>2011-11-05T10:01:55Z</time>
4321                        </trkpt>
4322                        <trkpt lat="50.81125028897077" lon="10.223729917779565">
4323                                <ele>319.5999755859375</ele>
4324                                <time>2011-11-05T10:01:56Z</time>
4325                        </trkpt>
4326                        <trkpt lat="50.81125028897077" lon="10.223729917779565">
4327                                <ele>319.5999755859375</ele>
4328                                <time>2011-11-05T10:01:57Z</time>
4329                        </trkpt>
4330                        <trkpt lat="50.81125028897077" lon="10.223729917779565">
4331                                <ele>319.5999755859375</ele>
4332                                <time>2011-11-05T10:01:58Z</time>
4333                        </trkpt>
4334                        <trkpt lat="50.81125028897077" lon="10.223729917779565">
4335                                <ele>319.5999755859375</ele>
4336                                <time>2011-11-05T10:01:59Z</time>
4337                        </trkpt>
4338                        <trkpt lat="50.81125028897077" lon="10.223729917779565">
4339                                <ele>319.5999755859375</ele>
4340                                <time>2011-11-05T10:02:00Z</time>
4341                        </trkpt>
4342                        <trkpt lat="50.81125028897077" lon="10.223729917779565">
4343                                <ele>319.5999755859375</ele>
4344                                <time>2011-11-05T10:02:01Z</time>
4345                        </trkpt>
4346                        <trkpt lat="50.81125028897077" lon="10.223729917779565">
4347                                <ele>319.5999755859375</ele>
4348                                <time>2011-11-05T10:02:02Z</time>
4349                        </trkpt>
4350                        <trkpt lat="50.81125028897077" lon="10.223729917779565">
4351                                <ele>319.5999755859375</ele>
4352                                <time>2011-11-05T10:02:03Z</time>
4353                        </trkpt>
4354                        <trkpt lat="50.81125028897077" lon="10.223729917779565">
4355                                <ele>319.5999755859375</ele>
4356                                <time>2011-11-05T10:02:04Z</time>
4357                        </trkpt>
4358                        <trkpt lat="50.81125028897077" lon="10.223729917779565">
4359                                <ele>319.5999755859375</ele>
4360                                <time>2011-11-05T10:02:05Z</time>
4361                        </trkpt>
4362                        <trkpt lat="50.81125028897077" lon="10.223729917779565">
4363                                <ele>319.5999755859375</ele>
4364                                <time>2011-11-05T10:02:06Z</time>
4365                        </trkpt>
4366                        <trkpt lat="50.81125028897077" lon="10.223729917779565">
4367                                <ele>319.5999755859375</ele>
4368                                <time>2011-11-05T10:02:07Z</time>
4369                        </trkpt>
4370                        <trkpt lat="50.81125028897077" lon="10.223729917779565">
4371                                <ele>319.5999755859375</ele>
4372                                <time>2011-11-05T10:02:08Z</time>
4373                        </trkpt>
4374                        <trkpt lat="50.81120259594172" lon="10.223902333527803">
4375                                <ele>320.20001220703125</ele>
4376                                <time>2011-11-05T10:02:09Z</time>
4377                        </trkpt>
4378                        <trkpt lat="50.81121261231601" lon="10.223962012678385">
4379                                <ele>320.5999755859375</ele>
4380                                <time>2011-11-05T10:02:10Z</time>
4381                        </trkpt>
4382                        <trkpt lat="50.81121261231601" lon="10.22400476038456">
4383                                <ele>320.5999755859375</ele>
4384                                <time>2011-11-05T10:02:11Z</time>
4385                        </trkpt>
4386                        <trkpt lat="50.81120837945491" lon="10.224027559161186">
4387                                <ele>320.70001220703125</ele>
4388                                <time>2011-11-05T10:02:12Z</time>
4389                        </trkpt>
4390                        <trkpt lat="50.81120720598847" lon="10.224047172814608">
4391                                <ele>320.9000244140625</ele>
4392                                <time>2011-11-05T10:02:13Z</time>
4393                        </trkpt>
4394                        <trkpt lat="50.81120565533639" lon="10.224060248583555">
4395                                <ele>320.7999877919785</ele>
4396                                <time>2011-11-05T10:02:14Z</time>
4397                        </trkpt>
4398                        <trkpt lat="50.81120565523985" lon="10.224060249194618">
4399                                <ele>320.7999877919767</ele>
4400                                <time>2011-11-05T10:02:15Z</time>
4401                        </trkpt>
4402                        <trkpt lat="50.811203713784266" lon="10.224072539316383">
4403                                <ele>320.7999878548751</ele>
4404                                <time>2011-11-05T10:02:16Z</time>
4405                        </trkpt>
4406                        <trkpt lat="50.81120296650358" lon="10.224077269873124">
4407                                <ele>320.7999879122935</ele>
4408                                <time>2011-11-05T10:02:17Z</time>
4409                        </trkpt>
4410                        <trkpt lat="50.811201838190335" lon="10.224084412501071">
4411                                <ele>320.7999880338804</ele>
4412                                <time>2011-11-05T10:02:18Z</time>
4413                        </trkpt>
4414                        <trkpt lat="50.811199455199294" lon="10.224099497679733">
4415                                <ele>320.7999884290907</ele>
4416                                <time>2011-11-05T10:02:19Z</time>
4417                        </trkpt>
4418                        <trkpt lat="50.811198786621766" lon="10.224103730010144">
4419                                <ele>320.7999885725435</ele>
4420                                <time>2011-11-05T10:02:20Z</time>
4421                        </trkpt>
4422                        <trkpt lat="50.81119673187237" lon="10.224116737288208">
4423                                <ele>320.7999891105473</ele>
4424                                <time>2011-11-05T10:02:21Z</time>
4425                        </trkpt>
4426                        <trkpt lat="50.811196463632065" lon="10.224118435341838">
4427                                <ele>320.79998919018726</ele>
4428                                <time>2011-11-05T10:02:22Z</time>
4429                        </trkpt>
4430                        <trkpt lat="50.81119599198937" lon="10.224121421002339">
4431                                <ele>320.7999893372696</ele>
4432                                <time>2011-11-05T10:02:23Z</time>
4433                        </trkpt>
4434                        <trkpt lat="50.811195357864314" lon="10.224125435231203">
4435                                <ele>320.79998954690967</ele>
4436                                <time>2011-11-05T10:02:24Z</time>
4437                        </trkpt>
4438                        <trkpt lat="50.81119485991537" lon="10.224128587417884">
4439                                <ele>320.7999897202921</ele>
4440                                <time>2011-11-05T10:02:25Z</time>
4441                        </trkpt>
4442                        <trkpt lat="50.81119413351463" lon="10.224133185781348">
4443                                <ele>320.79998998814506</ele>
4444                                <time>2011-11-05T10:02:26Z</time>
4445                        </trkpt>
4446                        <trkpt lat="50.81119361687574" lon="10.224136456280219">
4447                                <ele>320.79999019078724</ele>
4448                                <time>2011-11-05T10:02:27Z</time>
4449                        </trkpt>
4450                        <trkpt lat="50.811193214784694" lon="10.22413900165201">
4451                                <ele>320.79999035395366</ele>
4452                                <time>2011-11-05T10:02:28Z</time>
4453                        </trkpt>
4454                        <trkpt lat="50.81119321326812" lon="10.224139011252449">
4455                                <ele>320.79999035392575</ele>
4456                                <time>2011-11-05T10:02:29Z</time>
4457                        </trkpt>
4458                        <trkpt lat="50.81119291173796" lon="10.22414092003971">
4459                                <ele>320.79999047876834</ele>
4460                                <time>2011-11-05T10:02:30Z</time>
4461                        </trkpt>
4462                        <trkpt lat="50.811192600119654" lon="10.224142892688127">
4463                                <ele>320.79999061258815</ele>
4464                                <time>2011-11-05T10:02:31Z</time>
4465                        </trkpt>
4466                        <trkpt lat="50.8111923651369" lon="10.224144380207724">
4467                                <ele>320.799990713987</ele>
4468                                <time>2011-11-05T10:02:32Z</time>
4469                        </trkpt>
4470                        <trkpt lat="50.81119192993457" lon="10.224147135183712">
4471                                <ele>320.79999090967175</ele>
4472                                <time>2011-11-05T10:02:33Z</time>
4473                        </trkpt>
4474                        <trkpt lat="50.811196822237825" lon="10.224116165243704">
4475                                <ele>320.7999890840182</ele>
4476                                <time>2011-11-05T10:02:34Z</time>
4477                        </trkpt>
4478                        <trkpt lat="50.81119698759662" lon="10.224110149818703">
4479                                <ele>320.79998883260976</ele>
4480                                <time>2011-11-05T10:02:35Z</time>
4481                        </trkpt>
4482                        <trkpt lat="50.81119673153692" lon="10.224103828809508">
4483                                <ele>320.7999886086773</ele>
4484                                <time>2011-11-05T10:02:36Z</time>
4485                        </trkpt>
4486                        <trkpt lat="50.8111944140402" lon="10.224121394239162">
4487                                <ele>320.79998936810017</ele>
4488                                <time>2011-11-05T10:02:37Z</time>
4489                        </trkpt>
4490                        <trkpt lat="50.81119302401331" lon="10.224130725660418">
4491                                <ele>320.7999898781781</ele>
4492                                <time>2011-11-05T10:02:38Z</time>
4493                        </trkpt>
4494                        <trkpt lat="50.81119203190092" lon="10.224138371997292">
4495                                <ele>320.79999034413487</ele>
4496                                <time>2011-11-05T10:02:39Z</time>
4497                        </trkpt>
4498                        <trkpt lat="50.811171818882144" lon="10.22421053349902">
4499                                <ele>320.79992377913976</ele>
4500                                <time>2011-11-05T10:02:40Z</time>
4501                        </trkpt>
4502                        <trkpt lat="50.81115547504135" lon="10.224268713775858">
4503                                <ele>320.6999484235263</ele>
4504                                <time>2011-11-05T10:02:41Z</time>
4505                        </trkpt>
4506                        <trkpt lat="50.81114272059097" lon="10.224320348018638">
4507                                <ele>320.6999554317157</ele>
4508                                <time>2011-11-05T10:02:42Z</time>
4509                        </trkpt>
4510                        <trkpt lat="50.81113133248717" lon="10.224359623061034">
4511                                <ele>320.5999217551191</ele>
4512                                <time>2011-11-05T10:02:43Z</time>
4513                        </trkpt>
4514                        <trkpt lat="50.81111508594641" lon="10.224394942247836">
4515                                <ele>319.9999580506653</ele>
4516                                <time>2011-11-05T10:02:44Z</time>
4517                        </trkpt>
4518                        <trkpt lat="50.811087614870814" lon="10.224450028240302">
4519                                <ele>319.9999791257507</ele>
4520                                <time>2011-11-05T10:02:45Z</time>
4521                        </trkpt>
4522                        <trkpt lat="50.811075662626834" lon="10.224475107530784">
4523                                <ele>319.99998984692013</ele>
4524                                <time>2011-11-05T10:02:46Z</time>
4525                        </trkpt>
4526                        <trkpt lat="50.81106810899817" lon="10.22449183622435">
4527                                <ele>319.9999973142425</ele>
4528                                <time>2011-11-05T10:02:47Z</time>
4529                        </trkpt>
4530                        <trkpt lat="50.81106229504695" lon="10.224503767080419">
4531                                <ele>320.0000029562303</ele>
4532                                <time>2011-11-05T10:02:48Z</time>
4533                        </trkpt>
4534                        <trkpt lat="50.81105694099312" lon="10.224509506008562">
4535                                <ele>320.0000064659989</ele>
4536                                <time>2011-11-05T10:02:49Z</time>
4537                        </trkpt>
4538                        <trkpt lat="50.81105177011539" lon="10.224509533167852">
4539                                <ele>320.0000079949412</ele>
4540                                <time>2011-11-05T10:02:50Z</time>
4541                        </trkpt>
4542                        <trkpt lat="50.81105001212724" lon="10.224515354425188">
4543                                <ele>320.0000105692105</ele>
4544                                <time>2011-11-05T10:02:51Z</time>
4545                        </trkpt>
4546                        <trkpt lat="50.811046451567016" lon="10.22451644984769">
4547                                <ele>320.00001204528905</ele>
4548                                <time>2011-11-05T10:02:52Z</time>
4549                        </trkpt>
4550                        <trkpt lat="50.811048127842696" lon="10.224521891089347">
4551                                <ele>320.00001347173935</ele>
4552                                <time>2011-11-05T10:02:53Z</time>
4553                        </trkpt>
4554                        <trkpt lat="50.81104814800141" lon="10.224525222525093">
4555                                <ele>320.0000146640362</ele>
4556                                <time>2011-11-05T10:02:54Z</time>
4557                        </trkpt>
4558                        <trkpt lat="50.811048400392885" lon="10.224527863032062">
4559                                <ele>320.0000155448232</ele>
4560                                <time>2011-11-05T10:02:55Z</time>
4561                        </trkpt>
4562                        <trkpt lat="50.81104810036146" lon="10.224530744529083">
4563                                <ele>320.0000166882366</ele>
4564                                <time>2011-11-05T10:02:56Z</time>
4565                        </trkpt>
4566                        <trkpt lat="50.81104874082608" lon="10.224530595669735">
4567                                <ele>320.00001643709703</ele>
4568                                <time>2011-11-05T10:02:57Z</time>
4569                        </trkpt>
4570                        <trkpt lat="50.811048792876484" lon="10.224531606934427">
4571                                <ele>320.00001679189603</ele>
4572                                <time>2011-11-05T10:02:58Z</time>
4573                        </trkpt>
4574                        <trkpt lat="50.81104866987218" lon="10.22453283896098">
4575                                <ele>320.00001728022045</ele>
4576                                <time>2011-11-05T10:02:59Z</time>
4577                        </trkpt>
4578                        <trkpt lat="50.81104887742702" lon="10.224532811527663">
4579                                <ele>320.0000172079109</ele>
4580                                <time>2011-11-05T10:03:00Z</time>
4581                        </trkpt>
4582                        <trkpt lat="50.81104867653603" lon="10.224533853756792">
4583                                <ele>320.00001765251153</ele>
4584                                <time>2011-11-05T10:03:01Z</time>
4585                        </trkpt>
4586                        <trkpt lat="50.81104906262869" lon="10.224532940041469">
4587                                <ele>320.0000171979234</ele>
4588                                <time>2011-11-05T10:03:02Z</time>
4589                        </trkpt>
4590                        <trkpt lat="50.8110480836083" lon="10.224529169312708">
4591                                <ele>320.0000161169882</ele>
4592                                <time>2011-11-05T10:03:03Z</time>
4593                        </trkpt>
4594                        <trkpt lat="50.81104448280784" lon="10.224523948063325">
4595                                <ele>320.00001533887456</ele>
4596                                <time>2011-11-05T10:03:04Z</time>
4597                        </trkpt>
4598                        <trkpt lat="50.8110432346613" lon="10.224526289447041">
4599                                <ele>320.0000165769304</ele>
4600                                <time>2011-11-05T10:03:05Z</time>
4601                        </trkpt>
4602                        <trkpt lat="50.811043781820246" lon="10.224532559588631">
4603                                <ele>320.0000186917159</ele>
4604                                <time>2011-11-05T10:03:06Z</time>
4605                        </trkpt>
4606                        <trkpt lat="50.81104457389492" lon="10.224534245603564">
4607                                <ele>320.0000190636445</ele>
4608                                <time>2011-11-05T10:03:07Z</time>
4609                        </trkpt>
4610                        <trkpt lat="50.811039104905255" lon="10.224550262009943">
4611                                <ele>320.00002680330795</ele>
4612                                <time>2011-11-05T10:03:08Z</time>
4613                        </trkpt>
4614                        <trkpt lat="50.811037332021954" lon="10.224558522131609">
4615                                <ele>320.0000305530176</ele>
4616                                <time>2011-11-05T10:03:09Z</time>
4617                        </trkpt>
4618                        <trkpt lat="50.811035377284796" lon="10.22456604858677">
4619                                <ele>320.00003413303597</ele>
4620                                <time>2011-11-05T10:03:10Z</time>
4621                        </trkpt>
4622                        <trkpt lat="50.811034207782605" lon="10.224571597687824">
4623                                <ele>320.0000367146001</ele>
4624                                <time>2011-11-05T10:03:11Z</time>
4625                        </trkpt>
4626                        <trkpt lat="50.81103275943407" lon="10.22457766214729">
4627                                <ele>320.0000396237339</ele>
4628                                <time>2011-11-05T10:03:12Z</time>
4629                        </trkpt>
4630                        <trkpt lat="50.811030360937" lon="10.224578706011913">
4631                                <ele>320.00004085544293</ele>
4632                                <time>2011-11-05T10:03:13Z</time>
4633                        </trkpt>
4634                        <trkpt lat="50.81102749578645" lon="10.224576059565408">
4635                                <ele>320.0000407745728</ele>
4636                                <time>2011-11-05T10:03:14Z</time>
4637                        </trkpt>
4638                        <trkpt lat="50.81102838044392" lon="10.224574442282632">
4639                                <ele>320.000039822353</ele>
4640                                <time>2011-11-05T10:03:15Z</time>
4641                        </trkpt>
4642                        <trkpt lat="50.81102643885134" lon="10.224572013305641">
4643                                <ele>320.00003952515226</ele>
4644                                <time>2011-11-05T10:03:16Z</time>
4645                        </trkpt>
4646                        <trkpt lat="50.81102726176162" lon="10.22456800240044">
4647                                <ele>320.00003764983427</ele>
4648                                <time>2011-11-05T10:03:17Z</time>
4649                        </trkpt>
4650                        <trkpt lat="50.8110192970606" lon="10.224572882754025">
4651                                <ele>320.00004240573804</ele>
4652                                <time>2011-11-05T10:03:18Z</time>
4653                        </trkpt>
4654                        <trkpt lat="50.81101864805885" lon="10.224583442953639">
4655                                <ele>320.00004689295764</ele>
4656                                <time>2011-11-05T10:03:19Z</time>
4657                        </trkpt>
4658                        <trkpt lat="50.81100616469339" lon="10.224596763889991">
4659                                <ele>318.4999360444023</ele>
4660                                <time>2011-11-05T10:03:20Z</time>
4661                        </trkpt>
4662                        <trkpt lat="50.810983375164284" lon="10.224606271133155">
4663                                <ele>318.4999139950955</ele>
4664                                <time>2011-11-05T10:03:21Z</time>
4665                        </trkpt>
4666                        <trkpt lat="50.81095008825123" lon="10.224594007545154">
4667                                <ele>318.4999179852276</ele>
4668                                <time>2011-11-05T10:03:22Z</time>
4669                        </trkpt>
4670                        <trkpt lat="50.81091528707711" lon="10.224566415181723">
4671                                <ele>318.4999252795443</ele>
4672                                <time>2011-11-05T10:03:23Z</time>
4673                        </trkpt>
4674                        <trkpt lat="50.81090845916925" lon="10.22456121811534">
4675                                <ele>318.49992713879556</ele>
4676                                <time>2011-11-05T10:03:24Z</time>
4677                        </trkpt>
4678                        <trkpt lat="50.81090585529173" lon="10.22454454608236">
4679                                <ele>318.49992226423666</ele>
4680                                <time>2011-11-05T10:03:25Z</time>
4681                        </trkpt>
4682                        <trkpt lat="50.81091090216432" lon="10.224532751567313">
4683                                <ele>318.49991496538024</ele>
4684                                <time>2011-11-05T10:03:26Z</time>
4685                        </trkpt>
4686                        <trkpt lat="50.8109193293938" lon="10.224525628855101">
4687                                <ele>318.499907614192</ele>
4688                                <time>2011-11-05T10:03:27Z</time>
4689                        </trkpt>
4690                        <trkpt lat="50.810926855799636" lon="10.224517009415724">
4691                                <ele>318.4999003952462</ele>
4692                                <time>2011-11-05T10:03:28Z</time>
4693                        </trkpt>
4694                        <trkpt lat="50.810937011695735" lon="10.224510865651729">
4695                                <ele>318.4998928303975</ele>
4696                                <time>2011-11-05T10:03:29Z</time>
4697                        </trkpt>
4698                </trkseg>
4699        </trk>
4700        <wpt lat="50.76171407941729" lon="10.155265191569924">
4701                <ele>354.70001220703125</ele>
4702                <time>2011-11-05T09:44:17Z</time>
4703                <name><![CDATA[Sprachaufnahme]]></name>
4704                <link href="2011-11-05_10-44-14.3gpp">
4705                        <text>2011-11-05_10-44-14.3gpp</text>
4706                </link>
4707                <sat>6</sat>
4708        </wpt>
4709        <wpt lat="50.760893574915826" lon="10.15336275100708">
4710                <ele>347.70001220703125</ele>
4711                <time>2011-11-05T09:45:14Z</time>
4712                <name><![CDATA[Sprachaufnahme]]></name>
4713                <link href="2011-11-05_10-45-12.3gpp">
4714                        <text>2011-11-05_10-45-12.3gpp</text>
4715                </link>
4716                <sat>8</sat>
4717        </wpt>
4718        <wpt lat="50.75678790919483" lon="10.152011588215828">
4719                <ele>351.0</ele>
4720                <time>2011-11-05T09:46:15Z</time>
4721                <name><![CDATA[Sprachaufnahme]]></name>
4722                <link href="2011-11-05_10-46-13.3gpp">
4723                        <text>2011-11-05_10-46-13.3gpp</text>
4724                </link>
4725                <sat>9</sat>
4726        </wpt>
4727        <wpt lat="50.73848116211593" lon="10.147274807095528">
4728                <ele>371.0999755859375</ele>
4729                <time>2011-11-05T09:47:38Z</time>
4730                <name><![CDATA[Sprachaufnahme]]></name>
4731                <link href="2011-11-05_10-47-36.3gpp">
4732                        <text>2011-11-05_10-47-36.3gpp</text>
4733                </link>
4734                <sat>8</sat>
4735        </wpt>
4736        <wpt lat="50.73662758804858" lon="10.146197900176048">
4737                <ele>368.9000244140625</ele>
4738                <time>2011-11-05T09:47:49Z</time>
4739                <name><![CDATA[Sprachaufnahme]]></name>
4740                <link href="2011-11-05_10-47-47.3gpp">
4741                        <text>2011-11-05_10-47-47.3gpp</text>
4742                </link>
4743                <sat>7</sat>
4744        </wpt>
4745        <wpt lat="50.73592589702457" lon="10.147268520668149">
4746                <ele>367.9000244140625</ele>
4747                <time>2011-11-05T09:48:08Z</time>
4748                <name><![CDATA[Sprachaufnahme]]></name>
4749                <link href="2011-11-05_10-48-06.3gpp">
4750                        <text>2011-11-05_10-48-06.3gpp</text>
4751                </link>
4752                <sat>8</sat>
4753        </wpt>
4754        <wpt lat="50.7359737996012" lon="10.148712554946542">
4755                <ele>364.0</ele>
4756                <time>2011-11-05T09:48:16Z</time>
4757                <name><![CDATA[Sprachaufnahme]]></name>
4758                <link href="2011-11-05_10-48-14.3gpp">
4759                        <text>2011-11-05_10-48-14.3gpp</text>
4760                </link>
4761                <sat>8</sat>
4762        </wpt>
4763        <wpt lat="50.735613838769495" lon="10.150347864255309">
4764                <ele>367.0999755859375</ele>
4765                <time>2011-11-05T09:48:25Z</time>
4766                <name><![CDATA[Sprachaufnahme]]></name>
4767                <link href="2011-11-05_10-48-23.3gpp">
4768                        <text>2011-11-05_10-48-23.3gpp</text>
4769                </link>
4770                <sat>8</sat>
4771        </wpt>
4772        <wpt lat="50.73377070017159" lon="10.163000179454684">
4773                <ele>397.20001220703125</ele>
4774                <time>2011-11-05T09:49:03Z</time>
4775                <name><![CDATA[Sprachaufnahme]]></name>
4776                <link href="2011-11-05_10-49-01.3gpp">
4777                        <text>2011-11-05_10-49-01.3gpp</text>
4778                </link>
4779                <sat>10</sat>
4780        </wpt>
4781        <wpt lat="50.733463587239385" lon="10.169029952958226">
4782                <ele>394.20001220703125</ele>
4783                <time>2011-11-05T09:49:27Z</time>
4784                <name><![CDATA[Sprachaufnahme]]></name>
4785                <link href="2011-11-05_10-49-25.3gpp">
4786                        <text>2011-11-05_10-49-25.3gpp</text>
4787                </link>
4788                <sat>9</sat>
4789        </wpt>
4790        <wpt lat="50.73524625040591" lon="10.170414811000228">
4791                <ele>381.4000244140625</ele>
4792                <time>2011-11-05T09:49:43Z</time>
4793                <name><![CDATA[Sprachaufnahme]]></name>
4794                <link href="2011-11-05_10-49-41.3gpp">
4795                        <text>2011-11-05_10-49-41.3gpp</text>
4796                </link>
4797                <sat>9</sat>
4798        </wpt>
4799        <wpt lat="50.73658362496644" lon="10.171008165925741">
4800                <ele>378.70001220703125</ele>
4801                <time>2011-11-05T09:49:54Z</time>
4802                <name><![CDATA[Sprachaufnahme]]></name>
4803                <link href="2011-11-05_10-49-52.3gpp">
4804                        <text>2011-11-05_10-49-52.3gpp</text>
4805                </link>
4806                <sat>9</sat>
4807        </wpt>
4808        <wpt lat="50.737508777529" lon="10.171940317377448">
4809                <ele>378.5999755859375</ele>
4810                <time>2011-11-05T09:50:02Z</time>
4811                <name><![CDATA[Sprachaufnahme]]></name>
4812                <link href="2011-11-05_10-50-00.3gpp">
4813                        <text>2011-11-05_10-50-00.3gpp</text>
4814                </link>
4815                <sat>10</sat>
4816        </wpt>
4817        <wpt lat="50.738973934203386" lon="10.173077071085572">
4818                <ele>376.20001220703125</ele>
4819                <time>2011-11-05T09:50:14Z</time>
4820                <name><![CDATA[Sprachaufnahme]]></name>
4821                <link href="2011-11-05_10-50-12.3gpp">
4822                        <text>2011-11-05_10-50-12.3gpp</text>
4823                </link>
4824                <sat>9</sat>
4825        </wpt>
4826        <wpt lat="50.74738068971783" lon="10.173760699108243">
4827                <ele>384.9000244140625</ele>
4828                <time>2011-11-05T09:51:00Z</time>
4829                <name><![CDATA[Sprachaufnahme]]></name>
4830                <link href="2011-11-05_10-50-58.3gpp">
4831                        <text>2011-11-05_10-50-58.3gpp</text>
4832                </link>
4833                <sat>8</sat>
4834        </wpt>
4835        <wpt lat="50.75791284441948" lon="10.180052239447832">
4836                <ele>428.0999755859375</ele>
4837                <time>2011-11-05T09:52:17Z</time>
4838                <name><![CDATA[Sprachaufnahme]]></name>
4839                <link href="2011-11-05_10-52-15.3gpp">
4840                        <text>2011-11-05_10-52-15.3gpp</text>
4841                </link>
4842                <sat>8</sat>
4843        </wpt>
4844        <wpt lat="50.76345718000084" lon="10.18499563448131">
4845                <ele>452.5</ele>
4846                <time>2011-11-05T09:52:58Z</time>
4847                <name><![CDATA[Sprachaufnahme]]></name>
4848                <link href="2011-11-05_10-52-56.3gpp">
4849                        <text>2011-11-05_10-52-56.3gpp</text>
4850                </link>
4851                <sat>7</sat>
4852        </wpt>
4853        <wpt lat="50.765001671388745" lon="10.186137333512306">
4854                <ele>449.29998779296875</ele>
4855                <time>2011-11-05T09:53:07Z</time>
4856                <name><![CDATA[Sprachaufnahme]]></name>
4857                <link href="2011-11-05_10-53-04.3gpp">
4858                        <text>2011-11-05_10-53-04.3gpp</text>
4859                </link>
4860                <sat>7</sat>
4861        </wpt>
4862        <wpt lat="50.76706064399332" lon="10.186556428670883">
4863                <ele>444.0</ele>
4864                <time>2011-11-05T09:53:18Z</time>
4865                <name><![CDATA[Sprachaufnahme]]></name>
4866                <link href="2011-11-05_10-53-16.3gpp">
4867                        <text>2011-11-05_10-53-16.3gpp</text>
4868                </link>
4869                <sat>8</sat>
4870        </wpt>
4871        <wpt lat="50.77310537919402" lon="10.195936532691121">
4872                <ele>393.79998779296875</ele>
4873                <time>2011-11-05T09:54:01Z</time>
4874                <name><![CDATA[Sprachaufnahme]]></name>
4875                <link href="2011-11-05_10-53-59.3gpp">
4876                        <text>2011-11-05_10-53-59.3gpp</text>
4877                </link>
4878                <sat>8</sat>
4879        </wpt>
4880        <wpt lat="50.777136445976794" lon="10.200279951095581">
4881                <ele>382.0999755859375</ele>
4882                <time>2011-11-05T09:54:27Z</time>
4883                <name><![CDATA[Sprachaufnahme]]></name>
4884                <link href="2011-11-05_10-54-25.3gpp">
4885                        <text>2011-11-05_10-54-25.3gpp</text>
4886                </link>
4887                <sat>10</sat>
4888        </wpt>
4889        <wpt lat="50.77950454317033" lon="10.200208285823464">
4890                <ele>386.0999755859375</ele>
4891                <time>2011-11-05T09:54:40Z</time>
4892                <name><![CDATA[Sprachaufnahme]]></name>
4893                <link href="2011-11-05_10-54-38.3gpp">
4894                        <text>2011-11-05_10-54-38.3gpp</text>
4895                </link>
4896                <sat>10</sat>
4897        </wpt>
4898        <wpt lat="50.782113494351506" lon="10.199069520458579">
4899                <ele>382.79998779296875</ele>
4900                <time>2011-11-05T09:54:55Z</time>
4901                <name><![CDATA[Sprachaufnahme]]></name>
4902                <link href="2011-11-05_10-54-53.3gpp">
4903                        <text>2011-11-05_10-54-53.3gpp</text>
4904                </link>
4905                <sat>10</sat>
4906        </wpt>
4907        <wpt lat="50.78418390825391" lon="10.201295586302876">
4908                <ele>379.5999755859375</ele>
4909                <time>2011-11-05T09:55:09Z</time>
4910                <name><![CDATA[Sprachaufnahme]]></name>
4911                <link href="2011-11-05_10-55-07.3gpp">
4912                        <text>2011-11-05_10-55-07.3gpp</text>
4913                </link>
4914                <sat>10</sat>
4915        </wpt>
4916        <wpt lat="50.78496719710529" lon="10.202616574242711">
4917                <ele>377.70001220703125</ele>
4918                <time>2011-11-05T09:55:16Z</time>
4919                <name><![CDATA[Sprachaufnahme]]></name>
4920                <link href="2011-11-05_10-55-14.3gpp">
4921                        <text>2011-11-05_10-55-14.3gpp</text>
4922                </link>
4923                <sat>10</sat>
4924        </wpt>
4925        <wpt lat="50.785265089944005" lon="10.203115465119481">
4926                <ele>375.79998779296875</ele>
4927                <time>2011-11-05T09:55:20Z</time>
4928                <name><![CDATA[Sprachaufnahme]]></name>
4929                <link href="2011-11-05_10-55-18.3gpp">
4930                        <text>2011-11-05_10-55-18.3gpp</text>
4931                </link>
4932                <sat>10</sat>
4933        </wpt>
4934        <wpt lat="50.78888058196753" lon="10.208338564261794">
4935                <ele>363.70001220703125</ele>
4936                <time>2011-11-05T09:56:03Z</time>
4937                <name><![CDATA[Sprachaufnahme]]></name>
4938                <link href="2011-11-05_10-56-01.3gpp">
4939                        <text>2011-11-05_10-56-01.3gpp</text>
4940                </link>
4941                <sat>8</sat>
4942        </wpt>
4943        <wpt lat="50.79086072277278" lon="10.211026053875685">
4944                <ele>359.0</ele>
4945                <time>2011-11-05T09:56:27Z</time>
4946                <name><![CDATA[Sprachaufnahme]]></name>
4947                <link href="2011-11-05_10-56-25.3gpp">
4948                        <text>2011-11-05_10-56-25.3gpp</text>
4949                </link>
4950                <sat>9</sat>
4951        </wpt>
4952        <wpt lat="50.79146924894303" lon="10.212091309949756">
4953                <ele>363.4000244140625</ele>
4954                <time>2011-11-05T09:56:46Z</time>
4955                <name><![CDATA[Sprachaufnahme]]></name>
4956                <link href="2011-11-05_10-56-44.3gpp">
4957                        <text>2011-11-05_10-56-44.3gpp</text>
4958                </link>
4959                <sat>9</sat>
4960        </wpt>
4961        <wpt lat="50.79300489742309" lon="10.21535606123507">
4962                <ele>356.9000244140625</ele>
4963                <time>2011-11-05T09:57:08Z</time>
4964                <name><![CDATA[Sprachaufnahme]]></name>
4965                <link href="2011-11-05_10-57-06.3gpp">
4966                        <text>2011-11-05_10-57-06.3gpp</text>
4967                </link>
4968                <sat>8</sat>
4969        </wpt>
4970        <wpt lat="50.79412731807679" lon="10.217921007424593">
4971                <ele>355.20001220703125</ele>
4972                <time>2011-11-05T09:57:30Z</time>
4973                <name><![CDATA[Sprachaufnahme]]></name>
4974                <link href="2011-11-05_10-57-28.3gpp">
4975                        <text>2011-11-05_10-57-28.3gpp</text>
4976                </link>
4977                <sat>11</sat>
4978        </wpt>
4979        <wpt lat="50.79580005258322" lon="10.219128420576453">
4980                <ele>356.5</ele>
4981                <time>2011-11-05T09:57:46Z</time>
4982                <name><![CDATA[Sprachaufnahme]]></name>
4983                <link href="2011-11-05_10-57-44.3gpp">
4984                        <text>2011-11-05_10-57-44.3gpp</text>
4985                </link>
4986                <sat>11</sat>
4987        </wpt>
4988        <wpt lat="50.79880701843649" lon="10.221061371266842">
4989                <ele>353.29998779296875</ele>
4990                <time>2011-11-05T09:59:00Z</time>
4991                <name><![CDATA[Sprachaufnahme]]></name>
4992                <link href="2011-11-05_10-58-58.3gpp">
4993                        <text>2011-11-05_10-58-58.3gpp</text>
4994                </link>
4995                <sat>11</sat>
4996        </wpt>
4997</gpx>